<?xml version='1.0' encoding='UTF-8'?>
<gpx version="1.1" creator="https://www.komoot.de" xmlns="http://www.topografix.com/GPX/1/1" xmlns:xsi="http://www.w3.org/2001/XMLSchema-instance" xsi:schemaLocation="http://www.topografix.com/GPX/1/1 http://www.topografix.com/GPX/1/1/gpx.xsd">
  <metadata>
    <name>52_620HaselSchopfheim</name>
    <author>
      <link href="https://www.komoot.de">
        <text>komoot</text>
        <type>text/html</type>
      </link>
    </author>
  </metadata>
  <trk>
    <name>52_620HaselSchopfheim</name>
    <trkseg>
      <trkpt lat="47.541201" lon="7.870965">
        <ele>340.633004</ele>
        <time>2021-11-13T09:12:34.017Z</time>
      </trkpt>
      <trkpt lat="47.541410" lon="7.870791">
        <ele>340.633004</ele>
        <time>2021-11-13T09:12:37.820Z</time>
      </trkpt>
      <trkpt lat="47.541576" lon="7.870664">
        <ele>340.633004</ele>
        <time>2021-11-13T09:12:41.949Z</time>
      </trkpt>
      <trkpt lat="47.541796" lon="7.871042">
        <ele>340.633004</ele>
        <time>2021-11-13T09:12:49.134Z</time>
      </trkpt>
      <trkpt lat="47.541953" lon="7.871286">
        <ele>340.951455</ele>
        <time>2021-11-13T09:12:53.892Z</time>
      </trkpt>
      <trkpt lat="47.542039" lon="7.871556">
        <ele>341.651171</ele>
        <time>2021-11-13T09:12:58.381Z</time>
      </trkpt>
      <trkpt lat="47.542067" lon="7.871664">
        <ele>341.922321</ele>
        <time>2021-11-13T09:12:59.954Z</time>
      </trkpt>
      <trkpt lat="47.542091" lon="7.871721">
        <ele>342.079771</ele>
        <time>2021-11-13T09:13:00.552Z</time>
      </trkpt>
      <trkpt lat="47.542218" lon="7.871866">
        <ele>342.636474</ele>
        <time>2021-11-13T09:13:05.774Z</time>
      </trkpt>
      <trkpt lat="47.542394" lon="7.872341">
        <ele>343.906422</ele>
        <time>2021-11-13T09:13:15.842Z</time>
      </trkpt>
      <trkpt lat="47.542436" lon="7.872494">
        <ele>344.293527</ele>
        <time>2021-11-13T09:13:19.173Z</time>
      </trkpt>
      <trkpt lat="47.542537" lon="7.872430">
        <ele>344.674928</ele>
        <time>2021-11-13T09:13:21.208Z</time>
      </trkpt>
      <trkpt lat="47.542714" lon="7.872334">
        <ele>345.329356</ele>
        <time>2021-11-13T09:13:28.321Z</time>
      </trkpt>
      <trkpt lat="47.542814" lon="7.872280">
        <ele>345.698899</ele>
        <time>2021-11-13T09:13:31.198Z</time>
      </trkpt>
      <trkpt lat="47.542919" lon="7.872226">
        <ele>346.084798</ele>
        <time>2021-11-13T09:13:35.039Z</time>
      </trkpt>
      <trkpt lat="47.543013" lon="7.872182">
        <ele>346.427066</ele>
        <time>2021-11-13T09:13:38.669Z</time>
      </trkpt>
      <trkpt lat="47.543233" lon="7.872082">
        <ele>347.499530</ele>
        <time>2021-11-13T09:13:45.767Z</time>
      </trkpt>
      <trkpt lat="47.543251" lon="7.872152">
        <ele>347.812962</ele>
        <time>2021-11-13T09:13:49.181Z</time>
      </trkpt>
      <trkpt lat="47.543332" lon="7.872237">
        <ele>348.428260</ele>
        <time>2021-11-13T09:13:52.591Z</time>
      </trkpt>
      <trkpt lat="47.544390" lon="7.872423">
        <ele>355.032441</ele>
        <time>2021-11-13T09:14:34.223Z</time>
      </trkpt>
      <trkpt lat="47.544883" lon="7.872555">
        <ele>358.147095</ele>
        <time>2021-11-13T09:14:56.565Z</time>
      </trkpt>
      <trkpt lat="47.545131" lon="7.872664">
        <ele>359.883769</ele>
        <time>2021-11-13T09:15:07.569Z</time>
      </trkpt>
      <trkpt lat="47.545375" lon="7.872836">
        <ele>361.697849</ele>
        <time>2021-11-13T09:15:18.510Z</time>
      </trkpt>
      <trkpt lat="47.545478" lon="7.872968">
        <ele>362.612166</ele>
        <time>2021-11-13T09:15:25.318Z</time>
      </trkpt>
      <trkpt lat="47.545515" lon="7.873015">
        <ele>362.939375</ele>
        <time>2021-11-13T09:15:27.274Z</time>
      </trkpt>
      <trkpt lat="47.545746" lon="7.873302">
        <ele>364.963365</ele>
        <time>2021-11-13T09:15:40.474Z</time>
      </trkpt>
      <trkpt lat="47.545934" lon="7.873549">
        <ele>366.650327</ele>
        <time>2021-11-13T09:15:50.574Z</time>
      </trkpt>
      <trkpt lat="47.546077" lon="7.873763">
        <ele>368.014913</ele>
        <time>2021-11-13T09:15:59.770Z</time>
      </trkpt>
      <trkpt lat="47.546135" lon="7.873859">
        <ele>368.598756</ele>
        <time>2021-11-13T09:16:03.010Z</time>
      </trkpt>
      <trkpt lat="47.546309" lon="7.874154">
        <ele>370.272510</ele>
        <time>2021-11-13T09:16:14.124Z</time>
      </trkpt>
      <trkpt lat="47.547126" lon="7.875801">
        <ele>376.076069</ele>
        <time>2021-11-13T09:16:59.885Z</time>
      </trkpt>
      <trkpt lat="47.547574" lon="7.876801">
        <ele>377.549930</ele>
        <time>2021-11-13T09:17:18.881Z</time>
      </trkpt>
      <trkpt lat="47.547992" lon="7.877974">
        <ele>377.304361</ele>
        <time>2021-11-13T09:17:31.682Z</time>
      </trkpt>
      <trkpt lat="47.548234" lon="7.878638">
        <ele>377.024981</ele>
        <time>2021-11-13T09:17:36.994Z</time>
      </trkpt>
      <trkpt lat="47.548422" lon="7.878959">
        <ele>375.881445</ele>
        <time>2021-11-13T09:17:39.837Z</time>
      </trkpt>
      <trkpt lat="47.548718" lon="7.879258">
        <ele>374.453299</ele>
        <time>2021-11-13T09:17:43.375Z</time>
      </trkpt>
      <trkpt lat="47.549140" lon="7.879391">
        <ele>372.733389</ele>
        <time>2021-11-13T09:17:47.562Z</time>
      </trkpt>
      <trkpt lat="47.549318" lon="7.879398">
        <ele>372.023557</ele>
        <time>2021-11-13T09:17:49.189Z</time>
      </trkpt>
      <trkpt lat="47.549327" lon="7.879547">
        <ele>371.621047</ele>
        <time>2021-11-13T09:17:50.175Z</time>
      </trkpt>
      <trkpt lat="47.549726" lon="7.880786">
        <ele>368.066081</ele>
        <time>2021-11-13T09:17:59.110Z</time>
      </trkpt>
      <trkpt lat="47.549927" lon="7.881490">
        <ele>366.146738</ele>
        <time>2021-11-13T09:18:04.142Z</time>
      </trkpt>
      <trkpt lat="47.550234" lon="7.883221">
        <ele>361.478334</ele>
        <time>2021-11-13T09:18:16.542Z</time>
      </trkpt>
      <trkpt lat="47.550332" lon="7.884727">
        <ele>357.280303</ele>
        <time>2021-11-13T09:18:26.387Z</time>
      </trkpt>
      <trkpt lat="47.550391" lon="7.885109">
        <ele>356.192983</ele>
        <time>2021-11-13T09:18:28.919Z</time>
      </trkpt>
      <trkpt lat="47.550548" lon="7.885799">
        <ele>353.565447</ele>
        <time>2021-11-13T09:18:33.524Z</time>
      </trkpt>
      <trkpt lat="47.550677" lon="7.886476">
        <ele>350.935151</ele>
        <time>2021-11-13T09:18:37.954Z</time>
      </trkpt>
      <trkpt lat="47.550758" lon="7.887295">
        <ele>347.840154</ele>
        <time>2021-11-13T09:18:43.096Z</time>
      </trkpt>
      <trkpt lat="47.550789" lon="7.887816">
        <ele>345.875264</ele>
        <time>2021-11-13T09:18:46.328Z</time>
      </trkpt>
      <trkpt lat="47.550831" lon="7.888611">
        <ele>342.501543</ele>
        <time>2021-11-13T09:18:51.284Z</time>
      </trkpt>
      <trkpt lat="47.550833" lon="7.889069">
        <ele>340.563828</ele>
        <time>2021-11-13T09:18:54.094Z</time>
      </trkpt>
      <trkpt lat="47.550915" lon="7.890600">
        <ele>334.231147</ele>
        <time>2021-11-13T09:19:03.487Z</time>
      </trkpt>
      <trkpt lat="47.550904" lon="7.891725">
        <ele>330.748838</ele>
        <time>2021-11-13T09:19:10.490Z</time>
      </trkpt>
      <trkpt lat="47.550892" lon="7.893176">
        <ele>326.379677</ele>
        <time>2021-11-13T09:19:20.103Z</time>
      </trkpt>
      <trkpt lat="47.550908" lon="7.894308">
        <ele>325.320741</ele>
        <time>2021-11-13T09:19:29.308Z</time>
      </trkpt>
      <trkpt lat="47.550878" lon="7.895158">
        <ele>324.524692</ele>
        <time>2021-11-13T09:19:36.493Z</time>
      </trkpt>
      <trkpt lat="47.550838" lon="7.895509">
        <ele>324.191772</ele>
        <time>2021-11-13T09:19:39.657Z</time>
      </trkpt>
      <trkpt lat="47.550660" lon="7.896255">
        <ele>323.096038</ele>
        <time>2021-11-13T09:19:46.145Z</time>
      </trkpt>
      <trkpt lat="47.550639" lon="7.896345">
        <ele>322.942115</ele>
        <time>2021-11-13T09:19:47.332Z</time>
      </trkpt>
      <trkpt lat="47.550648" lon="7.896481">
        <ele>322.721232</ele>
        <time>2021-11-13T09:19:48.288Z</time>
      </trkpt>
      <trkpt lat="47.550819" lon="7.898109">
        <ele>320.058082</ele>
        <time>2021-11-13T09:20:00.035Z</time>
      </trkpt>
      <trkpt lat="47.550801" lon="7.900244">
        <ele>314.291484</ele>
        <time>2021-11-13T09:20:13.873Z</time>
      </trkpt>
      <trkpt lat="47.550769" lon="7.901362">
        <ele>311.218090</ele>
        <time>2021-11-13T09:20:21.145Z</time>
      </trkpt>
      <trkpt lat="47.550757" lon="7.901591">
        <ele>310.646826</ele>
        <time>2021-11-13T09:20:23.281Z</time>
      </trkpt>
      <trkpt lat="47.550688" lon="7.902451">
        <ele>308.492843</ele>
        <time>2021-11-13T09:20:31.723Z</time>
      </trkpt>
      <trkpt lat="47.550498" lon="7.903445">
        <ele>305.923408</ele>
        <time>2021-11-13T09:20:41.972Z</time>
      </trkpt>
      <trkpt lat="47.550302" lon="7.904164">
        <ele>303.893716</ele>
        <time>2021-11-13T09:20:49.236Z</time>
      </trkpt>
      <trkpt lat="47.550097" lon="7.904615">
        <ele>302.444145</ele>
        <time>2021-11-13T09:20:54.308Z</time>
      </trkpt>
      <trkpt lat="47.550025" lon="7.904774">
        <ele>301.933699</ele>
        <time>2021-11-13T09:20:56.109Z</time>
      </trkpt>
      <trkpt lat="47.549868" lon="7.905010">
        <ele>301.050294</ele>
        <time>2021-11-13T09:20:59.222Z</time>
      </trkpt>
      <trkpt lat="47.549867" lon="7.905155">
        <ele>300.663712</ele>
        <time>2021-11-13T09:21:00.612Z</time>
      </trkpt>
      <trkpt lat="47.550067" lon="7.905245">
        <ele>299.838107</ele>
        <time>2021-11-13T09:21:03.521Z</time>
      </trkpt>
      <trkpt lat="47.550283" lon="7.905413">
        <ele>298.874525</ele>
        <time>2021-11-13T09:21:06.955Z</time>
      </trkpt>
      <trkpt lat="47.550497" lon="7.905558">
        <ele>298.068821</ele>
        <time>2021-11-13T09:21:10.306Z</time>
      </trkpt>
      <trkpt lat="47.550370" lon="7.905965">
        <ele>297.294080</ele>
        <time>2021-11-13T09:21:13.301Z</time>
      </trkpt>
      <trkpt lat="47.549539" lon="7.908625">
        <ele>292.919768</ele>
        <time>2021-11-13T09:21:34.777Z</time>
      </trkpt>
      <trkpt lat="47.549520" lon="7.908678">
        <ele>292.865004</ele>
        <time>2021-11-13T09:21:35.330Z</time>
      </trkpt>
      <trkpt lat="47.549570" lon="7.908713">
        <ele>292.790236</ele>
        <time>2021-11-13T09:21:36.234Z</time>
      </trkpt>
      <trkpt lat="47.549136" lon="7.910092">
        <ele>291.401725</ele>
        <time>2021-11-13T09:21:48.915Z</time>
      </trkpt>
      <trkpt lat="47.549102" lon="7.910058">
        <ele>291.346264</ele>
        <time>2021-11-13T09:21:49.397Z</time>
      </trkpt>
      <trkpt lat="47.549012" lon="7.910340">
        <ele>291.110058</ele>
        <time>2021-11-13T09:21:51.915Z</time>
      </trkpt>
      <trkpt lat="47.548412" lon="7.912168">
        <ele>289.707061</ele>
        <time>2021-11-13T09:22:08.587Z</time>
      </trkpt>
      <trkpt lat="47.548027" lon="7.913334">
        <ele>289.140511</ele>
        <time>2021-11-13T09:22:19.348Z</time>
      </trkpt>
      <trkpt lat="47.547994" lon="7.913433">
        <ele>289.105449</ele>
        <time>2021-11-13T09:22:20.269Z</time>
      </trkpt>
      <trkpt lat="47.547423" lon="7.915080">
        <ele>288.623535</ele>
        <time>2021-11-13T09:22:37.757Z</time>
      </trkpt>
      <trkpt lat="47.547113" lon="7.915971">
        <ele>288.892354</ele>
        <time>2021-11-13T09:22:48.395Z</time>
      </trkpt>
      <trkpt lat="47.547091" lon="7.916039">
        <ele>288.912577</ele>
        <time>2021-11-13T09:22:49.445Z</time>
      </trkpt>
      <trkpt lat="47.547032" lon="7.916218">
        <ele>288.965998</ele>
        <time>2021-11-13T09:22:51.716Z</time>
      </trkpt>
      <trkpt lat="47.546821" lon="7.916867">
        <ele>289.159182</ele>
        <time>2021-11-13T09:23:00.131Z</time>
      </trkpt>
      <trkpt lat="47.546262" lon="7.919081">
        <ele>289.805420</ele>
        <time>2021-11-13T09:23:27.792Z</time>
      </trkpt>
      <trkpt lat="47.546128" lon="7.919617">
        <ele>289.962456</ele>
        <time>2021-11-13T09:23:33.220Z</time>
      </trkpt>
      <trkpt lat="47.545973" lon="7.920313">
        <ele>290.307457</ele>
        <time>2021-11-13T09:23:40.640Z</time>
      </trkpt>
      <trkpt lat="47.545913" lon="7.920765">
        <ele>290.561926</ele>
        <time>2021-11-13T09:23:45.398Z</time>
      </trkpt>
      <trkpt lat="47.545881" lon="7.921096">
        <ele>290.746638</ele>
        <time>2021-11-13T09:23:49.364Z</time>
      </trkpt>
      <trkpt lat="47.545810" lon="7.921755">
        <ele>291.115282</ele>
        <time>2021-11-13T09:23:57.974Z</time>
      </trkpt>
      <trkpt lat="47.545778" lon="7.921947">
        <ele>291.224530</ele>
        <time>2021-11-13T09:24:00.928Z</time>
      </trkpt>
      <trkpt lat="47.545714" lon="7.922249">
        <ele>291.399385</ele>
        <time>2021-11-13T09:24:04.782Z</time>
      </trkpt>
      <trkpt lat="47.545699" lon="7.922325">
        <ele>291.443126</ele>
        <time>2021-11-13T09:24:05.979Z</time>
      </trkpt>
      <trkpt lat="47.545690" lon="7.922369">
        <ele>291.468524</ele>
        <time>2021-11-13T09:24:07.050Z</time>
      </trkpt>
      <trkpt lat="47.545641" lon="7.922610">
        <ele>291.942446</ele>
        <time>2021-11-13T09:24:10.406Z</time>
      </trkpt>
      <trkpt lat="47.545587" lon="7.922895">
        <ele>292.586716</ele>
        <time>2021-11-13T09:24:15.238Z</time>
      </trkpt>
      <trkpt lat="47.545553" lon="7.923142">
        <ele>293.135370</ele>
        <time>2021-11-13T09:24:18.848Z</time>
      </trkpt>
      <trkpt lat="47.545536" lon="7.923407">
        <ele>293.714736</ele>
        <time>2021-11-13T09:24:23.724Z</time>
      </trkpt>
      <trkpt lat="47.545521" lon="7.923709">
        <ele>294.373810</ele>
        <time>2021-11-13T09:24:28.891Z</time>
      </trkpt>
      <trkpt lat="47.545481" lon="7.924396">
        <ele>295.874604</ele>
        <time>2021-11-13T09:24:43.494Z</time>
      </trkpt>
      <trkpt lat="47.545466" lon="7.924880">
        <ele>296.929131</ele>
        <time>2021-11-13T09:24:54.801Z</time>
      </trkpt>
      <trkpt lat="47.545446" lon="7.925350">
        <ele>297.896700</ele>
        <time>2021-11-13T09:25:05.176Z</time>
      </trkpt>
      <trkpt lat="47.545417" lon="7.925848">
        <ele>298.890116</ele>
        <time>2021-11-13T09:25:15.655Z</time>
      </trkpt>
      <trkpt lat="47.545409" lon="7.926773">
        <ele>300.728640</ele>
        <time>2021-11-13T09:25:32.856Z</time>
      </trkpt>
      <trkpt lat="47.545407" lon="7.927001">
        <ele>301.181813</ele>
        <time>2021-11-13T09:25:36.665Z</time>
      </trkpt>
      <trkpt lat="47.545406" lon="7.927306">
        <ele>301.787987</ele>
        <time>2021-11-13T09:25:41.269Z</time>
      </trkpt>
      <trkpt lat="47.545421" lon="7.927686">
        <ele>302.544501</ele>
        <time>2021-11-13T09:25:46.805Z</time>
      </trkpt>
      <trkpt lat="47.545475" lon="7.928419">
        <ele>302.192101</ele>
        <time>2021-11-13T09:25:56.122Z</time>
      </trkpt>
      <trkpt lat="47.545563" lon="7.929641">
        <ele>301.509955</ele>
        <time>2021-11-13T09:26:06.002Z</time>
      </trkpt>
      <trkpt lat="47.545661" lon="7.930955">
        <ele>300.452429</ele>
        <time>2021-11-13T09:26:15.398Z</time>
      </trkpt>
      <trkpt lat="47.545696" lon="7.931497">
        <ele>299.857063</ele>
        <time>2021-11-13T09:26:19.366Z</time>
      </trkpt>
      <trkpt lat="47.545721" lon="7.931992">
        <ele>299.314283</ele>
        <time>2021-11-13T09:26:23.159Z</time>
      </trkpt>
      <trkpt lat="47.545724" lon="7.932758">
        <ele>298.476672</ele>
        <time>2021-11-13T09:26:29.368Z</time>
      </trkpt>
      <trkpt lat="47.545702" lon="7.933290">
        <ele>298.304614</ele>
        <time>2021-11-13T09:26:34.011Z</time>
      </trkpt>
      <trkpt lat="47.545674" lon="7.933625">
        <ele>298.436987</ele>
        <time>2021-11-13T09:26:37.211Z</time>
      </trkpt>
      <trkpt lat="47.545457" lon="7.935110">
        <ele>299.032816</ele>
        <time>2021-11-13T09:26:55.346Z</time>
      </trkpt>
      <trkpt lat="47.545074" lon="7.936484">
        <ele>300.324174</ele>
        <time>2021-11-13T09:27:16.874Z</time>
      </trkpt>
      <trkpt lat="47.544903" lon="7.936917">
        <ele>300.892893</ele>
        <time>2021-11-13T09:27:24.190Z</time>
      </trkpt>
      <trkpt lat="47.544705" lon="7.937395">
        <ele>301.528686</ele>
        <time>2021-11-13T09:27:32.374Z</time>
      </trkpt>
      <trkpt lat="47.544472" lon="7.937932">
        <ele>302.252393</ele>
        <time>2021-11-13T09:27:41.781Z</time>
      </trkpt>
      <trkpt lat="47.543826" lon="7.939433">
        <ele>304.371230</ele>
        <time>2021-11-13T09:28:08.663Z</time>
      </trkpt>
      <trkpt lat="47.543435" lon="7.940670">
        <ele>305.719216</ele>
        <time>2021-11-13T09:28:28.623Z</time>
      </trkpt>
      <trkpt lat="47.543161" lon="7.942213">
        <ele>306.680509</ele>
        <time>2021-11-13T09:28:49.473Z</time>
      </trkpt>
      <trkpt lat="47.543007" lon="7.943867">
        <ele>306.112869</ele>
        <time>2021-11-13T09:29:05.017Z</time>
      </trkpt>
      <trkpt lat="47.542913" lon="7.945267">
        <ele>304.898556</ele>
        <time>2021-11-13T09:29:15.776Z</time>
      </trkpt>
      <trkpt lat="47.542872" lon="7.945781">
        <ele>304.187238</ele>
        <time>2021-11-13T09:29:19.373Z</time>
      </trkpt>
      <trkpt lat="47.542875" lon="7.946089">
        <ele>303.677108</ele>
        <time>2021-11-13T09:29:21.464Z</time>
      </trkpt>
      <trkpt lat="47.542902" lon="7.946514">
        <ele>302.970158</ele>
        <time>2021-11-13T09:29:24.369Z</time>
      </trkpt>
      <trkpt lat="47.542943" lon="7.946806">
        <ele>302.476228</ele>
        <time>2021-11-13T09:29:26.551Z</time>
      </trkpt>
      <trkpt lat="47.542974" lon="7.946965">
        <ele>302.202147</ele>
        <time>2021-11-13T09:29:27.757Z</time>
      </trkpt>
      <trkpt lat="47.542979" lon="7.946989">
        <ele>302.160551</ele>
        <time>2021-11-13T09:29:27.912Z</time>
      </trkpt>
      <trkpt lat="47.543007" lon="7.947104">
        <ele>301.958090</ele>
        <time>2021-11-13T09:29:28.768Z</time>
      </trkpt>
      <trkpt lat="47.543087" lon="7.947317">
        <ele>301.554418</ele>
        <time>2021-11-13T09:29:30.671Z</time>
      </trkpt>
      <trkpt lat="47.543191" lon="7.947615">
        <ele>300.998851</ele>
        <time>2021-11-13T09:29:33.167Z</time>
      </trkpt>
      <trkpt lat="47.543242" lon="7.947745">
        <ele>300.749842</ele>
        <time>2021-11-13T09:29:34.348Z</time>
      </trkpt>
      <trkpt lat="47.543273" lon="7.947816">
        <ele>300.609808</ele>
        <time>2021-11-13T09:29:34.940Z</time>
      </trkpt>
      <trkpt lat="47.543358" lon="7.947967">
        <ele>300.307158</ele>
        <time>2021-11-13T09:29:36.356Z</time>
      </trkpt>
      <trkpt lat="47.543455" lon="7.948127">
        <ele>300.141374</ele>
        <time>2021-11-13T09:29:37.973Z</time>
      </trkpt>
      <trkpt lat="47.543532" lon="7.948214">
        <ele>300.030782</ele>
        <time>2021-11-13T09:29:38.963Z</time>
      </trkpt>
      <trkpt lat="47.543490" lon="7.948120">
        <ele>299.943882</ele>
        <time>2021-11-13T09:29:39.779Z</time>
      </trkpt>
      <trkpt lat="47.543435" lon="7.948000">
        <ele>299.832066</ele>
        <time>2021-11-13T09:29:40.746Z</time>
      </trkpt>
      <trkpt lat="47.543390" lon="7.947942">
        <ele>299.763948</ele>
        <time>2021-11-13T09:29:41.601Z</time>
      </trkpt>
      <trkpt lat="47.543113" lon="7.947324">
        <ele>299.192075</ele>
        <time>2021-11-13T09:29:47.061Z</time>
      </trkpt>
      <trkpt lat="47.543087" lon="7.947317">
        <ele>299.161896</ele>
        <time>2021-11-13T09:29:47.826Z</time>
      </trkpt>
      <trkpt lat="47.543191" lon="7.947615">
        <ele>298.903283</ele>
        <time>2021-11-13T09:29:50.731Z</time>
      </trkpt>
      <trkpt lat="47.543242" lon="7.947745">
        <ele>298.787372</ele>
        <time>2021-11-13T09:29:51.888Z</time>
      </trkpt>
      <trkpt lat="47.543273" lon="7.947816">
        <ele>298.722187</ele>
        <time>2021-11-13T09:29:53.018Z</time>
      </trkpt>
      <trkpt lat="47.543358" lon="7.947967">
        <ele>298.570619</ele>
        <time>2021-11-13T09:29:54.936Z</time>
      </trkpt>
      <trkpt lat="47.543455" lon="7.948127">
        <ele>298.404834</ele>
        <time>2021-11-13T09:29:57.228Z</time>
      </trkpt>
      <trkpt lat="47.543532" lon="7.948214">
        <ele>298.294242</ele>
        <time>2021-11-13T09:29:59.017Z</time>
      </trkpt>
      <trkpt lat="47.543579" lon="7.948287">
        <ele>298.294308</ele>
        <time>2021-11-13T09:30:00.024Z</time>
      </trkpt>
      <trkpt lat="47.543760" lon="7.948548">
        <ele>298.402464</ele>
        <time>2021-11-13T09:30:05.067Z</time>
      </trkpt>
      <trkpt lat="47.543864" lon="7.948694">
        <ele>298.463815</ele>
        <time>2021-11-13T09:30:07.096Z</time>
      </trkpt>
      <trkpt lat="47.544239" lon="7.949202">
        <ele>298.681398</ele>
        <time>2021-11-13T09:30:15.835Z</time>
      </trkpt>
      <trkpt lat="47.544521" lon="7.949558">
        <ele>298.840042</ele>
        <time>2021-11-13T09:30:22.008Z</time>
      </trkpt>
      <trkpt lat="47.544901" lon="7.950044">
        <ele>298.993819</ele>
        <time>2021-11-13T09:30:30.808Z</time>
      </trkpt>
      <trkpt lat="47.545166" lon="7.950366">
        <ele>298.376966</ele>
        <time>2021-11-13T09:30:36.049Z</time>
      </trkpt>
      <trkpt lat="47.545434" lon="7.950668">
        <ele>297.770941</ele>
        <time>2021-11-13T09:30:40.289Z</time>
      </trkpt>
      <trkpt lat="47.545542" lon="7.950842">
        <ele>297.483770</ele>
        <time>2021-11-13T09:30:42.068Z</time>
      </trkpt>
      <trkpt lat="47.545667" lon="7.950979">
        <ele>297.203923</ele>
        <time>2021-11-13T09:30:43.838Z</time>
      </trkpt>
      <trkpt lat="47.545737" lon="7.951055">
        <ele>297.047727</ele>
        <time>2021-11-13T09:30:44.768Z</time>
      </trkpt>
      <trkpt lat="47.545759" lon="7.950982">
        <ele>296.950604</ele>
        <time>2021-11-13T09:30:45.334Z</time>
      </trkpt>
      <trkpt lat="47.545852" lon="7.950808">
        <ele>296.680974</ele>
        <time>2021-11-13T09:30:46.907Z</time>
      </trkpt>
      <trkpt lat="47.545858" lon="7.950769">
        <ele>296.632379</ele>
        <time>2021-11-13T09:30:47.186Z</time>
      </trkpt>
      <trkpt lat="47.545875" lon="7.950668">
        <ele>296.505921</ele>
        <time>2021-11-13T09:30:47.930Z</time>
      </trkpt>
      <trkpt lat="47.545948" lon="7.950297">
        <ele>296.036449</ele>
        <time>2021-11-13T09:30:50.529Z</time>
      </trkpt>
      <trkpt lat="47.545949" lon="7.950185">
        <ele>295.900373</ele>
        <time>2021-11-13T09:30:51.288Z</time>
      </trkpt>
      <trkpt lat="47.546159" lon="7.949303">
        <ele>293.723817</ele>
        <time>2021-11-13T09:30:57.311Z</time>
      </trkpt>
      <trkpt lat="47.546572" lon="7.947545">
        <ele>289.290524</ele>
        <time>2021-11-13T09:31:09.791Z</time>
      </trkpt>
      <trkpt lat="47.546664" lon="7.947227">
        <ele>288.998175</ele>
        <time>2021-11-13T09:31:12.300Z</time>
      </trkpt>
      <trkpt lat="47.546749" lon="7.946929">
        <ele>288.724808</ele>
        <time>2021-11-13T09:31:14.694Z</time>
      </trkpt>
      <trkpt lat="47.546772" lon="7.946847">
        <ele>288.649775</ele>
        <time>2021-11-13T09:31:15.361Z</time>
      </trkpt>
      <trkpt lat="47.546815" lon="7.946690">
        <ele>288.506607</ele>
        <time>2021-11-13T09:31:16.647Z</time>
      </trkpt>
      <trkpt lat="47.546959" lon="7.946071">
        <ele>287.953366</ele>
        <time>2021-11-13T09:31:21.954Z</time>
      </trkpt>
      <trkpt lat="47.546963" lon="7.946052">
        <ele>287.936549</ele>
        <time>2021-11-13T09:31:22.203Z</time>
      </trkpt>
      <trkpt lat="47.547022" lon="7.945790">
        <ele>287.703167</ele>
        <time>2021-11-13T09:31:24.801Z</time>
      </trkpt>
      <trkpt lat="47.547075" lon="7.945550">
        <ele>287.489793</ele>
        <time>2021-11-13T09:31:27.174Z</time>
      </trkpt>
      <trkpt lat="47.547150" lon="7.945242">
        <ele>287.213120</ele>
        <time>2021-11-13T09:31:30.909Z</time>
      </trkpt>
      <trkpt lat="47.547161" lon="7.945196">
        <ele>287.171884</ele>
        <time>2021-11-13T09:31:31.388Z</time>
      </trkpt>
      <trkpt lat="47.547282" lon="7.944699">
        <ele>286.968180</ele>
        <time>2021-11-13T09:31:37.036Z</time>
      </trkpt>
      <trkpt lat="47.547318" lon="7.944515">
        <ele>286.915638</ele>
        <time>2021-11-13T09:31:38.771Z</time>
      </trkpt>
      <trkpt lat="47.547344" lon="7.944382">
        <ele>286.877662</ele>
        <time>2021-11-13T09:31:40.104Z</time>
      </trkpt>
      <trkpt lat="47.547354" lon="7.944331">
        <ele>286.863096</ele>
        <time>2021-11-13T09:31:40.618Z</time>
      </trkpt>
      <trkpt lat="47.547734" lon="7.942722">
        <ele>286.395573</ele>
        <time>2021-11-13T09:31:55.591Z</time>
      </trkpt>
      <trkpt lat="47.547790" lon="7.942490">
        <ele>286.300224</ele>
        <time>2021-11-13T09:31:57.626Z</time>
      </trkpt>
      <trkpt lat="47.548087" lon="7.941446">
        <ele>285.657453</ele>
        <time>2021-11-13T09:32:07.674Z</time>
      </trkpt>
      <trkpt lat="47.548484" lon="7.940313">
        <ele>284.933197</ele>
        <time>2021-11-13T09:32:18.003Z</time>
      </trkpt>
      <trkpt lat="47.548550" lon="7.940126">
        <ele>284.818175</ele>
        <time>2021-11-13T09:32:19.745Z</time>
      </trkpt>
      <trkpt lat="47.548587" lon="7.940118">
        <ele>284.791897</ele>
        <time>2021-11-13T09:32:20.233Z</time>
      </trkpt>
      <trkpt lat="47.548632" lon="7.940087">
        <ele>284.757022</ele>
        <time>2021-11-13T09:32:20.873Z</time>
      </trkpt>
      <trkpt lat="47.548653" lon="7.940052">
        <ele>284.734810</ele>
        <time>2021-11-13T09:32:21.278Z</time>
      </trkpt>
      <trkpt lat="47.548676" lon="7.939951">
        <ele>284.684249</ele>
        <time>2021-11-13T09:32:22.160Z</time>
      </trkpt>
      <trkpt lat="47.548673" lon="7.939890">
        <ele>284.655238</ele>
        <time>2021-11-13T09:32:22.691Z</time>
      </trkpt>
      <trkpt lat="47.548643" lon="7.939810">
        <ele>284.611828</ele>
        <time>2021-11-13T09:32:23.459Z</time>
      </trkpt>
      <trkpt lat="47.548614" lon="7.939778">
        <ele>284.586417</ele>
        <time>2021-11-13T09:32:23.893Z</time>
      </trkpt>
      <trkpt lat="47.548563" lon="7.939753">
        <ele>284.548666</ele>
        <time>2021-11-13T09:32:24.562Z</time>
      </trkpt>
      <trkpt lat="47.548509" lon="7.939765">
        <ele>284.510293</ele>
        <time>2021-11-13T09:32:25.278Z</time>
      </trkpt>
      <trkpt lat="47.548230" lon="7.939581">
        <ele>284.295678</ele>
        <time>2021-11-13T09:32:29.106Z</time>
      </trkpt>
      <trkpt lat="47.548150" lon="7.939478">
        <ele>284.221195</ele>
        <time>2021-11-13T09:32:30.508Z</time>
      </trkpt>
      <trkpt lat="47.548129" lon="7.939460">
        <ele>284.204146</ele>
        <time>2021-11-13T09:32:30.805Z</time>
      </trkpt>
      <trkpt lat="47.548085" lon="7.939422">
        <ele>284.168355</ele>
        <time>2021-11-13T09:32:31.449Z</time>
      </trkpt>
      <trkpt lat="47.547474" lon="7.938844">
        <ele>283.658908</ele>
        <time>2021-11-13T09:32:41.089Z</time>
      </trkpt>
      <trkpt lat="47.547174" lon="7.938475">
        <ele>283.568150</ele>
        <time>2021-11-13T09:32:46.152Z</time>
      </trkpt>
      <trkpt lat="47.547115" lon="7.938377">
        <ele>283.564929</ele>
        <time>2021-11-13T09:32:47.323Z</time>
      </trkpt>
      <trkpt lat="47.547044" lon="7.938237">
        <ele>283.560634</ele>
        <time>2021-11-13T09:32:49.006Z</time>
      </trkpt>
      <trkpt lat="47.546983" lon="7.938064">
        <ele>283.555846</ele>
        <time>2021-11-13T09:32:50.953Z</time>
      </trkpt>
      <trkpt lat="47.546969" lon="7.938023">
        <ele>283.554719</ele>
        <time>2021-11-13T09:32:51.409Z</time>
      </trkpt>
      <trkpt lat="47.546915" lon="7.937800">
        <ele>283.548908</ele>
        <time>2021-11-13T09:32:53.790Z</time>
      </trkpt>
      <trkpt lat="47.546890" lon="7.937602">
        <ele>283.543967</ele>
        <time>2021-11-13T09:32:55.977Z</time>
      </trkpt>
      <trkpt lat="47.546895" lon="7.937196">
        <ele>283.534006</ele>
        <time>2021-11-13T09:33:00.062Z</time>
      </trkpt>
      <trkpt lat="47.547020" lon="7.936617">
        <ele>283.519094</ele>
        <time>2021-11-13T09:33:06.379Z</time>
      </trkpt>
      <trkpt lat="47.547523" lon="7.935115">
        <ele>283.913507</ele>
        <time>2021-11-13T09:33:24.471Z</time>
      </trkpt>
      <trkpt lat="47.547539" lon="7.935068">
        <ele>283.928370</ele>
        <time>2021-11-13T09:33:25.037Z</time>
      </trkpt>
      <trkpt lat="47.547663" lon="7.934665">
        <ele>284.053421</ele>
        <time>2021-11-13T09:33:29.990Z</time>
      </trkpt>
      <trkpt lat="47.547956" lon="7.933604">
        <ele>284.459761</ele>
        <time>2021-11-13T09:33:43.340Z</time>
      </trkpt>
      <trkpt lat="47.548144" lon="7.932614">
        <ele>284.964597</ele>
        <time>2021-11-13T09:33:56.266Z</time>
      </trkpt>
      <trkpt lat="47.548252" lon="7.930989">
        <ele>285.813118</ele>
        <time>2021-11-13T09:34:15.764Z</time>
      </trkpt>
      <trkpt lat="47.548241" lon="7.930335">
        <ele>286.212482</ele>
        <time>2021-11-13T09:34:22.963Z</time>
      </trkpt>
      <trkpt lat="47.548236" lon="7.930144">
        <ele>286.329167</ele>
        <time>2021-11-13T09:34:24.943Z</time>
      </trkpt>
      <trkpt lat="47.548226" lon="7.929841">
        <ele>286.514357</ele>
        <time>2021-11-13T09:34:28.925Z</time>
      </trkpt>
      <trkpt lat="47.548192" lon="7.928866">
        <ele>287.110347</ele>
        <time>2021-11-13T09:34:41.564Z</time>
      </trkpt>
      <trkpt lat="47.548186" lon="7.928343">
        <ele>287.689416</ele>
        <time>2021-11-13T09:34:49.069Z</time>
      </trkpt>
      <trkpt lat="47.548228" lon="7.928033">
        <ele>288.100713</ele>
        <time>2021-11-13T09:34:53.132Z</time>
      </trkpt>
      <trkpt lat="47.548275" lon="7.927880">
        <ele>288.319381</ele>
        <time>2021-11-13T09:34:55.461Z</time>
      </trkpt>
      <trkpt lat="47.548298" lon="7.927820">
        <ele>288.409138</ele>
        <time>2021-11-13T09:34:57.199Z</time>
      </trkpt>
      <trkpt lat="47.548534" lon="7.927518">
        <ele>289.010131</ele>
        <time>2021-11-13T09:35:03.591Z</time>
      </trkpt>
      <trkpt lat="47.548777" lon="7.927430">
        <ele>289.492233</ele>
        <time>2021-11-13T09:35:09.587Z</time>
      </trkpt>
      <trkpt lat="47.548912" lon="7.927437">
        <ele>289.752567</ele>
        <time>2021-11-13T09:35:13.220Z</time>
      </trkpt>
      <trkpt lat="47.549059" lon="7.927444">
        <ele>290.036015</ele>
        <time>2021-11-13T09:35:16.872Z</time>
      </trkpt>
      <trkpt lat="47.549697" lon="7.927581">
        <ele>291.082963</ele>
        <time>2021-11-13T09:35:32.494Z</time>
      </trkpt>
      <trkpt lat="47.550041" lon="7.927651">
        <ele>291.538443</ele>
        <time>2021-11-13T09:35:40.057Z</time>
      </trkpt>
      <trkpt lat="47.550381" lon="7.927709">
        <ele>291.987387</ele>
        <time>2021-11-13T09:35:47.203Z</time>
      </trkpt>
      <trkpt lat="47.550481" lon="7.927724">
        <ele>292.119233</ele>
        <time>2021-11-13T09:35:49.142Z</time>
      </trkpt>
      <trkpt lat="47.550669" lon="7.927757">
        <ele>292.367568</ele>
        <time>2021-11-13T09:35:52.360Z</time>
      </trkpt>
      <trkpt lat="47.551076" lon="7.927850">
        <ele>292.907765</ele>
        <time>2021-11-13T09:35:59.339Z</time>
      </trkpt>
      <trkpt lat="47.551163" lon="7.927871">
        <ele>293.023393</ele>
        <time>2021-11-13T09:36:00.733Z</time>
      </trkpt>
      <trkpt lat="47.551192" lon="7.927575">
        <ele>293.092902</ele>
        <time>2021-11-13T09:36:04.094Z</time>
      </trkpt>
      <trkpt lat="47.551183" lon="7.927256">
        <ele>293.165235</ele>
        <time>2021-11-13T09:36:07.608Z</time>
      </trkpt>
      <trkpt lat="47.551209" lon="7.927048">
        <ele>293.213159</ele>
        <time>2021-11-13T09:36:09.876Z</time>
      </trkpt>
      <trkpt lat="47.551236" lon="7.926890">
        <ele>293.250083</ele>
        <time>2021-11-13T09:36:11.746Z</time>
      </trkpt>
      <trkpt lat="47.551262" lon="7.926787">
        <ele>293.274997</ele>
        <time>2021-11-13T09:36:12.846Z</time>
      </trkpt>
      <trkpt lat="47.551300" lon="7.926708">
        <ele>293.296974</ele>
        <time>2021-11-13T09:36:13.850Z</time>
      </trkpt>
      <trkpt lat="47.551345" lon="7.926636">
        <ele>293.319206</ele>
        <time>2021-11-13T09:36:14.861Z</time>
      </trkpt>
      <trkpt lat="47.551423" lon="7.926561">
        <ele>293.350418</ele>
        <time>2021-11-13T09:36:16.484Z</time>
      </trkpt>
      <trkpt lat="47.551676" lon="7.926477">
        <ele>293.437447</ele>
        <time>2021-11-13T09:36:20.417Z</time>
      </trkpt>
      <trkpt lat="47.551788" lon="7.926512">
        <ele>293.475869</ele>
        <time>2021-11-13T09:36:22.420Z</time>
      </trkpt>
      <trkpt lat="47.552250" lon="7.926787">
        <ele>293.641486</ele>
        <time>2021-11-13T09:36:30.175Z</time>
      </trkpt>
      <trkpt lat="47.552388" lon="7.926860">
        <ele>293.685185</ele>
        <time>2021-11-13T09:36:32.603Z</time>
      </trkpt>
      <trkpt lat="47.552729" lon="7.927061">
        <ele>293.794632</ele>
        <time>2021-11-13T09:36:38.628Z</time>
      </trkpt>
      <trkpt lat="47.552928" lon="7.927209">
        <ele>293.861036</ele>
        <time>2021-11-13T09:36:42.270Z</time>
      </trkpt>
      <trkpt lat="47.553166" lon="7.927389">
        <ele>293.940725</ele>
        <time>2021-11-13T09:36:46.853Z</time>
      </trkpt>
      <trkpt lat="47.553221" lon="7.927438">
        <ele>293.959864</ele>
        <time>2021-11-13T09:36:47.807Z</time>
      </trkpt>
      <trkpt lat="47.553257" lon="7.927322">
        <ele>293.985562</ele>
        <time>2021-11-13T09:36:49.249Z</time>
      </trkpt>
      <trkpt lat="47.553294" lon="7.927186">
        <ele>294.015076</ele>
        <time>2021-11-13T09:36:50.891Z</time>
      </trkpt>
      <trkpt lat="47.553381" lon="7.926895">
        <ele>294.079136</ele>
        <time>2021-11-13T09:36:54.224Z</time>
      </trkpt>
      <trkpt lat="47.553408" lon="7.926803">
        <ele>294.099328</ele>
        <time>2021-11-13T09:36:55.336Z</time>
      </trkpt>
      <trkpt lat="47.553506" lon="7.926540">
        <ele>294.159795</ele>
        <time>2021-11-13T09:36:58.502Z</time>
      </trkpt>
      <trkpt lat="47.553539" lon="7.926451">
        <ele>294.162536</ele>
        <time>2021-11-13T09:36:59.473Z</time>
      </trkpt>
      <trkpt lat="47.553737" lon="7.925902">
        <ele>294.133290</ele>
        <time>2021-11-13T09:37:05.598Z</time>
      </trkpt>
      <trkpt lat="47.553834" lon="7.925632">
        <ele>294.118919</ele>
        <time>2021-11-13T09:37:08.615Z</time>
      </trkpt>
      <trkpt lat="47.554226" lon="7.924713">
        <ele>294.067840</ele>
        <time>2021-11-13T09:37:19.132Z</time>
      </trkpt>
      <trkpt lat="47.554705" lon="7.923835">
        <ele>293.975921</ele>
        <time>2021-11-13T09:37:29.973Z</time>
      </trkpt>
      <trkpt lat="47.555272" lon="7.922934">
        <ele>293.831081</ele>
        <time>2021-11-13T09:37:41.579Z</time>
      </trkpt>
      <trkpt lat="47.556542" lon="7.921551">
        <ele>293.642610</ele>
        <time>2021-11-13T09:38:04.293Z</time>
      </trkpt>
      <trkpt lat="47.557147" lon="7.921064">
        <ele>293.583122</ele>
        <time>2021-11-13T09:38:14.457Z</time>
      </trkpt>
      <trkpt lat="47.558098" lon="7.920440">
        <ele>293.291217</ele>
        <time>2021-11-13T09:38:29.646Z</time>
      </trkpt>
      <trkpt lat="47.561244" lon="7.918902">
        <ele>291.275756</ele>
        <time>2021-11-13T09:39:13.088Z</time>
      </trkpt>
      <trkpt lat="47.561405" lon="7.918835">
        <ele>291.078218</ele>
        <time>2021-11-13T09:39:14.999Z</time>
      </trkpt>
      <trkpt lat="47.561792" lon="7.918633">
        <ele>290.593545</ele>
        <time>2021-11-13T09:39:19.685Z</time>
      </trkpt>
      <trkpt lat="47.562098" lon="7.918473">
        <ele>290.210242</ele>
        <time>2021-11-13T09:39:23.419Z</time>
      </trkpt>
      <trkpt lat="47.562192" lon="7.918413">
        <ele>290.089343</ele>
        <time>2021-11-13T09:39:24.576Z</time>
      </trkpt>
      <trkpt lat="47.562330" lon="7.918325">
        <ele>289.911879</ele>
        <time>2021-11-13T09:39:26.331Z</time>
      </trkpt>
      <trkpt lat="47.562491" lon="7.918206">
        <ele>289.754304</ele>
        <time>2021-11-13T09:39:28.369Z</time>
      </trkpt>
      <trkpt lat="47.562766" lon="7.918001">
        <ele>289.495215</ele>
        <time>2021-11-13T09:39:31.953Z</time>
      </trkpt>
      <trkpt lat="47.562783" lon="7.917983">
        <ele>289.477630</ele>
        <time>2021-11-13T09:39:32.172Z</time>
      </trkpt>
      <trkpt lat="47.563304" lon="7.917434">
        <ele>288.939575</ele>
        <time>2021-11-13T09:39:39.916Z</time>
      </trkpt>
      <trkpt lat="47.563485" lon="7.917258">
        <ele>288.757370</ele>
        <time>2021-11-13T09:39:42.770Z</time>
      </trkpt>
      <trkpt lat="47.564482" lon="7.916219">
        <ele>288.495736</ele>
        <time>2021-11-13T09:40:01.151Z</time>
      </trkpt>
      <trkpt lat="47.564500" lon="7.916200">
        <ele>288.499169</ele>
        <time>2021-11-13T09:40:01.505Z</time>
      </trkpt>
      <trkpt lat="47.564526" lon="7.916174">
        <ele>288.504043</ele>
        <time>2021-11-13T09:40:01.992Z</time>
      </trkpt>
      <trkpt lat="47.564899" lon="7.915798">
        <ele>288.574132</ele>
        <time>2021-11-13T09:40:09.185Z</time>
      </trkpt>
      <trkpt lat="47.565627" lon="7.915066">
        <ele>288.646821</ele>
        <time>2021-11-13T09:40:23.078Z</time>
      </trkpt>
      <trkpt lat="47.565672" lon="7.915025">
        <ele>288.645429</ele>
        <time>2021-11-13T09:40:23.915Z</time>
      </trkpt>
      <trkpt lat="47.565748" lon="7.914949">
        <ele>288.643012</ele>
        <time>2021-11-13T09:40:25.371Z</time>
      </trkpt>
      <trkpt lat="47.565830" lon="7.914880">
        <ele>288.640526</ele>
        <time>2021-11-13T09:40:26.877Z</time>
      </trkpt>
      <trkpt lat="47.565995" lon="7.914739">
        <ele>288.635504</ele>
        <time>2021-11-13T09:40:29.803Z</time>
      </trkpt>
      <trkpt lat="47.566025" lon="7.914720">
        <ele>288.634644</ele>
        <time>2021-11-13T09:40:30.232Z</time>
      </trkpt>
      <trkpt lat="47.566096" lon="7.914676">
        <ele>288.632615</ele>
        <time>2021-11-13T09:40:31.414Z</time>
      </trkpt>
      <trkpt lat="47.566250" lon="7.914580">
        <ele>288.628210</ele>
        <time>2021-11-13T09:40:33.934Z</time>
      </trkpt>
      <trkpt lat="47.566474" lon="7.914468">
        <ele>288.621978</ele>
        <time>2021-11-13T09:40:37.245Z</time>
      </trkpt>
      <trkpt lat="47.566489" lon="7.914461">
        <ele>288.621563</ele>
        <time>2021-11-13T09:40:37.485Z</time>
      </trkpt>
      <trkpt lat="47.566534" lon="7.914439">
        <ele>288.620314</ele>
        <time>2021-11-13T09:40:38.161Z</time>
      </trkpt>
      <trkpt lat="47.566601" lon="7.914411">
        <ele>288.618479</ele>
        <time>2021-11-13T09:40:39.176Z</time>
      </trkpt>
      <trkpt lat="47.566984" lon="7.914229">
        <ele>288.594180</ele>
        <time>2021-11-13T09:40:44.710Z</time>
      </trkpt>
      <trkpt lat="47.567335" lon="7.914048">
        <ele>288.418841</ele>
        <time>2021-11-13T09:40:49.641Z</time>
      </trkpt>
      <trkpt lat="47.567374" lon="7.914028">
        <ele>288.399371</ele>
        <time>2021-11-13T09:40:50.120Z</time>
      </trkpt>
      <trkpt lat="47.568301" lon="7.913554">
        <ele>287.936716</ele>
        <time>2021-11-13T09:41:03.122Z</time>
      </trkpt>
      <trkpt lat="47.568566" lon="7.913414">
        <ele>287.803984</ele>
        <time>2021-11-13T09:41:06.828Z</time>
      </trkpt>
      <trkpt lat="47.569155" lon="7.913298">
        <ele>287.731561</ele>
        <time>2021-11-13T09:41:14.868Z</time>
      </trkpt>
      <trkpt lat="47.569682" lon="7.913220">
        <ele>287.701413</ele>
        <time>2021-11-13T09:41:22.438Z</time>
      </trkpt>
      <trkpt lat="47.571638" lon="7.913041">
        <ele>287.718150</ele>
        <time>2021-11-13T09:41:53.014Z</time>
      </trkpt>
      <trkpt lat="47.571807" lon="7.913030">
        <ele>287.726730</ele>
        <time>2021-11-13T09:41:55.666Z</time>
      </trkpt>
      <trkpt lat="47.571801" lon="7.912878">
        <ele>287.731940</ele>
        <time>2021-11-13T09:41:57.184Z</time>
      </trkpt>
      <trkpt lat="47.571815" lon="7.912822">
        <ele>287.733984</ele>
        <time>2021-11-13T09:41:57.771Z</time>
      </trkpt>
      <trkpt lat="47.571842" lon="7.912780">
        <ele>287.735969</ele>
        <time>2021-11-13T09:41:58.253Z</time>
      </trkpt>
      <trkpt lat="47.572195" lon="7.912650">
        <ele>287.685923</ele>
        <time>2021-11-13T09:42:03.422Z</time>
      </trkpt>
      <trkpt lat="47.572843" lon="7.912399">
        <ele>287.296090</ele>
        <time>2021-11-13T09:42:12.475Z</time>
      </trkpt>
      <trkpt lat="47.572921" lon="7.912369">
        <ele>287.249187</ele>
        <time>2021-11-13T09:42:13.431Z</time>
      </trkpt>
      <trkpt lat="47.573759" lon="7.912034">
        <ele>286.744004</ele>
        <time>2021-11-13T09:42:24.433Z</time>
      </trkpt>
      <trkpt lat="47.573998" lon="7.911915">
        <ele>286.594059</ele>
        <time>2021-11-13T09:42:27.550Z</time>
      </trkpt>
      <trkpt lat="47.574566" lon="7.911447">
        <ele>286.204271</ele>
        <time>2021-11-13T09:42:35.874Z</time>
      </trkpt>
      <trkpt lat="47.574901" lon="7.911251">
        <ele>285.988249</ele>
        <time>2021-11-13T09:42:40.560Z</time>
      </trkpt>
      <trkpt lat="47.575508" lon="7.910912">
        <ele>285.620623</ele>
        <time>2021-11-13T09:42:49.188Z</time>
      </trkpt>
      <trkpt lat="47.575539" lon="7.910898">
        <ele>285.618547</ele>
        <time>2021-11-13T09:42:49.699Z</time>
      </trkpt>
      <trkpt lat="47.575854" lon="7.910743">
        <ele>285.597280</ele>
        <time>2021-11-13T09:42:54.204Z</time>
      </trkpt>
      <trkpt lat="47.576932" lon="7.910134">
        <ele>285.523359</ele>
        <time>2021-11-13T09:43:11.190Z</time>
      </trkpt>
      <trkpt lat="47.577424" lon="7.909886">
        <ele>285.644315</ele>
        <time>2021-11-13T09:43:19.345Z</time>
      </trkpt>
      <trkpt lat="47.577771" lon="7.909710">
        <ele>285.823592</ele>
        <time>2021-11-13T09:43:25.437Z</time>
      </trkpt>
      <trkpt lat="47.578895" lon="7.909087">
        <ele>286.389424</ele>
        <time>2021-11-13T09:43:46.127Z</time>
      </trkpt>
      <trkpt lat="47.579056" lon="7.908962">
        <ele>286.398164</ele>
        <time>2021-11-13T09:43:49.592Z</time>
      </trkpt>
      <trkpt lat="47.579708" lon="7.908314">
        <ele>286.435914</ele>
        <time>2021-11-13T09:44:02.505Z</time>
      </trkpt>
      <trkpt lat="47.580105" lon="7.908168">
        <ele>286.455585</ele>
        <time>2021-11-13T09:44:08.254Z</time>
      </trkpt>
      <trkpt lat="47.580194" lon="7.908192">
        <ele>286.459935</ele>
        <time>2021-11-13T09:44:09.419Z</time>
      </trkpt>
      <trkpt lat="47.580422" lon="7.908273">
        <ele>286.471210</ele>
        <time>2021-11-13T09:44:12.548Z</time>
      </trkpt>
      <trkpt lat="47.580470" lon="7.908164">
        <ele>286.434916</ele>
        <time>2021-11-13T09:44:13.537Z</time>
      </trkpt>
      <trkpt lat="47.580552" lon="7.908081">
        <ele>286.330746</ele>
        <time>2021-11-13T09:44:14.904Z</time>
      </trkpt>
      <trkpt lat="47.581568" lon="7.907612">
        <ele>285.214336</ele>
        <time>2021-11-13T09:44:27.762Z</time>
      </trkpt>
      <trkpt lat="47.581793" lon="7.907472">
        <ele>284.958330</ele>
        <time>2021-11-13T09:44:30.534Z</time>
      </trkpt>
      <trkpt lat="47.582248" lon="7.907090">
        <ele>284.622319</ele>
        <time>2021-11-13T09:44:36.747Z</time>
      </trkpt>
      <trkpt lat="47.582657" lon="7.906618">
        <ele>284.732060</ele>
        <time>2021-11-13T09:44:43.380Z</time>
      </trkpt>
      <trkpt lat="47.582951" lon="7.906415">
        <ele>284.800729</ele>
        <time>2021-11-13T09:44:48.308Z</time>
      </trkpt>
      <trkpt lat="47.583077" lon="7.906399">
        <ele>284.827504</ele>
        <time>2021-11-13T09:44:50.187Z</time>
      </trkpt>
      <trkpt lat="47.583245" lon="7.906443">
        <ele>284.863626</ele>
        <time>2021-11-13T09:44:53.601Z</time>
      </trkpt>
      <trkpt lat="47.583451" lon="7.906619">
        <ele>284.913966</ele>
        <time>2021-11-13T09:44:58.142Z</time>
      </trkpt>
      <trkpt lat="47.583711" lon="7.906911">
        <ele>285.143598</ele>
        <time>2021-11-13T09:45:04.884Z</time>
      </trkpt>
      <trkpt lat="47.583887" lon="7.907113">
        <ele>285.676387</ele>
        <time>2021-11-13T09:45:09.867Z</time>
      </trkpt>
      <trkpt lat="47.584719" lon="7.908091">
        <ele>288.218009</ele>
        <time>2021-11-13T09:45:35.489Z</time>
      </trkpt>
      <trkpt lat="47.585084" lon="7.908692">
        <ele>289.681808</ele>
        <time>2021-11-13T09:45:50.176Z</time>
      </trkpt>
      <trkpt lat="47.585149" lon="7.908804">
        <ele>290.070684</ele>
        <time>2021-11-13T09:45:53.131Z</time>
      </trkpt>
      <trkpt lat="47.585222" lon="7.908901">
        <ele>290.453200</ele>
        <time>2021-11-13T09:45:56.293Z</time>
      </trkpt>
      <trkpt lat="47.585337" lon="7.909031">
        <ele>291.017501</ele>
        <time>2021-11-13T09:46:00.472Z</time>
      </trkpt>
      <trkpt lat="47.585078" lon="7.909509">
        <ele>292.631230</ele>
        <time>2021-11-13T09:46:12.511Z</time>
      </trkpt>
      <trkpt lat="47.585045" lon="7.909674">
        <ele>293.084189</ele>
        <time>2021-11-13T09:46:15.923Z</time>
      </trkpt>
      <trkpt lat="47.585051" lon="7.909751">
        <ele>293.288197</ele>
        <time>2021-11-13T09:46:17.780Z</time>
      </trkpt>
      <trkpt lat="47.585066" lon="7.909809">
        <ele>293.451686</ele>
        <time>2021-11-13T09:46:19.060Z</time>
      </trkpt>
      <trkpt lat="47.585093" lon="7.909869">
        <ele>293.641522</ele>
        <time>2021-11-13T09:46:20.392Z</time>
      </trkpt>
      <trkpt lat="47.585157" lon="7.909965">
        <ele>293.996778</ele>
        <time>2021-11-13T09:46:22.769Z</time>
      </trkpt>
      <trkpt lat="47.585271" lon="7.910136">
        <ele>294.629578</ele>
        <time>2021-11-13T09:46:27.740Z</time>
      </trkpt>
      <trkpt lat="47.585430" lon="7.910346">
        <ele>295.460493</ele>
        <time>2021-11-13T09:46:34.662Z</time>
      </trkpt>
      <trkpt lat="47.585610" lon="7.910640">
        <ele>296.515058</ele>
        <time>2021-11-13T09:46:44.291Z</time>
      </trkpt>
      <trkpt lat="47.586028" lon="7.911561">
        <ele>299.566907</ele>
        <time>2021-11-13T09:47:10.370Z</time>
      </trkpt>
      <trkpt lat="47.586263" lon="7.911881">
        <ele>300.867450</ele>
        <time>2021-11-13T09:47:20.627Z</time>
      </trkpt>
      <trkpt lat="47.586433" lon="7.912047">
        <ele>301.697146</ele>
        <time>2021-11-13T09:47:27.205Z</time>
      </trkpt>
      <trkpt lat="47.586622" lon="7.912140">
        <ele>302.508823</ele>
        <time>2021-11-13T09:47:32.927Z</time>
      </trkpt>
      <trkpt lat="47.586917" lon="7.912301">
        <ele>303.675970</ele>
        <time>2021-11-13T09:47:40.784Z</time>
      </trkpt>
      <trkpt lat="47.587725" lon="7.912508">
        <ele>304.740788</ele>
        <time>2021-11-13T09:47:59.479Z</time>
      </trkpt>
      <trkpt lat="47.587897" lon="7.912517">
        <ele>304.964286</ele>
        <time>2021-11-13T09:48:03.035Z</time>
      </trkpt>
      <trkpt lat="47.588907" lon="7.912607">
        <ele>306.025877</ele>
        <time>2021-11-13T09:48:18.492Z</time>
      </trkpt>
      <trkpt lat="47.589326" lon="7.912720">
        <ele>306.142661</ele>
        <time>2021-11-13T09:48:24.831Z</time>
      </trkpt>
      <trkpt lat="47.589873" lon="7.912855">
        <ele>306.294723</ele>
        <time>2021-11-13T09:48:33.331Z</time>
      </trkpt>
      <trkpt lat="47.590231" lon="7.912830">
        <ele>306.393003</ele>
        <time>2021-11-13T09:48:39.055Z</time>
      </trkpt>
      <trkpt lat="47.590570" lon="7.912784">
        <ele>306.587650</ele>
        <time>2021-11-13T09:48:45.176Z</time>
      </trkpt>
      <trkpt lat="47.591044" lon="7.912710">
        <ele>307.098733</ele>
        <time>2021-11-13T09:48:54.249Z</time>
      </trkpt>
      <trkpt lat="47.591348" lon="7.912662">
        <ele>307.426557</ele>
        <time>2021-11-13T09:49:00.330Z</time>
      </trkpt>
      <trkpt lat="47.591443" lon="7.912678">
        <ele>307.529081</ele>
        <time>2021-11-13T09:49:01.909Z</time>
      </trkpt>
      <trkpt lat="47.591605" lon="7.912829">
        <ele>307.734266</ele>
        <time>2021-11-13T09:49:06.153Z</time>
      </trkpt>
      <trkpt lat="47.591714" lon="7.913064">
        <ele>307.940525</ele>
        <time>2021-11-13T09:49:09.459Z</time>
      </trkpt>
      <trkpt lat="47.591721" lon="7.913096">
        <ele>307.964854</ele>
        <time>2021-11-13T09:49:09.845Z</time>
      </trkpt>
      <trkpt lat="47.591746" lon="7.913330">
        <ele>308.136187</ele>
        <time>2021-11-13T09:49:13.570Z</time>
      </trkpt>
      <trkpt lat="47.591809" lon="7.913704">
        <ele>308.436870</ele>
        <time>2021-11-13T09:49:17.788Z</time>
      </trkpt>
      <trkpt lat="47.591858" lon="7.913783">
        <ele>308.563465</ele>
        <time>2021-11-13T09:49:19.700Z</time>
      </trkpt>
      <trkpt lat="47.591953" lon="7.913843">
        <ele>308.744056</ele>
        <time>2021-11-13T09:49:21.697Z</time>
      </trkpt>
      <trkpt lat="47.592496" lon="7.914014">
        <ele>309.714900</ele>
        <time>2021-11-13T09:49:32.652Z</time>
      </trkpt>
      <trkpt lat="47.592589" lon="7.914035">
        <ele>309.879425</ele>
        <time>2021-11-13T09:49:35.673Z</time>
      </trkpt>
      <trkpt lat="47.592672" lon="7.914009">
        <ele>310.027789</ele>
        <time>2021-11-13T09:49:37.335Z</time>
      </trkpt>
      <trkpt lat="47.592807" lon="7.913929">
        <ele>310.282049</ele>
        <time>2021-11-13T09:49:39.798Z</time>
      </trkpt>
      <trkpt lat="47.593189" lon="7.913725">
        <ele>310.992143</ele>
        <time>2021-11-13T09:49:49.241Z</time>
      </trkpt>
      <trkpt lat="47.593511" lon="7.913649">
        <ele>311.573017</ele>
        <time>2021-11-13T09:49:57.175Z</time>
      </trkpt>
      <trkpt lat="47.593654" lon="7.913672">
        <ele>311.897941</ele>
        <time>2021-11-13T09:50:00.919Z</time>
      </trkpt>
      <trkpt lat="47.594163" lon="7.913924">
        <ele>313.110139</ele>
        <time>2021-11-13T09:50:14.074Z</time>
      </trkpt>
      <trkpt lat="47.594719" lon="7.914022">
        <ele>314.374954</ele>
        <time>2021-11-13T09:50:27.917Z</time>
      </trkpt>
      <trkpt lat="47.594871" lon="7.914141">
        <ele>314.763231</ele>
        <time>2021-11-13T09:50:31.894Z</time>
      </trkpt>
      <trkpt lat="47.595031" lon="7.914316">
        <ele>315.212343</ele>
        <time>2021-11-13T09:50:36.768Z</time>
      </trkpt>
      <trkpt lat="47.595292" lon="7.914664">
        <ele>315.838351</ele>
        <time>2021-11-13T09:50:44.395Z</time>
      </trkpt>
      <trkpt lat="47.595476" lon="7.914889">
        <ele>316.161126</ele>
        <time>2021-11-13T09:50:49.481Z</time>
      </trkpt>
      <trkpt lat="47.595688" lon="7.915084">
        <ele>316.498763</ele>
        <time>2021-11-13T09:50:54.914Z</time>
      </trkpt>
      <trkpt lat="47.595861" lon="7.915155">
        <ele>316.741703</ele>
        <time>2021-11-13T09:50:58.434Z</time>
      </trkpt>
      <trkpt lat="47.595909" lon="7.915188">
        <ele>316.813308</ele>
        <time>2021-11-13T09:50:59.517Z</time>
      </trkpt>
      <trkpt lat="47.595949" lon="7.915202">
        <ele>316.868932</ele>
        <time>2021-11-13T09:51:00.449Z</time>
      </trkpt>
      <trkpt lat="47.596117" lon="7.915243">
        <ele>317.099362</ele>
        <time>2021-11-13T09:51:04.044Z</time>
      </trkpt>
      <trkpt lat="47.596349" lon="7.915301">
        <ele>317.417782</ele>
        <time>2021-11-13T09:51:08.475Z</time>
      </trkpt>
      <trkpt lat="47.596736" lon="7.915598">
        <ele>318.007533</ele>
        <time>2021-11-13T09:51:16.312Z</time>
      </trkpt>
      <trkpt lat="47.596850" lon="7.915674">
        <ele>318.140689</ele>
        <time>2021-11-13T09:51:18.302Z</time>
      </trkpt>
      <trkpt lat="47.597083" lon="7.915733">
        <ele>318.385528</ele>
        <time>2021-11-13T09:51:22.434Z</time>
      </trkpt>
      <trkpt lat="47.597656" lon="7.915778">
        <ele>318.979885</ele>
        <time>2021-11-13T09:51:32.608Z</time>
      </trkpt>
      <trkpt lat="47.599120" lon="7.915596">
        <ele>320.444287</ele>
        <time>2021-11-13T09:52:02.579Z</time>
      </trkpt>
      <trkpt lat="47.599374" lon="7.915625">
        <ele>320.683567</ele>
        <time>2021-11-13T09:52:07.291Z</time>
      </trkpt>
      <trkpt lat="47.599906" lon="7.915798">
        <ele>321.195128</ele>
        <time>2021-11-13T09:52:17.117Z</time>
      </trkpt>
      <trkpt lat="47.600078" lon="7.915859">
        <ele>321.361237</ele>
        <time>2021-11-13T09:52:20.181Z</time>
      </trkpt>
      <trkpt lat="47.600344" lon="7.915900">
        <ele>321.590635</ele>
        <time>2021-11-13T09:52:24.671Z</time>
      </trkpt>
      <trkpt lat="47.600545" lon="7.915898">
        <ele>321.667337</ele>
        <time>2021-11-13T09:52:28.137Z</time>
      </trkpt>
      <trkpt lat="47.600689" lon="7.915853">
        <ele>321.723493</ele>
        <time>2021-11-13T09:52:30.466Z</time>
      </trkpt>
      <trkpt lat="47.601054" lon="7.915633">
        <ele>321.873839</ele>
        <time>2021-11-13T09:52:36.883Z</time>
      </trkpt>
      <trkpt lat="47.601546" lon="7.915285">
        <ele>322.081842</ele>
        <time>2021-11-13T09:52:45.288Z</time>
      </trkpt>
      <trkpt lat="47.602131" lon="7.915025">
        <ele>322.419171</ele>
        <time>2021-11-13T09:52:54.972Z</time>
      </trkpt>
      <trkpt lat="47.602754" lon="7.914823">
        <ele>323.143091</ele>
        <time>2021-11-13T09:53:06.792Z</time>
      </trkpt>
      <trkpt lat="47.603302" lon="7.914722">
        <ele>323.769954</ele>
        <time>2021-11-13T09:53:17.929Z</time>
      </trkpt>
      <trkpt lat="47.603466" lon="7.914620">
        <ele>323.971831</ele>
        <time>2021-11-13T09:53:21.844Z</time>
      </trkpt>
      <trkpt lat="47.603615" lon="7.914449">
        <ele>324.185699</ele>
        <time>2021-11-13T09:53:25.794Z</time>
      </trkpt>
      <trkpt lat="47.603884" lon="7.914671">
        <ele>324.608802</ele>
        <time>2021-11-13T09:53:32.505Z</time>
      </trkpt>
      <trkpt lat="47.604062" lon="7.914772">
        <ele>324.894033</ele>
        <time>2021-11-13T09:53:36.705Z</time>
      </trkpt>
      <trkpt lat="47.604393" lon="7.914885">
        <ele>325.402372</ele>
        <time>2021-11-13T09:53:43.713Z</time>
      </trkpt>
      <trkpt lat="47.604722" lon="7.914915">
        <ele>325.895694</ele>
        <time>2021-11-13T09:53:50.347Z</time>
      </trkpt>
      <trkpt lat="47.605105" lon="7.914869">
        <ele>326.470780</ele>
        <time>2021-11-13T09:53:58.247Z</time>
      </trkpt>
      <trkpt lat="47.605408" lon="7.914750">
        <ele>326.939889</ele>
        <time>2021-11-13T09:54:04.912Z</time>
      </trkpt>
      <trkpt lat="47.605648" lon="7.914613">
        <ele>327.246624</ele>
        <time>2021-11-13T09:54:10.279Z</time>
      </trkpt>
      <trkpt lat="47.605929" lon="7.914457">
        <ele>327.589019</ele>
        <time>2021-11-13T09:54:16.195Z</time>
      </trkpt>
      <trkpt lat="47.606200" lon="7.914255">
        <ele>327.935133</ele>
        <time>2021-11-13T09:54:22.016Z</time>
      </trkpt>
      <trkpt lat="47.606450" lon="7.914067">
        <ele>328.254999</ele>
        <time>2021-11-13T09:54:27.280Z</time>
      </trkpt>
      <trkpt lat="47.606558" lon="7.913988">
        <ele>328.392419</ele>
        <time>2021-11-13T09:54:29.479Z</time>
      </trkpt>
      <trkpt lat="47.606706" lon="7.913869">
        <ele>328.584532</ele>
        <time>2021-11-13T09:54:32.612Z</time>
      </trkpt>
      <trkpt lat="47.606938" lon="7.913697">
        <ele>328.880515</ele>
        <time>2021-11-13T09:54:37.434Z</time>
      </trkpt>
      <trkpt lat="47.607292" lon="7.913435">
        <ele>329.386395</ele>
        <time>2021-11-13T09:54:45.058Z</time>
      </trkpt>
      <trkpt lat="47.607663" lon="7.913198">
        <ele>329.935775</ele>
        <time>2021-11-13T09:54:53.308Z</time>
      </trkpt>
      <trkpt lat="47.608679" lon="7.912703">
        <ele>331.390203</ele>
        <time>2021-11-13T09:55:15.461Z</time>
      </trkpt>
      <trkpt lat="47.609914" lon="7.912278">
        <ele>333.094570</ele>
        <time>2021-11-13T09:55:41.483Z</time>
      </trkpt>
      <trkpt lat="47.610416" lon="7.911983">
        <ele>333.819919</ele>
        <time>2021-11-13T09:55:52.689Z</time>
      </trkpt>
      <trkpt lat="47.611260" lon="7.911383">
        <ele>334.140555</ele>
        <time>2021-11-13T09:56:09.333Z</time>
      </trkpt>
      <trkpt lat="47.611668" lon="7.911148">
        <ele>334.256404</ele>
        <time>2021-11-13T09:56:15.627Z</time>
      </trkpt>
      <trkpt lat="47.612029" lon="7.910940">
        <ele>334.358913</ele>
        <time>2021-11-13T09:56:20.835Z</time>
      </trkpt>
      <trkpt lat="47.612005" lon="7.910790">
        <ele>334.386422</ele>
        <time>2021-11-13T09:56:22.132Z</time>
      </trkpt>
      <trkpt lat="47.611994" lon="7.910676">
        <ele>334.311218</ele>
        <time>2021-11-13T09:56:23.201Z</time>
      </trkpt>
      <trkpt lat="47.611988" lon="7.910610">
        <ele>334.266696</ele>
        <time>2021-11-13T09:56:23.715Z</time>
      </trkpt>
      <trkpt lat="47.611981" lon="7.910534">
        <ele>334.215415</ele>
        <time>2021-11-13T09:56:24.352Z</time>
      </trkpt>
      <trkpt lat="47.611986" lon="7.910466">
        <ele>334.169685</ele>
        <time>2021-11-13T09:56:25.111Z</time>
      </trkpt>
      <trkpt lat="47.612020" lon="7.910364">
        <ele>334.093615</ele>
        <time>2021-11-13T09:56:26.130Z</time>
      </trkpt>
      <trkpt lat="47.612082" lon="7.910269">
        <ele>334.005219</ele>
        <time>2021-11-13T09:56:27.286Z</time>
      </trkpt>
      <trkpt lat="47.612131" lon="7.910214">
        <ele>333.944283</ele>
        <time>2021-11-13T09:56:28.074Z</time>
      </trkpt>
      <trkpt lat="47.612216" lon="7.910134">
        <ele>333.844456</ele>
        <time>2021-11-13T09:56:29.311Z</time>
      </trkpt>
      <trkpt lat="47.612897" lon="7.909812">
        <ele>333.135649</ele>
        <time>2021-11-13T09:56:38.262Z</time>
      </trkpt>
      <trkpt lat="47.613280" lon="7.909624">
        <ele>332.735585</ele>
        <time>2021-11-13T09:56:42.852Z</time>
      </trkpt>
      <trkpt lat="47.613360" lon="7.909602">
        <ele>332.654899</ele>
        <time>2021-11-13T09:56:43.788Z</time>
      </trkpt>
      <trkpt lat="47.613934" lon="7.909339">
        <ele>332.023263</ele>
        <time>2021-11-13T09:56:50.628Z</time>
      </trkpt>
      <trkpt lat="47.614063" lon="7.909285">
        <ele>331.881574</ele>
        <time>2021-11-13T09:56:52.251Z</time>
      </trkpt>
      <trkpt lat="47.614412" lon="7.909095">
        <ele>331.488591</ele>
        <time>2021-11-13T09:56:56.771Z</time>
      </trkpt>
      <trkpt lat="47.614784" lon="7.908839">
        <ele>331.055103</ele>
        <time>2021-11-13T09:57:01.964Z</time>
      </trkpt>
      <trkpt lat="47.614784" lon="7.908839">
        <ele>331.055103</ele>
        <time>2021-11-13T09:57:01.968Z</time>
      </trkpt>
      <trkpt lat="47.614876" lon="7.908760">
        <ele>330.942733</ele>
        <time>2021-11-13T09:57:03.505Z</time>
      </trkpt>
      <trkpt lat="47.615016" lon="7.908631">
        <ele>330.768516</ele>
        <time>2021-11-13T09:57:05.669Z</time>
      </trkpt>
      <trkpt lat="47.615085" lon="7.908567">
        <ele>330.706192</ele>
        <time>2021-11-13T09:57:06.657Z</time>
      </trkpt>
      <trkpt lat="47.615246" lon="7.908385">
        <ele>330.754596</ele>
        <time>2021-11-13T09:57:09.380Z</time>
      </trkpt>
      <trkpt lat="47.615374" lon="7.908222">
        <ele>330.794935</ele>
        <time>2021-11-13T09:57:11.408Z</time>
      </trkpt>
      <trkpt lat="47.615460" lon="7.908111">
        <ele>330.822194</ele>
        <time>2021-11-13T09:57:13.053Z</time>
      </trkpt>
      <trkpt lat="47.615669" lon="7.907870">
        <ele>330.885494</ele>
        <time>2021-11-13T09:57:16.525Z</time>
      </trkpt>
      <trkpt lat="47.615821" lon="7.907747">
        <ele>330.926898</ele>
        <time>2021-11-13T09:57:19.139Z</time>
      </trkpt>
      <trkpt lat="47.615946" lon="7.907692">
        <ele>330.958076</ele>
        <time>2021-11-13T09:57:20.939Z</time>
      </trkpt>
      <trkpt lat="47.616009" lon="7.907686">
        <ele>330.973172</ele>
        <time>2021-11-13T09:57:22.012Z</time>
      </trkpt>
      <trkpt lat="47.616124" lon="7.907729">
        <ele>331.001531</ele>
        <time>2021-11-13T09:57:24.166Z</time>
      </trkpt>
      <trkpt lat="47.616604" lon="7.908203">
        <ele>331.201952</ele>
        <time>2021-11-13T09:57:35.579Z</time>
      </trkpt>
      <trkpt lat="47.616832" lon="7.908284">
        <ele>331.725886</ele>
        <time>2021-11-13T09:57:40.714Z</time>
      </trkpt>
      <trkpt lat="47.617086" lon="7.908230">
        <ele>332.299317</ele>
        <time>2021-11-13T09:57:46.380Z</time>
      </trkpt>
      <trkpt lat="47.617238" lon="7.908130">
        <ele>332.670906</ele>
        <time>2021-11-13T09:57:49.931Z</time>
      </trkpt>
      <trkpt lat="47.617957" lon="7.907285">
        <ele>334.720810</ele>
        <time>2021-11-13T09:58:12.029Z</time>
      </trkpt>
      <trkpt lat="47.618470" lon="7.907083">
        <ele>336.303134</ele>
        <time>2021-11-13T09:58:27.337Z</time>
      </trkpt>
      <trkpt lat="47.618579" lon="7.906988">
        <ele>336.733811</ele>
        <time>2021-11-13T09:58:30.651Z</time>
      </trkpt>
      <trkpt lat="47.618719" lon="7.906838">
        <ele>337.322137</ele>
        <time>2021-11-13T09:58:36.266Z</time>
      </trkpt>
      <trkpt lat="47.618867" lon="7.906514">
        <ele>338.220906</ele>
        <time>2021-11-13T09:58:43.298Z</time>
      </trkpt>
      <trkpt lat="47.618888" lon="7.906392">
        <ele>338.510052</ele>
        <time>2021-11-13T09:58:46.489Z</time>
      </trkpt>
      <trkpt lat="47.618920" lon="7.906208">
        <ele>338.946418</ele>
        <time>2021-11-13T09:58:50.332Z</time>
      </trkpt>
      <trkpt lat="47.618976" lon="7.905535">
        <ele>340.503596</ele>
        <time>2021-11-13T09:59:02.557Z</time>
      </trkpt>
      <trkpt lat="47.619155" lon="7.905319">
        <ele>341.287631</ele>
        <time>2021-11-13T09:59:09.829Z</time>
      </trkpt>
      <trkpt lat="47.619299" lon="7.905308">
        <ele>341.685224</ele>
        <time>2021-11-13T09:59:13.091Z</time>
      </trkpt>
      <trkpt lat="47.619447" lon="7.905300">
        <ele>342.093592</ele>
        <time>2021-11-13T09:59:18.192Z</time>
      </trkpt>
      <trkpt lat="47.620426" lon="7.905244">
        <ele>344.795102</ele>
        <time>2021-11-13T09:59:43.873Z</time>
      </trkpt>
      <trkpt lat="47.620699" lon="7.905223">
        <ele>345.548886</ele>
        <time>2021-11-13T09:59:50.329Z</time>
      </trkpt>
      <trkpt lat="47.621107" lon="7.905191">
        <ele>346.515455</ele>
        <time>2021-11-13T09:59:59.901Z</time>
      </trkpt>
      <trkpt lat="47.621248" lon="7.905159">
        <ele>346.764699</ele>
        <time>2021-11-13T10:00:03.136Z</time>
      </trkpt>
      <trkpt lat="47.622235" lon="7.904957">
        <ele>348.505677</ele>
        <time>2021-11-13T10:00:25.214Z</time>
      </trkpt>
      <trkpt lat="47.622424" lon="7.904919">
        <ele>348.838947</ele>
        <time>2021-11-13T10:00:29.250Z</time>
      </trkpt>
      <trkpt lat="47.622648" lon="7.904863">
        <ele>349.235873</ele>
        <time>2021-11-13T10:00:34.033Z</time>
      </trkpt>
      <trkpt lat="47.623650" lon="7.904642">
        <ele>350.001254</ele>
        <time>2021-11-13T10:00:53.064Z</time>
      </trkpt>
      <trkpt lat="47.624120" lon="7.904530">
        <ele>350.318591</ele>
        <time>2021-11-13T10:01:01.092Z</time>
      </trkpt>
      <trkpt lat="47.624263" lon="7.904484">
        <ele>350.416136</ele>
        <time>2021-11-13T10:01:03.282Z</time>
      </trkpt>
      <trkpt lat="47.624399" lon="7.904386">
        <ele>350.516926</ele>
        <time>2021-11-13T10:01:05.534Z</time>
      </trkpt>
      <trkpt lat="47.624451" lon="7.904332">
        <ele>350.559239</ele>
        <time>2021-11-13T10:01:06.511Z</time>
      </trkpt>
      <trkpt lat="47.624472" lon="7.904367">
        <ele>350.580293</ele>
        <time>2021-11-13T10:01:06.930Z</time>
      </trkpt>
      <trkpt lat="47.624565" lon="7.904455">
        <ele>350.586810</ele>
        <time>2021-11-13T10:01:08.520Z</time>
      </trkpt>
      <trkpt lat="47.624761" lon="7.904481">
        <ele>350.598023</ele>
        <time>2021-11-13T10:01:11.301Z</time>
      </trkpt>
      <trkpt lat="47.624956" lon="7.904522">
        <ele>350.609246</ele>
        <time>2021-11-13T10:01:14.014Z</time>
      </trkpt>
      <trkpt lat="47.625088" lon="7.904563">
        <ele>350.616931</ele>
        <time>2021-11-13T10:01:15.980Z</time>
      </trkpt>
      <trkpt lat="47.625516" lon="7.904701">
        <ele>350.641889</ele>
        <time>2021-11-13T10:01:22.383Z</time>
      </trkpt>
      <trkpt lat="47.625742" lon="7.904774">
        <ele>350.655068</ele>
        <time>2021-11-13T10:01:25.629Z</time>
      </trkpt>
      <trkpt lat="47.626086" lon="7.904879">
        <ele>350.675081</ele>
        <time>2021-11-13T10:01:31.171Z</time>
      </trkpt>
      <trkpt lat="47.626221" lon="7.904920">
        <ele>350.682933</ele>
        <time>2021-11-13T10:01:33.434Z</time>
      </trkpt>
      <trkpt lat="47.626399" lon="7.904961">
        <ele>350.853002</ele>
        <time>2021-11-13T10:01:36.382Z</time>
      </trkpt>
      <trkpt lat="47.626440" lon="7.905007">
        <ele>350.902003</ele>
        <time>2021-11-13T10:01:37.078Z</time>
      </trkpt>
      <trkpt lat="47.626505" lon="7.904968">
        <ele>350.968843</ele>
        <time>2021-11-13T10:01:38.417Z</time>
      </trkpt>
      <trkpt lat="47.627067" lon="7.904813">
        <ele>351.513777</ele>
        <time>2021-11-13T10:01:48.611Z</time>
      </trkpt>
      <trkpt lat="47.627287" lon="7.904761">
        <ele>351.726148</ele>
        <time>2021-11-13T10:01:52.884Z</time>
      </trkpt>
      <trkpt lat="47.627467" lon="7.904744">
        <ele>351.898091</ele>
        <time>2021-11-13T10:01:56.487Z</time>
      </trkpt>
      <trkpt lat="47.627955" lon="7.904708">
        <ele>352.363878</ele>
        <time>2021-11-13T10:02:06.501Z</time>
      </trkpt>
      <trkpt lat="47.628650" lon="7.904559">
        <ele>353.523680</ele>
        <time>2021-11-13T10:02:21.089Z</time>
      </trkpt>
      <trkpt lat="47.628975" lon="7.904514">
        <ele>354.074919</ele>
        <time>2021-11-13T10:02:27.907Z</time>
      </trkpt>
      <trkpt lat="47.629371" lon="7.904510">
        <ele>354.743692</ele>
        <time>2021-11-13T10:02:36.761Z</time>
      </trkpt>
      <trkpt lat="47.629718" lon="7.904514">
        <ele>355.329717</ele>
        <time>2021-11-13T10:02:44.578Z</time>
      </trkpt>
      <trkpt lat="47.629946" lon="7.904556">
        <ele>355.758919</ele>
        <time>2021-11-13T10:02:49.661Z</time>
      </trkpt>
      <trkpt lat="47.629962" lon="7.904269">
        <ele>356.134473</ele>
        <time>2021-11-13T10:02:54.305Z</time>
      </trkpt>
      <trkpt lat="47.629971" lon="7.903809">
        <ele>356.734609</ele>
        <time>2021-11-13T10:03:01.589Z</time>
      </trkpt>
      <trkpt lat="47.629981" lon="7.903605">
        <ele>357.001347</ele>
        <time>2021-11-13T10:03:04.806Z</time>
      </trkpt>
      <trkpt lat="47.630003" lon="7.903430">
        <ele>357.233500</ele>
        <time>2021-11-13T10:03:07.783Z</time>
      </trkpt>
      <trkpt lat="47.630019" lon="7.903301">
        <ele>357.404553</ele>
        <time>2021-11-13T10:03:10.133Z</time>
      </trkpt>
      <trkpt lat="47.630125" lon="7.903008">
        <ele>357.838228</ele>
        <time>2021-11-13T10:03:14.991Z</time>
      </trkpt>
      <trkpt lat="47.630334" lon="7.902735">
        <ele>358.377037</ele>
        <time>2021-11-13T10:03:21.738Z</time>
      </trkpt>
      <trkpt lat="47.630425" lon="7.902631">
        <ele>358.599305</ele>
        <time>2021-11-13T10:03:23.842Z</time>
      </trkpt>
      <trkpt lat="47.630643" lon="7.902358">
        <ele>358.924016</ele>
        <time>2021-11-13T10:03:29.769Z</time>
      </trkpt>
      <trkpt lat="47.631232" lon="7.901830">
        <ele>358.970681</ele>
        <time>2021-11-13T10:03:43.058Z</time>
      </trkpt>
      <trkpt lat="47.631256" lon="7.901808">
        <ele>358.972594</ele>
        <time>2021-11-13T10:03:43.325Z</time>
      </trkpt>
      <trkpt lat="47.632600" lon="7.900774">
        <ele>358.399980</ele>
        <time>2021-11-13T10:04:02.290Z</time>
      </trkpt>
      <trkpt lat="47.632720" lon="7.900711">
        <ele>358.253267</ele>
        <time>2021-11-13T10:04:03.675Z</time>
      </trkpt>
      <trkpt lat="47.632986" lon="7.900573">
        <ele>357.928478</ele>
        <time>2021-11-13T10:04:06.844Z</time>
      </trkpt>
      <trkpt lat="47.633103" lon="7.900526">
        <ele>357.788769</ele>
        <time>2021-11-13T10:04:08.213Z</time>
      </trkpt>
      <trkpt lat="47.633136" lon="7.900472">
        <ele>357.732149</ele>
        <time>2021-11-13T10:04:08.778Z</time>
      </trkpt>
      <trkpt lat="47.633178" lon="7.900379">
        <ele>357.645193</ele>
        <time>2021-11-13T10:04:09.691Z</time>
      </trkpt>
      <trkpt lat="47.633206" lon="7.900226">
        <ele>357.522053</ele>
        <time>2021-11-13T10:04:10.896Z</time>
      </trkpt>
      <trkpt lat="47.633187" lon="7.900027">
        <ele>357.365944</ele>
        <time>2021-11-13T10:04:12.445Z</time>
      </trkpt>
      <trkpt lat="47.633149" lon="7.899435">
        <ele>357.042190</ele>
        <time>2021-11-13T10:04:17.238Z</time>
      </trkpt>
      <trkpt lat="47.633158" lon="7.898852">
        <ele>357.622390</ele>
        <time>2021-11-13T10:04:22.905Z</time>
      </trkpt>
      <trkpt lat="47.633193" lon="7.898518">
        <ele>357.958692</ele>
        <time>2021-11-13T10:04:26.808Z</time>
      </trkpt>
      <trkpt lat="47.633243" lon="7.898143">
        <ele>358.339026</ele>
        <time>2021-11-13T10:04:30.767Z</time>
      </trkpt>
      <trkpt lat="47.633321" lon="7.897770">
        <ele>358.727594</ele>
        <time>2021-11-13T10:04:35.799Z</time>
      </trkpt>
      <trkpt lat="47.633404" lon="7.897403">
        <ele>359.112749</ele>
        <time>2021-11-13T10:04:43.064Z</time>
      </trkpt>
      <trkpt lat="47.633451" lon="7.897158">
        <ele>359.366192</ele>
        <time>2021-11-13T10:04:48.360Z</time>
      </trkpt>
      <trkpt lat="47.633544" lon="7.897178">
        <ele>359.504935</ele>
        <time>2021-11-13T10:04:51.700Z</time>
      </trkpt>
      <trkpt lat="47.633712" lon="7.897253">
        <ele>360.162729</ele>
        <time>2021-11-13T10:04:56.398Z</time>
      </trkpt>
      <trkpt lat="47.634246" lon="7.897491">
        <ele>363.269459</ele>
        <time>2021-11-13T10:05:17.006Z</time>
      </trkpt>
      <trkpt lat="47.634336" lon="7.897711">
        <ele>364.235804</ele>
        <time>2021-11-13T10:05:22.292Z</time>
      </trkpt>
      <trkpt lat="47.634343" lon="7.897777">
        <ele>364.486666</ele>
        <time>2021-11-13T10:05:24.868Z</time>
      </trkpt>
      <trkpt lat="47.634620" lon="7.897781">
        <ele>366.030175</ele>
        <time>2021-11-13T10:05:36.591Z</time>
      </trkpt>
      <trkpt lat="47.634854" lon="7.897704">
        <ele>367.365685</ele>
        <time>2021-11-13T10:05:48.307Z</time>
      </trkpt>
      <trkpt lat="47.635737" lon="7.897379">
        <ele>372.445088</ele>
        <time>2021-11-13T10:06:30.062Z</time>
      </trkpt>
      <trkpt lat="47.636522" lon="7.897301">
        <ele>376.845026</ele>
        <time>2021-11-13T10:07:04.424Z</time>
      </trkpt>
      <trkpt lat="47.636977" lon="7.897346">
        <ele>379.395256</ele>
        <time>2021-11-13T10:07:22.509Z</time>
      </trkpt>
      <trkpt lat="47.637836" lon="7.897649">
        <ele>382.039797</ele>
        <time>2021-11-13T10:07:54.147Z</time>
      </trkpt>
      <trkpt lat="47.638407" lon="7.897678">
        <ele>383.653070</ele>
        <time>2021-11-13T10:08:11.626Z</time>
      </trkpt>
      <trkpt lat="47.638699" lon="7.897617">
        <ele>384.485717</ele>
        <time>2021-11-13T10:08:19.454Z</time>
      </trkpt>
      <trkpt lat="47.639601" lon="7.897255">
        <ele>385.223265</ele>
        <time>2021-11-13T10:08:38.869Z</time>
      </trkpt>
      <trkpt lat="47.640156" lon="7.896789">
        <ele>385.563795</ele>
        <time>2021-11-13T10:08:52.861Z</time>
      </trkpt>
      <trkpt lat="47.640181" lon="7.896771">
        <ele>385.578634</ele>
        <time>2021-11-13T10:08:53.256Z</time>
      </trkpt>
      <trkpt lat="47.640657" lon="7.896458">
        <ele>386.144317</ele>
        <time>2021-11-13T10:09:05.076Z</time>
      </trkpt>
      <trkpt lat="47.640863" lon="7.896366">
        <ele>386.543527</ele>
        <time>2021-11-13T10:09:10.627Z</time>
      </trkpt>
      <trkpt lat="47.641241" lon="7.896307">
        <ele>387.248857</ele>
        <time>2021-11-13T10:09:20.452Z</time>
      </trkpt>
      <trkpt lat="47.643279" lon="7.895506">
        <ele>390.965122</ele>
        <time>2021-11-13T10:10:24.369Z</time>
      </trkpt>
      <trkpt lat="47.643897" lon="7.895332">
        <ele>392.022544</ele>
        <time>2021-11-13T10:10:38.520Z</time>
      </trkpt>
      <trkpt lat="47.644047" lon="7.895274">
        <ele>392.097303</ele>
        <time>2021-11-13T10:10:42.274Z</time>
      </trkpt>
      <trkpt lat="47.644557" lon="7.895073">
        <ele>392.075103</ele>
        <time>2021-11-13T10:10:52.265Z</time>
      </trkpt>
      <trkpt lat="47.645206" lon="7.894857">
        <ele>392.047120</ele>
        <time>2021-11-13T10:11:04.481Z</time>
      </trkpt>
      <trkpt lat="47.646091" lon="7.894363">
        <ele>393.174447</ele>
        <time>2021-11-13T10:11:24.017Z</time>
      </trkpt>
      <trkpt lat="47.646505" lon="7.894236">
        <ele>394.259235</ele>
        <time>2021-11-13T10:11:36.666Z</time>
      </trkpt>
      <trkpt lat="47.646788" lon="7.894362">
        <ele>395.017387</ele>
        <time>2021-11-13T10:11:46.658Z</time>
      </trkpt>
      <trkpt lat="47.647143" lon="7.894356">
        <ele>395.928389</ele>
        <time>2021-11-13T10:11:59.099Z</time>
      </trkpt>
      <trkpt lat="47.647331" lon="7.894188">
        <ele>396.491479</ele>
        <time>2021-11-13T10:12:06.719Z</time>
      </trkpt>
      <trkpt lat="47.647433" lon="7.894213">
        <ele>396.795517</ele>
        <time>2021-11-13T10:12:11.685Z</time>
      </trkpt>
      <trkpt lat="47.648319" lon="7.894791">
        <ele>400.114351</ele>
        <time>2021-11-13T10:12:48.595Z</time>
      </trkpt>
      <trkpt lat="47.648505" lon="7.895102">
        <ele>401.075114</ele>
        <time>2021-11-13T10:12:58.007Z</time>
      </trkpt>
      <trkpt lat="47.648759" lon="7.895739">
        <ele>402.785189</ele>
        <time>2021-11-13T10:13:13.086Z</time>
      </trkpt>
      <trkpt lat="47.649045" lon="7.895972">
        <ele>402.795259</ele>
        <time>2021-11-13T10:13:20.402Z</time>
      </trkpt>
      <trkpt lat="47.649403" lon="7.896231">
        <ele>402.777348</ele>
        <time>2021-11-13T10:14:05.043Z</time>
      </trkpt>
      <trkpt lat="47.649598" lon="7.896368">
        <ele>402.767646</ele>
        <time>2021-11-13T10:14:28.238Z</time>
      </trkpt>
      <trkpt lat="47.649956" lon="7.896728">
        <ele>402.748200</ele>
        <time>2021-11-13T10:15:15.195Z</time>
      </trkpt>
      <trkpt lat="47.650109" lon="7.896741">
        <ele>402.741308</ele>
        <time>2021-11-13T10:15:31.310Z</time>
      </trkpt>
      <trkpt lat="47.651241" lon="7.896835">
        <ele>402.782369</ele>
        <time>2021-11-13T10:17:35.060Z</time>
      </trkpt>
      <trkpt lat="47.651452" lon="7.897035">
        <ele>402.798098</ele>
        <time>2021-11-13T10:18:03.565Z</time>
      </trkpt>
      <trkpt lat="47.651465" lon="7.897134">
        <ele>402.802366</ele>
        <time>2021-11-13T10:18:11.462Z</time>
      </trkpt>
      <trkpt lat="47.652153" lon="7.897594">
        <ele>402.881352</ele>
        <time>2021-11-13T10:18:24.953Z</time>
      </trkpt>
      <trkpt lat="47.652305" lon="7.897672">
        <ele>402.931100</ele>
        <time>2021-11-13T10:18:27.761Z</time>
      </trkpt>
      <trkpt lat="47.652617" lon="7.897834">
        <ele>403.033344</ele>
        <time>2021-11-13T10:18:32.615Z</time>
      </trkpt>
      <trkpt lat="47.652925" lon="7.897994">
        <ele>403.134281</ele>
        <time>2021-11-13T10:18:37.669Z</time>
      </trkpt>
      <trkpt lat="47.653340" lon="7.898105">
        <ele>403.264719</ele>
        <time>2021-11-13T10:18:44.387Z</time>
      </trkpt>
      <trkpt lat="47.653349" lon="7.897933">
        <ele>403.300667</ele>
        <time>2021-11-13T10:18:46.532Z</time>
      </trkpt>
      <trkpt lat="47.653356" lon="7.897817">
        <ele>403.324934</ele>
        <time>2021-11-13T10:18:48.075Z</time>
      </trkpt>
      <trkpt lat="47.653455" lon="7.897893">
        <ele>403.359410</ele>
        <time>2021-11-13T10:18:49.976Z</time>
      </trkpt>
      <trkpt lat="47.653625" lon="7.897881">
        <ele>403.484621</ele>
        <time>2021-11-13T10:18:52.635Z</time>
      </trkpt>
      <trkpt lat="47.653737" lon="7.897880">
        <ele>403.699352</ele>
        <time>2021-11-13T10:18:54.260Z</time>
      </trkpt>
      <trkpt lat="47.654085" lon="7.897876">
        <ele>404.366560</ele>
        <time>2021-11-13T10:19:00.301Z</time>
      </trkpt>
      <trkpt lat="47.654516" lon="7.897893">
        <ele>405.193167</ele>
        <time>2021-11-13T10:19:08.770Z</time>
      </trkpt>
      <trkpt lat="47.654620" lon="7.897827">
        <ele>405.410011</ele>
        <time>2021-11-13T10:19:11.576Z</time>
      </trkpt>
      <trkpt lat="47.654671" lon="7.897693">
        <ele>405.608775</ele>
        <time>2021-11-13T10:19:13.517Z</time>
      </trkpt>
      <trkpt lat="47.654759" lon="7.897508">
        <ele>405.901254</ele>
        <time>2021-11-13T10:19:17.015Z</time>
      </trkpt>
      <trkpt lat="47.654830" lon="7.897410">
        <ele>406.087120</ele>
        <time>2021-11-13T10:19:19.958Z</time>
      </trkpt>
      <trkpt lat="47.654896" lon="7.897368">
        <ele>406.224791</ele>
        <time>2021-11-13T10:19:21.920Z</time>
      </trkpt>
      <trkpt lat="47.655127" lon="7.897245">
        <ele>406.695290</ele>
        <time>2021-11-13T10:19:29.121Z</time>
      </trkpt>
      <trkpt lat="47.655258" lon="7.897190">
        <ele>407.151476</ele>
        <time>2021-11-13T10:19:33.320Z</time>
      </trkpt>
      <trkpt lat="47.655534" lon="7.897054">
        <ele>408.699816</ele>
        <time>2021-11-13T10:19:42.803Z</time>
      </trkpt>
      <trkpt lat="47.655905" lon="7.896871">
        <ele>410.781312</ele>
        <time>2021-11-13T10:19:56.504Z</time>
      </trkpt>
      <trkpt lat="47.655962" lon="7.896840">
        <ele>411.104520</ele>
        <time>2021-11-13T10:19:58.549Z</time>
      </trkpt>
      <trkpt lat="47.656232" lon="7.896661">
        <ele>412.678908</ele>
        <time>2021-11-13T10:20:09.872Z</time>
      </trkpt>
      <trkpt lat="47.656445" lon="7.896601">
        <ele>413.833219</ele>
        <time>2021-11-13T10:20:19.108Z</time>
      </trkpt>
      <trkpt lat="47.657005" lon="7.896393">
        <ele>416.958899</ele>
        <time>2021-11-13T10:20:40.570Z</time>
      </trkpt>
      <trkpt lat="47.657119" lon="7.896295">
        <ele>417.735924</ele>
        <time>2021-11-13T10:20:46.837Z</time>
      </trkpt>
      <trkpt lat="47.657456" lon="7.896121">
        <ele>419.840511</ele>
        <time>2021-11-13T10:21:00.407Z</time>
      </trkpt>
      <trkpt lat="47.657456" lon="7.896121">
        <ele>419.840511</ele>
        <time>2021-11-13T10:21:00.523Z</time>
      </trkpt>
      <trkpt lat="47.657748" lon="7.896067">
        <ele>421.576194</ele>
        <time>2021-11-13T10:21:11.223Z</time>
      </trkpt>
      <trkpt lat="47.657781" lon="7.896061">
        <ele>421.772300</ele>
        <time>2021-11-13T10:21:13.278Z</time>
      </trkpt>
      <trkpt lat="47.658638" lon="7.896213">
        <ele>426.863291</ele>
        <time>2021-11-13T10:21:46.224Z</time>
      </trkpt>
      <trkpt lat="47.659406" lon="7.896493">
        <ele>430.793595</ele>
        <time>2021-11-13T10:22:13.666Z</time>
      </trkpt>
      <trkpt lat="47.659607" lon="7.896559">
        <ele>431.809500</ele>
        <time>2021-11-13T10:22:20.161Z</time>
      </trkpt>
      <trkpt lat="47.659850" lon="7.896634">
        <ele>433.034345</ele>
        <time>2021-11-13T10:22:28.302Z</time>
      </trkpt>
      <trkpt lat="47.659874" lon="7.896641">
        <ele>433.155049</ele>
        <time>2021-11-13T10:22:29.191Z</time>
      </trkpt>
      <trkpt lat="47.660062" lon="7.896690">
        <ele>434.097018</ele>
        <time>2021-11-13T10:22:35.390Z</time>
      </trkpt>
      <trkpt lat="47.660302" lon="7.896626">
        <ele>435.300371</ele>
        <time>2021-11-13T10:22:44.254Z</time>
      </trkpt>
      <trkpt lat="47.660659" lon="7.896640">
        <ele>437.364570</ele>
        <time>2021-11-13T10:22:56.897Z</time>
      </trkpt>
      <trkpt lat="47.660919" lon="7.896752">
        <ele>439.049938</ele>
        <time>2021-11-13T10:23:06.352Z</time>
      </trkpt>
      <trkpt lat="47.661037" lon="7.896802">
        <ele>439.813872</ele>
        <time>2021-11-13T10:23:10.539Z</time>
      </trkpt>
      <trkpt lat="47.661482" lon="7.896865">
        <ele>442.596767</ele>
        <time>2021-11-13T10:23:27.137Z</time>
      </trkpt>
      <trkpt lat="47.661952" lon="7.896865">
        <ele>445.522734</ele>
        <time>2021-11-13T10:23:47.133Z</time>
      </trkpt>
      <trkpt lat="47.662676" lon="7.896856">
        <ele>451.572438</ele>
        <time>2021-11-13T10:24:21.390Z</time>
      </trkpt>
      <trkpt lat="47.663221" lon="7.897245">
        <ele>457.322604</ele>
        <time>2021-11-13T10:24:54.504Z</time>
      </trkpt>
      <trkpt lat="47.663644" lon="7.897453">
        <ele>461.559794</ele>
        <time>2021-11-13T10:25:19.293Z</time>
      </trkpt>
      <trkpt lat="47.664397" lon="7.897764">
        <ele>469.228447</ele>
        <time>2021-11-13T10:26:03.837Z</time>
      </trkpt>
      <trkpt lat="47.664672" lon="7.897813">
        <ele>471.992431</ele>
        <time>2021-11-13T10:26:19.922Z</time>
      </trkpt>
      <trkpt lat="47.665403" lon="7.897994">
        <ele>479.387994</ele>
        <time>2021-11-13T10:27:01.689Z</time>
      </trkpt>
      <trkpt lat="47.665969" lon="7.898287">
        <ele>484.128280</ele>
        <time>2021-11-13T10:27:32.158Z</time>
      </trkpt>
      <trkpt lat="47.667110" lon="7.899108">
        <ele>491.889391</ele>
        <time>2021-11-13T10:28:20.568Z</time>
      </trkpt>
      <trkpt lat="47.667501" lon="7.899157">
        <ele>493.973317</ele>
        <time>2021-11-13T10:28:30.667Z</time>
      </trkpt>
      <trkpt lat="47.668321" lon="7.899033">
        <ele>497.589711</ele>
        <time>2021-11-13T10:28:54.003Z</time>
      </trkpt>
      <trkpt lat="47.668572" lon="7.899060">
        <ele>498.693870</ele>
        <time>2021-11-13T10:29:02.448Z</time>
      </trkpt>
      <trkpt lat="47.669187" lon="7.899170">
        <ele>501.704998</ele>
        <time>2021-11-13T10:29:24.340Z</time>
      </trkpt>
      <trkpt lat="47.669542" lon="7.899299">
        <ele>504.646472</ele>
        <time>2021-11-13T10:29:39.503Z</time>
      </trkpt>
      <trkpt lat="47.669903" lon="7.899518">
        <ele>507.785029</ele>
        <time>2021-11-13T10:29:57.439Z</time>
      </trkpt>
      <trkpt lat="47.671134" lon="7.899826">
        <ele>517.363632</ele>
        <time>2021-11-13T10:31:03.647Z</time>
      </trkpt>
      <trkpt lat="47.671397" lon="7.899850">
        <ele>519.051504</ele>
        <time>2021-11-13T10:31:15.445Z</time>
      </trkpt>
      <trkpt lat="47.671906" lon="7.899725">
        <ele>522.356277</ele>
        <time>2021-11-13T10:31:36.562Z</time>
      </trkpt>
      <trkpt lat="47.672365" lon="7.899567">
        <ele>525.374436</ele>
        <time>2021-11-13T10:31:53.359Z</time>
      </trkpt>
      <trkpt lat="47.672516" lon="7.899404">
        <ele>526.570225</ele>
        <time>2021-11-13T10:31:59.555Z</time>
      </trkpt>
      <trkpt lat="47.672822" lon="7.898768">
        <ele>528.162342</ele>
        <time>2021-11-13T10:32:14.734Z</time>
      </trkpt>
      <trkpt lat="47.673028" lon="7.898168">
        <ele>529.274845</ele>
        <time>2021-11-13T10:32:26.178Z</time>
      </trkpt>
      <trkpt lat="47.673717" lon="7.898148">
        <ele>530.965373</ele>
        <time>2021-11-13T10:32:40.613Z</time>
      </trkpt>
      <trkpt lat="47.674484" lon="7.897822">
        <ele>532.986434</ele>
        <time>2021-11-13T10:32:56.848Z</time>
      </trkpt>
      <trkpt lat="47.674787" lon="7.897778">
        <ele>533.766175</ele>
        <time>2021-11-13T10:33:03.800Z</time>
      </trkpt>
      <trkpt lat="47.675358" lon="7.897451">
        <ele>535.333574</ele>
        <time>2021-11-13T10:33:20.309Z</time>
      </trkpt>
      <trkpt lat="47.675674" lon="7.897272">
        <ele>536.347019</ele>
        <time>2021-11-13T10:33:30.363Z</time>
      </trkpt>
      <trkpt lat="47.675794" lon="7.897188">
        <ele>537.093814</ele>
        <time>2021-11-13T10:33:33.724Z</time>
      </trkpt>
      <trkpt lat="47.675954" lon="7.897092">
        <ele>538.065234</ele>
        <time>2021-11-13T10:33:40.168Z</time>
      </trkpt>
      <trkpt lat="47.676231" lon="7.897086">
        <ele>539.624729</ele>
        <time>2021-11-13T10:33:49.275Z</time>
      </trkpt>
      <trkpt lat="47.676805" lon="7.897406">
        <ele>543.076117</ele>
        <time>2021-11-13T10:34:12.701Z</time>
      </trkpt>
      <trkpt lat="47.677458" lon="7.897546">
        <ele>546.912155</ele>
        <time>2021-11-13T10:34:41.691Z</time>
      </trkpt>
      <trkpt lat="47.679793" lon="7.897757">
        <ele>560.762491</ele>
        <time>2021-11-13T10:36:20.166Z</time>
      </trkpt>
      <trkpt lat="47.680372" lon="7.898128">
        <ele>563.045133</ele>
        <time>2021-11-13T10:36:34.396Z</time>
      </trkpt>
      <trkpt lat="47.680508" lon="7.898151">
        <ele>563.540621</ele>
        <time>2021-11-13T10:36:39.534Z</time>
      </trkpt>
      <trkpt lat="47.680502" lon="7.898044">
        <ele>563.802299</ele>
        <time>2021-11-13T10:36:40.257Z</time>
      </trkpt>
      <trkpt lat="47.680377" lon="7.897827">
        <ele>564.498317</ele>
        <time>2021-11-13T10:36:44.146Z</time>
      </trkpt>
      <trkpt lat="47.679925" lon="7.897342">
        <ele>566.294407</ele>
        <time>2021-11-13T10:36:55.025Z</time>
      </trkpt>
      <trkpt lat="47.679843" lon="7.897271">
        <ele>566.589592</ele>
        <time>2021-11-13T10:36:56.107Z</time>
      </trkpt>
      <trkpt lat="47.679763" lon="7.897189">
        <ele>566.891883</ele>
        <time>2021-11-13T10:36:59.186Z</time>
      </trkpt>
      <trkpt lat="47.679561" lon="7.897143">
        <ele>567.527436</ele>
        <time>2021-11-13T10:37:02.458Z</time>
      </trkpt>
      <trkpt lat="47.679301" lon="7.896944">
        <ele>568.437074</ele>
        <time>2021-11-13T10:37:09.040Z</time>
      </trkpt>
      <trkpt lat="47.678958" lon="7.896803">
        <ele>569.543895</ele>
        <time>2021-11-13T10:37:18.996Z</time>
      </trkpt>
      <trkpt lat="47.678786" lon="7.896563">
        <ele>570.277839</ele>
        <time>2021-11-13T10:37:27.327Z</time>
      </trkpt>
      <trkpt lat="47.678642" lon="7.896118">
        <ele>573.683508</ele>
        <time>2021-11-13T10:37:42.242Z</time>
      </trkpt>
      <trkpt lat="47.678299" lon="7.896155">
        <ele>578.005642</ele>
        <time>2021-11-13T10:38:02.367Z</time>
      </trkpt>
      <trkpt lat="47.678138" lon="7.896059">
        <ele>580.186044</ele>
        <time>2021-11-13T10:38:13.643Z</time>
      </trkpt>
      <trkpt lat="47.677732" lon="7.895605">
        <ele>586.573125</ele>
        <time>2021-11-13T10:38:50.583Z</time>
      </trkpt>
      <trkpt lat="47.677297" lon="7.895390">
        <ele>592.334922</ele>
        <time>2021-11-13T10:39:27.339Z</time>
      </trkpt>
      <trkpt lat="47.677176" lon="7.895209">
        <ele>594.250111</ele>
        <time>2021-11-13T10:39:41.999Z</time>
      </trkpt>
      <trkpt lat="47.677119" lon="7.894496">
        <ele>599.236755</ele>
        <time>2021-11-13T10:40:19.769Z</time>
      </trkpt>
      <trkpt lat="47.676882" lon="7.894271">
        <ele>602.138155</ele>
        <time>2021-11-13T10:40:38.595Z</time>
      </trkpt>
      <trkpt lat="47.676720" lon="7.894017">
        <ele>604.568018</ele>
        <time>2021-11-13T10:40:55.047Z</time>
      </trkpt>
      <trkpt lat="47.676583" lon="7.893945">
        <ele>606.067026</ele>
        <time>2021-11-13T10:40:58.508Z</time>
      </trkpt>
      <trkpt lat="47.676282" lon="7.893947">
        <ele>609.171845</ele>
        <time>2021-11-13T10:41:11.985Z</time>
      </trkpt>
      <trkpt lat="47.676115" lon="7.894156">
        <ele>611.424472</ele>
        <time>2021-11-13T10:41:17.972Z</time>
      </trkpt>
      <trkpt lat="47.676071" lon="7.894188">
        <ele>611.625506</ele>
        <time>2021-11-13T10:41:22.093Z</time>
      </trkpt>
      <trkpt lat="47.675990" lon="7.894385">
        <ele>611.196894</ele>
        <time>2021-11-13T10:41:23.578Z</time>
      </trkpt>
      <trkpt lat="47.675704" lon="7.894768">
        <ele>610.134890</ele>
        <time>2021-11-13T10:41:28.442Z</time>
      </trkpt>
      <trkpt lat="47.675463" lon="7.894884">
        <ele>609.436238</ele>
        <time>2021-11-13T10:41:31.319Z</time>
      </trkpt>
      <trkpt lat="47.675223" lon="7.894888">
        <ele>608.774334</ele>
        <time>2021-11-13T10:41:33.544Z</time>
      </trkpt>
      <trkpt lat="47.674107" lon="7.894609">
        <ele>605.915442</ele>
        <time>2021-11-13T10:41:43.933Z</time>
      </trkpt>
      <trkpt lat="47.673727" lon="7.894339">
        <ele>605.036644</ele>
        <time>2021-11-13T10:41:48.294Z</time>
      </trkpt>
      <trkpt lat="47.673635" lon="7.894176">
        <ele>604.737875</ele>
        <time>2021-11-13T10:41:49.727Z</time>
      </trkpt>
      <trkpt lat="47.673604" lon="7.894092">
        <ele>604.603319</ele>
        <time>2021-11-13T10:41:51.702Z</time>
      </trkpt>
      <trkpt lat="47.673537" lon="7.893661">
        <ele>603.981958</ele>
        <time>2021-11-13T10:41:55.089Z</time>
      </trkpt>
      <trkpt lat="47.673625" lon="7.893258">
        <ele>603.386832</ele>
        <time>2021-11-13T10:42:00.375Z</time>
      </trkpt>
      <trkpt lat="47.674782" lon="7.891447">
        <ele>603.437784</ele>
        <time>2021-11-13T10:42:34.643Z</time>
      </trkpt>
      <trkpt lat="47.675215" lon="7.890749">
        <ele>601.592050</ele>
        <time>2021-11-13T10:42:41.663Z</time>
      </trkpt>
      <trkpt lat="47.675245" lon="7.890678">
        <ele>601.254627</ele>
        <time>2021-11-13T10:42:42.148Z</time>
      </trkpt>
      <trkpt lat="47.675251" lon="7.890415">
        <ele>600.195318</ele>
        <time>2021-11-13T10:42:43.820Z</time>
      </trkpt>
      <trkpt lat="47.675155" lon="7.890206">
        <ele>599.176875</ele>
        <time>2021-11-13T10:42:45.404Z</time>
      </trkpt>
      <trkpt lat="47.675009" lon="7.890144">
        <ele>598.269041</ele>
        <time>2021-11-13T10:42:46.770Z</time>
      </trkpt>
      <trkpt lat="47.674908" lon="7.890178">
        <ele>597.649901</ele>
        <time>2021-11-13T10:42:47.826Z</time>
      </trkpt>
      <trkpt lat="47.674709" lon="7.890290">
        <ele>596.377625</ele>
        <time>2021-11-13T10:42:49.678Z</time>
      </trkpt>
      <trkpt lat="47.674471" lon="7.890481">
        <ele>594.760303</ele>
        <time>2021-11-13T10:42:52.079Z</time>
      </trkpt>
      <trkpt lat="47.674236" lon="7.890668">
        <ele>593.166403</ele>
        <time>2021-11-13T10:42:54.471Z</time>
      </trkpt>
      <trkpt lat="47.674156" lon="7.890736">
        <ele>592.543848</ele>
        <time>2021-11-13T10:42:55.250Z</time>
      </trkpt>
      <trkpt lat="47.674041" lon="7.890821">
        <ele>591.446717</ele>
        <time>2021-11-13T10:42:56.355Z</time>
      </trkpt>
      <trkpt lat="47.673804" lon="7.890907">
        <ele>589.362965</ele>
        <time>2021-11-13T10:42:58.499Z</time>
      </trkpt>
      <trkpt lat="47.673625" lon="7.890902">
        <ele>587.833865</ele>
        <time>2021-11-13T10:43:00.067Z</time>
      </trkpt>
      <trkpt lat="47.673525" lon="7.890900">
        <ele>586.979693</ele>
        <time>2021-11-13T10:43:00.951Z</time>
      </trkpt>
      <trkpt lat="47.673343" lon="7.890875">
        <ele>585.418605</ele>
        <time>2021-11-13T10:43:02.507Z</time>
      </trkpt>
      <trkpt lat="47.672857" lon="7.890811">
        <ele>581.251417</ele>
        <time>2021-11-13T10:43:06.814Z</time>
      </trkpt>
      <trkpt lat="47.672648" lon="7.890724">
        <ele>579.397560</ele>
        <time>2021-11-13T10:43:08.693Z</time>
      </trkpt>
      <trkpt lat="47.672497" lon="7.890528">
        <ele>577.684687</ele>
        <time>2021-11-13T10:43:10.498Z</time>
      </trkpt>
      <trkpt lat="47.671635" lon="7.888951">
        <ele>566.766074</ele>
        <time>2021-11-13T10:43:22.615Z</time>
      </trkpt>
      <trkpt lat="47.671576" lon="7.888763">
        <ele>565.652905</ele>
        <time>2021-11-13T10:43:23.860Z</time>
      </trkpt>
      <trkpt lat="47.671514" lon="7.888569">
        <ele>564.500420</ele>
        <time>2021-11-13T10:43:25.127Z</time>
      </trkpt>
      <trkpt lat="47.670667" lon="7.887599">
        <ele>555.637512</ele>
        <time>2021-11-13T10:43:34.517Z</time>
      </trkpt>
      <trkpt lat="47.670488" lon="7.887497">
        <ele>554.036778</ele>
        <time>2021-11-13T10:43:36.202Z</time>
      </trkpt>
      <trkpt lat="47.670288" lon="7.887483">
        <ele>552.365107</ele>
        <time>2021-11-13T10:43:37.935Z</time>
      </trkpt>
      <trkpt lat="47.670192" lon="7.887398">
        <ele>551.431940</ele>
        <time>2021-11-13T10:43:38.920Z</time>
      </trkpt>
      <trkpt lat="47.670075" lon="7.886999">
        <ele>548.985203</ele>
        <time>2021-11-13T10:43:41.509Z</time>
      </trkpt>
      <trkpt lat="47.669951" lon="7.886802">
        <ele>547.583039</ele>
        <time>2021-11-13T10:43:43.108Z</time>
      </trkpt>
      <trkpt lat="47.669541" lon="7.886582">
        <ele>544.636130</ele>
        <time>2021-11-13T10:43:46.966Z</time>
      </trkpt>
      <trkpt lat="47.668960" lon="7.886016">
        <ele>539.938975</ele>
        <time>2021-11-13T10:43:53.179Z</time>
      </trkpt>
      <trkpt lat="47.668622" lon="7.885813">
        <ele>537.474358</ele>
        <time>2021-11-13T10:43:56.523Z</time>
      </trkpt>
      <trkpt lat="47.668255" lon="7.885409">
        <ele>535.340676</ele>
        <time>2021-11-13T10:44:00.846Z</time>
      </trkpt>
      <trkpt lat="47.667878" lon="7.885334">
        <ele>534.380909</ele>
        <time>2021-11-13T10:44:04.597Z</time>
      </trkpt>
      <trkpt lat="47.667768" lon="7.885265">
        <ele>534.079603</ele>
        <time>2021-11-13T10:44:05.829Z</time>
      </trkpt>
      <trkpt lat="47.667632" lon="7.885067">
        <ele>533.599022</ele>
        <time>2021-11-13T10:44:07.821Z</time>
      </trkpt>
      <trkpt lat="47.667555" lon="7.884878">
        <ele>533.223669</ele>
        <time>2021-11-13T10:44:09.464Z</time>
      </trkpt>
      <trkpt lat="47.667435" lon="7.884118">
        <ele>531.897223</ele>
        <time>2021-11-13T10:44:15.724Z</time>
      </trkpt>
      <trkpt lat="47.667179" lon="7.883237">
        <ele>531.231797</ele>
        <time>2021-11-13T10:44:24.592Z</time>
      </trkpt>
      <trkpt lat="47.667040" lon="7.882492">
        <ele>531.066478</ele>
        <time>2021-11-13T10:44:32.400Z</time>
      </trkpt>
      <trkpt lat="47.667087" lon="7.881969">
        <ele>530.953643</ele>
        <time>2021-11-13T10:44:37.483Z</time>
      </trkpt>
      <trkpt lat="47.667448" lon="7.880196">
        <ele>530.246443</ele>
        <time>2021-11-13T10:44:54.391Z</time>
      </trkpt>
      <trkpt lat="47.667461" lon="7.880098">
        <ele>530.197628</ele>
        <time>2021-11-13T10:44:55.183Z</time>
      </trkpt>
      <trkpt lat="47.667457" lon="7.880001">
        <ele>530.150134</ele>
        <time>2021-11-13T10:44:56.057Z</time>
      </trkpt>
      <trkpt lat="47.667446" lon="7.879912">
        <ele>530.105912</ele>
        <time>2021-11-13T10:44:56.789Z</time>
      </trkpt>
      <trkpt lat="47.667333" lon="7.879752">
        <ele>529.992601</ele>
        <time>2021-11-13T10:44:58.765Z</time>
      </trkpt>
      <trkpt lat="47.667219" lon="7.879671">
        <ele>529.900887</ele>
        <time>2021-11-13T10:45:00.316Z</time>
      </trkpt>
      <trkpt lat="47.667113" lon="7.879712">
        <ele>529.821395</ele>
        <time>2021-11-13T10:45:01.607Z</time>
      </trkpt>
      <trkpt lat="47.666773" lon="7.879844">
        <ele>529.566360</ele>
        <time>2021-11-13T10:45:05.940Z</time>
      </trkpt>
      <trkpt lat="47.666529" lon="7.879633">
        <ele>529.158815</ele>
        <time>2021-11-13T10:45:09.399Z</time>
      </trkpt>
      <trkpt lat="47.666343" lon="7.879182">
        <ele>528.506067</ele>
        <time>2021-11-13T10:45:13.628Z</time>
      </trkpt>
      <trkpt lat="47.666077" lon="7.879049">
        <ele>527.991651</ele>
        <time>2021-11-13T10:45:16.896Z</time>
      </trkpt>
      <trkpt lat="47.665717" lon="7.878973">
        <ele>527.325215</ele>
        <time>2021-11-13T10:45:20.939Z</time>
      </trkpt>
      <trkpt lat="47.665474" lon="7.878934">
        <ele>526.877255</ele>
        <time>2021-11-13T10:45:23.625Z</time>
      </trkpt>
      <trkpt lat="47.665177" lon="7.878293">
        <ele>525.527352</ele>
        <time>2021-11-13T10:45:29.127Z</time>
      </trkpt>
      <trkpt lat="47.664810" lon="7.878152">
        <ele>523.868924</ele>
        <time>2021-11-13T10:45:32.917Z</time>
      </trkpt>
      <trkpt lat="47.664394" lon="7.877271">
        <ele>520.698797</ele>
        <time>2021-11-13T10:45:39.863Z</time>
      </trkpt>
      <trkpt lat="47.664340" lon="7.876839">
        <ele>519.404252</ele>
        <time>2021-11-13T10:45:42.579Z</time>
      </trkpt>
      <trkpt lat="47.664368" lon="7.876514">
        <ele>518.438898</ele>
        <time>2021-11-13T10:45:44.633Z</time>
      </trkpt>
      <trkpt lat="47.664567" lon="7.876066">
        <ele>516.854011</ele>
        <time>2021-11-13T10:45:47.977Z</time>
      </trkpt>
      <trkpt lat="47.664636" lon="7.875782">
        <ele>515.962245</ele>
        <time>2021-11-13T10:45:49.838Z</time>
      </trkpt>
      <trkpt lat="47.664573" lon="7.875381">
        <ele>514.746013</ele>
        <time>2021-11-13T10:45:52.478Z</time>
      </trkpt>
      <trkpt lat="47.664355" lon="7.875148">
        <ele>513.567979</ele>
        <time>2021-11-13T10:45:55.092Z</time>
      </trkpt>
      <trkpt lat="47.664237" lon="7.875062">
        <ele>512.991476</ele>
        <time>2021-11-13T10:45:56.306Z</time>
      </trkpt>
      <trkpt lat="47.664191" lon="7.875019">
        <ele>512.753079</ele>
        <time>2021-11-13T10:45:56.826Z</time>
      </trkpt>
      <trkpt lat="47.664085" lon="7.874833">
        <ele>512.033387</ele>
        <time>2021-11-13T10:45:58.546Z</time>
      </trkpt>
      <trkpt lat="47.663999" lon="7.874505">
        <ele>510.993734</ele>
        <time>2021-11-13T10:46:00.855Z</time>
      </trkpt>
      <trkpt lat="47.664019" lon="7.873861">
        <ele>510.019853</ele>
        <time>2021-11-13T10:46:05.499Z</time>
      </trkpt>
      <trkpt lat="47.663924" lon="7.872838">
        <ele>509.069991</ele>
        <time>2021-11-13T10:46:13.434Z</time>
      </trkpt>
      <trkpt lat="47.663991" lon="7.872591">
        <ele>508.825065</ele>
        <time>2021-11-13T10:46:16.103Z</time>
      </trkpt>
      <trkpt lat="47.664011" lon="7.872518">
        <ele>508.752576</ele>
        <time>2021-11-13T10:46:16.879Z</time>
      </trkpt>
      <trkpt lat="47.664406" lon="7.872035">
        <ele>508.053720</ele>
        <time>2021-11-13T10:46:23.990Z</time>
      </trkpt>
      <trkpt lat="47.664519" lon="7.871876">
        <ele>507.815370</ele>
        <time>2021-11-13T10:46:26.020Z</time>
      </trkpt>
      <trkpt lat="47.664596" lon="7.871769">
        <ele>507.645415</ele>
        <time>2021-11-13T10:46:27.405Z</time>
      </trkpt>
      <trkpt lat="47.664782" lon="7.871262">
        <ele>507.018804</ele>
        <time>2021-11-13T10:46:32.234Z</time>
      </trkpt>
      <trkpt lat="47.664834" lon="7.871018">
        <ele>506.741040</ele>
        <time>2021-11-13T10:46:34.281Z</time>
      </trkpt>
      <trkpt lat="47.664859" lon="7.870699">
        <ele>506.392483</ele>
        <time>2021-11-13T10:46:36.870Z</time>
      </trkpt>
      <trkpt lat="47.664866" lon="7.870622">
        <ele>506.308154</ele>
        <time>2021-11-13T10:46:37.489Z</time>
      </trkpt>
      <trkpt lat="47.664905" lon="7.870231">
        <ele>505.879161</ele>
        <time>2021-11-13T10:46:40.303Z</time>
      </trkpt>
      <trkpt lat="47.665036" lon="7.869565">
        <ele>505.126133</ele>
        <time>2021-11-13T10:46:45.283Z</time>
      </trkpt>
      <trkpt lat="47.665035" lon="7.869390">
        <ele>504.801544</ele>
        <time>2021-11-13T10:46:46.517Z</time>
      </trkpt>
      <trkpt lat="47.664961" lon="7.869182">
        <ele>504.315920</ele>
        <time>2021-11-13T10:46:48.109Z</time>
      </trkpt>
      <trkpt lat="47.664909" lon="7.869051">
        <ele>504.002006</ele>
        <time>2021-11-13T10:46:49.182Z</time>
      </trkpt>
      <trkpt lat="47.664880" lon="7.868822">
        <ele>503.520976</ele>
        <time>2021-11-13T10:46:50.790Z</time>
      </trkpt>
      <trkpt lat="47.664873" lon="7.868769">
        <ele>503.409479</ele>
        <time>2021-11-13T10:46:51.128Z</time>
      </trkpt>
      <trkpt lat="47.664903" lon="7.868588">
        <ele>503.024676</ele>
        <time>2021-11-13T10:46:52.408Z</time>
      </trkpt>
      <trkpt lat="47.664934" lon="7.868452">
        <ele>502.728274</ele>
        <time>2021-11-13T10:46:53.370Z</time>
      </trkpt>
      <trkpt lat="47.664936" lon="7.868313">
        <ele>502.441259</ele>
        <time>2021-11-13T10:46:54.340Z</time>
      </trkpt>
      <trkpt lat="47.664918" lon="7.868221">
        <ele>502.243483</ele>
        <time>2021-11-13T10:46:54.942Z</time>
      </trkpt>
      <trkpt lat="47.664596" lon="7.867700">
        <ele>500.783675</ele>
        <time>2021-11-13T10:46:59.786Z</time>
      </trkpt>
      <trkpt lat="47.664003" lon="7.866254">
        <ele>497.533735</ele>
        <time>2021-11-13T10:47:11.542Z</time>
      </trkpt>
      <trkpt lat="47.663923" lon="7.866058">
        <ele>497.111382</ele>
        <time>2021-11-13T10:47:13.114Z</time>
      </trkpt>
      <trkpt lat="47.663892" lon="7.865949">
        <ele>496.893336</ele>
        <time>2021-11-13T10:47:13.958Z</time>
      </trkpt>
      <trkpt lat="47.663839" lon="7.865713">
        <ele>496.434882</ele>
        <time>2021-11-13T10:47:15.740Z</time>
      </trkpt>
      <trkpt lat="47.663827" lon="7.865633">
        <ele>496.283842</ele>
        <time>2021-11-13T10:47:16.326Z</time>
      </trkpt>
      <trkpt lat="47.663827" lon="7.865552">
        <ele>496.134572</ele>
        <time>2021-11-13T10:47:16.859Z</time>
      </trkpt>
      <trkpt lat="47.664002" lon="7.864318">
        <ele>493.887519</ele>
        <time>2021-11-13T10:47:25.902Z</time>
      </trkpt>
      <trkpt lat="47.664021" lon="7.864190">
        <ele>493.668088</ele>
        <time>2021-11-13T10:47:26.821Z</time>
      </trkpt>
      <trkpt lat="47.664000" lon="7.863904">
        <ele>493.186453</ele>
        <time>2021-11-13T10:47:28.814Z</time>
      </trkpt>
      <trkpt lat="47.663792" lon="7.863141">
        <ele>491.808421</ele>
        <time>2021-11-13T10:47:34.809Z</time>
      </trkpt>
      <trkpt lat="47.663642" lon="7.862822">
        <ele>491.157086</ele>
        <time>2021-11-13T10:47:37.554Z</time>
      </trkpt>
      <trkpt lat="47.663518" lon="7.862682">
        <ele>490.769860</ele>
        <time>2021-11-13T10:47:39.217Z</time>
      </trkpt>
      <trkpt lat="47.663351" lon="7.862622">
        <ele>490.342754</ele>
        <time>2021-11-13T10:47:40.997Z</time>
      </trkpt>
      <trkpt lat="47.662974" lon="7.862586">
        <ele>489.217531</ele>
        <time>2021-11-13T10:47:44.888Z</time>
      </trkpt>
      <trkpt lat="47.662849" lon="7.862528">
        <ele>488.813866</ele>
        <time>2021-11-13T10:47:46.351Z</time>
      </trkpt>
      <trkpt lat="47.662642" lon="7.862380">
        <ele>488.105708</ele>
        <time>2021-11-13T10:47:48.730Z</time>
      </trkpt>
      <trkpt lat="47.662548" lon="7.862218">
        <ele>487.661810</ele>
        <time>2021-11-13T10:47:50.280Z</time>
      </trkpt>
      <trkpt lat="47.662380" lon="7.861444">
        <ele>485.973658</ele>
        <time>2021-11-13T10:47:55.845Z</time>
      </trkpt>
      <trkpt lat="47.662419" lon="7.860491">
        <ele>483.889040</ele>
        <time>2021-11-13T10:48:02.225Z</time>
      </trkpt>
      <trkpt lat="47.662565" lon="7.859546">
        <ele>481.555525</ele>
        <time>2021-11-13T10:48:08.545Z</time>
      </trkpt>
      <trkpt lat="47.662575" lon="7.859180">
        <ele>480.673908</ele>
        <time>2021-11-13T10:48:10.938Z</time>
      </trkpt>
      <trkpt lat="47.662535" lon="7.858830">
        <ele>479.819482</ele>
        <time>2021-11-13T10:48:13.292Z</time>
      </trkpt>
      <trkpt lat="47.662377" lon="7.858337">
        <ele>478.505430</ele>
        <time>2021-11-13T10:48:17.017Z</time>
      </trkpt>
      <trkpt lat="47.662143" lon="7.857943">
        <ele>478.213083</ele>
        <time>2021-11-13T10:48:20.754Z</time>
      </trkpt>
      <trkpt lat="47.661786" lon="7.857663">
        <ele>478.221079</ele>
        <time>2021-11-13T10:48:25.412Z</time>
      </trkpt>
      <trkpt lat="47.660679" lon="7.857529">
        <ele>478.243074</ele>
        <time>2021-11-13T10:48:47.614Z</time>
      </trkpt>
      <trkpt lat="47.660400" lon="7.857415">
        <ele>478.148544</ele>
        <time>2021-11-13T10:48:55.046Z</time>
      </trkpt>
      <trkpt lat="47.660191" lon="7.857136">
        <ele>478.051878</ele>
        <time>2021-11-13T10:49:01.101Z</time>
      </trkpt>
      <trkpt lat="47.660145" lon="7.856675">
        <ele>477.943921</ele>
        <time>2021-11-13T10:49:07.522Z</time>
      </trkpt>
      <trkpt lat="47.660170" lon="7.856510">
        <ele>477.904744</ele>
        <time>2021-11-13T10:49:10.489Z</time>
      </trkpt>
      <trkpt lat="47.660254" lon="7.856070">
        <ele>477.798802</ele>
        <time>2021-11-13T10:49:13.949Z</time>
      </trkpt>
      <trkpt lat="47.660340" lon="7.855600">
        <ele>477.685980</ele>
        <time>2021-11-13T10:49:17.383Z</time>
      </trkpt>
      <trkpt lat="47.660419" lon="7.854745">
        <ele>474.612491</ele>
        <time>2021-11-13T10:49:23.075Z</time>
      </trkpt>
      <trkpt lat="47.660428" lon="7.854469">
        <ele>473.221953</ele>
        <time>2021-11-13T10:49:24.941Z</time>
      </trkpt>
      <trkpt lat="47.660442" lon="7.854217">
        <ele>471.949510</ele>
        <time>2021-11-13T10:49:26.434Z</time>
      </trkpt>
      <trkpt lat="47.660433" lon="7.853291">
        <ele>467.289128</ele>
        <time>2021-11-13T10:49:31.904Z</time>
      </trkpt>
      <trkpt lat="47.660385" lon="7.852986">
        <ele>465.712937</ele>
        <time>2021-11-13T10:49:33.712Z</time>
      </trkpt>
      <trkpt lat="47.660222" lon="7.852517">
        <ele>462.543396</ele>
        <time>2021-11-13T10:49:36.738Z</time>
      </trkpt>
      <trkpt lat="47.659858" lon="7.852074">
        <ele>457.426627</ele>
        <time>2021-11-13T10:49:40.732Z</time>
      </trkpt>
      <trkpt lat="47.659772" lon="7.851936">
        <ele>456.049975</ele>
        <time>2021-11-13T10:49:41.816Z</time>
      </trkpt>
      <trkpt lat="47.659737" lon="7.851695">
        <ele>454.244755</ele>
        <time>2021-11-13T10:49:43.222Z</time>
      </trkpt>
      <trkpt lat="47.659825" lon="7.851429">
        <ele>452.074763</ele>
        <time>2021-11-13T10:49:44.936Z</time>
      </trkpt>
      <trkpt lat="47.659865" lon="7.851365">
        <ele>451.435460</ele>
        <time>2021-11-13T10:49:45.424Z</time>
      </trkpt>
      <trkpt lat="47.659889" lon="7.851325">
        <ele>451.043209</ele>
        <time>2021-11-13T10:49:45.733Z</time>
      </trkpt>
      <trkpt lat="47.659980" lon="7.851203">
        <ele>449.710271</ele>
        <time>2021-11-13T10:49:46.794Z</time>
      </trkpt>
      <trkpt lat="47.660133" lon="7.850964">
        <ele>447.295897</ele>
        <time>2021-11-13T10:49:48.677Z</time>
      </trkpt>
      <trkpt lat="47.660423" lon="7.850559">
        <ele>443.309339</ele>
        <time>2021-11-13T10:49:52.079Z</time>
      </trkpt>
      <trkpt lat="47.660630" lon="7.850158">
        <ele>440.369361</ele>
        <time>2021-11-13T10:49:55.008Z</time>
      </trkpt>
      <trkpt lat="47.660732" lon="7.849851">
        <ele>438.377372</ele>
        <time>2021-11-13T10:49:57.036Z</time>
      </trkpt>
      <trkpt lat="47.660953" lon="7.848671">
        <ele>431.250373</ele>
        <time>2021-11-13T10:50:04.254Z</time>
      </trkpt>
      <trkpt lat="47.660987" lon="7.848340">
        <ele>429.302004</ele>
        <time>2021-11-13T10:50:06.279Z</time>
      </trkpt>
      <trkpt lat="47.660945" lon="7.847588">
        <ele>426.463397</ele>
        <time>2021-11-13T10:50:10.966Z</time>
      </trkpt>
      <trkpt lat="47.660753" lon="7.846503">
        <ele>422.359015</ele>
        <time>2021-11-13T10:50:18.210Z</time>
      </trkpt>
      <trkpt lat="47.660583" lon="7.846064">
        <ele>420.506301</ele>
        <time>2021-11-13T10:50:21.470Z</time>
      </trkpt>
      <trkpt lat="47.660091" lon="7.845247">
        <ele>415.388960</ele>
        <time>2021-11-13T10:50:28.288Z</time>
      </trkpt>
      <trkpt lat="47.659916" lon="7.844774">
        <ele>412.640391</ele>
        <time>2021-11-13T10:50:31.496Z</time>
      </trkpt>
      <trkpt lat="47.659878" lon="7.844501">
        <ele>411.220590</ele>
        <time>2021-11-13T10:50:33.150Z</time>
      </trkpt>
      <trkpt lat="47.659894" lon="7.844140">
        <ele>409.378000</ele>
        <time>2021-11-13T10:50:35.285Z</time>
      </trkpt>
      <trkpt lat="47.659891" lon="7.843834">
        <ele>407.819343</ele>
        <time>2021-11-13T10:50:37.071Z</time>
      </trkpt>
      <trkpt lat="47.659785" lon="7.843448">
        <ele>405.698507</ele>
        <time>2021-11-13T10:50:39.533Z</time>
      </trkpt>
      <trkpt lat="47.659699" lon="7.843338">
        <ele>404.918457</ele>
        <time>2021-11-13T10:50:40.516Z</time>
      </trkpt>
      <trkpt lat="47.659589" lon="7.843262">
        <ele>404.084706</ele>
        <time>2021-11-13T10:50:41.580Z</time>
      </trkpt>
      <trkpt lat="47.659622" lon="7.843157">
        <ele>403.548410</ele>
        <time>2021-11-13T10:50:42.264Z</time>
      </trkpt>
      <trkpt lat="47.659669" lon="7.843010">
        <ele>402.795256</ele>
        <time>2021-11-13T10:50:43.218Z</time>
      </trkpt>
      <trkpt lat="47.659680" lon="7.842973">
        <ele>402.608062</ele>
        <time>2021-11-13T10:50:43.453Z</time>
      </trkpt>
      <trkpt lat="47.660044" lon="7.841843">
        <ele>396.810528</ele>
        <time>2021-11-13T10:50:50.947Z</time>
      </trkpt>
      <trkpt lat="47.660240" lon="7.841356">
        <ele>394.184724</ele>
        <time>2021-11-13T10:50:54.523Z</time>
      </trkpt>
      <trkpt lat="47.660342" lon="7.841019">
        <ele>393.157077</ele>
        <time>2021-11-13T10:50:56.902Z</time>
      </trkpt>
      <trkpt lat="47.660358" lon="7.840966">
        <ele>393.095320</ele>
        <time>2021-11-13T10:50:57.304Z</time>
      </trkpt>
      <trkpt lat="47.660427" lon="7.840766">
        <ele>392.856383</ele>
        <time>2021-11-13T10:50:58.970Z</time>
      </trkpt>
      <trkpt lat="47.660496" lon="7.840519">
        <ele>392.572052</ele>
        <time>2021-11-13T10:51:01.014Z</time>
      </trkpt>
      <trkpt lat="47.660645" lon="7.840066">
        <ele>392.036007</ele>
        <time>2021-11-13T10:51:05.087Z</time>
      </trkpt>
      <trkpt lat="47.660970" lon="7.839136">
        <ele>390.921956</ele>
        <time>2021-11-13T10:51:14.586Z</time>
      </trkpt>
      <trkpt lat="47.660988" lon="7.839085">
        <ele>390.860733</ele>
        <time>2021-11-13T10:51:15.133Z</time>
      </trkpt>
      <trkpt lat="47.660997" lon="7.839060">
        <ele>390.830592</ele>
        <time>2021-11-13T10:51:15.380Z</time>
      </trkpt>
      <trkpt lat="47.661006" lon="7.839036">
        <ele>390.801384</ele>
        <time>2021-11-13T10:51:15.615Z</time>
      </trkpt>
      <trkpt lat="47.661097" lon="7.838798">
        <ele>390.513859</ele>
        <time>2021-11-13T10:51:18.082Z</time>
      </trkpt>
      <trkpt lat="47.661129" lon="7.838704">
        <ele>390.438358</ele>
        <time>2021-11-13T10:51:18.994Z</time>
      </trkpt>
      <trkpt lat="47.661207" lon="7.838474">
        <ele>390.253765</ele>
        <time>2021-11-13T10:51:21.276Z</time>
      </trkpt>
      <trkpt lat="47.661309" lon="7.838191">
        <ele>390.023680</ele>
        <time>2021-11-13T10:51:24.056Z</time>
      </trkpt>
      <trkpt lat="47.661355" lon="7.838066">
        <ele>389.921573</ele>
        <time>2021-11-13T10:51:25.279Z</time>
      </trkpt>
      <trkpt lat="47.661387" lon="7.838089">
        <ele>389.883734</ele>
        <time>2021-11-13T10:51:25.741Z</time>
      </trkpt>
      <trkpt lat="47.661422" lon="7.838095">
        <ele>389.846235</ele>
        <time>2021-11-13T10:51:26.138Z</time>
      </trkpt>
      <trkpt lat="47.661457" lon="7.838084">
        <ele>389.808159</ele>
        <time>2021-11-13T10:51:26.591Z</time>
      </trkpt>
      <trkpt lat="47.661487" lon="7.838057">
        <ele>389.770821</ele>
        <time>2021-11-13T10:51:27.021Z</time>
      </trkpt>
      <trkpt lat="47.661509" lon="7.838016">
        <ele>389.733244</ele>
        <time>2021-11-13T10:51:27.458Z</time>
      </trkpt>
      <trkpt lat="47.661514" lon="7.837999">
        <ele>389.719946</ele>
        <time>2021-11-13T10:51:27.606Z</time>
      </trkpt>
      <trkpt lat="47.661522" lon="7.837967">
        <ele>389.695479</ele>
        <time>2021-11-13T10:51:27.887Z</time>
      </trkpt>
      <trkpt lat="47.661523" lon="7.837917">
        <ele>389.659621</ele>
        <time>2021-11-13T10:51:28.285Z</time>
      </trkpt>
      <trkpt lat="47.661469" lon="7.837798">
        <ele>389.556763</ele>
        <time>2021-11-13T10:51:29.494Z</time>
      </trkpt>
      <trkpt lat="47.661437" lon="7.837781">
        <ele>389.520591</ele>
        <time>2021-11-13T10:51:29.899Z</time>
      </trkpt>
      <trkpt lat="47.661452" lon="7.837714">
        <ele>389.469979</ele>
        <time>2021-11-13T10:51:30.452Z</time>
      </trkpt>
      <trkpt lat="47.661497" lon="7.837504">
        <ele>389.312009</ele>
        <time>2021-11-13T10:51:32.209Z</time>
      </trkpt>
      <trkpt lat="47.661824" lon="7.836259">
        <ele>388.263768</ele>
        <time>2021-11-13T10:51:42.611Z</time>
      </trkpt>
      <trkpt lat="47.661824" lon="7.836203">
        <ele>388.209272</ele>
        <time>2021-11-13T10:51:43.005Z</time>
      </trkpt>
      <trkpt lat="47.661824" lon="7.836169">
        <ele>388.176185</ele>
        <time>2021-11-13T10:51:43.269Z</time>
      </trkpt>
      <trkpt lat="47.661816" lon="7.836129">
        <ele>388.135580</ele>
        <time>2021-11-13T10:51:43.589Z</time>
      </trkpt>
      <trkpt lat="47.661745" lon="7.835965">
        <ele>387.945857</ele>
        <time>2021-11-13T10:51:45.086Z</time>
      </trkpt>
      <trkpt lat="47.661603" lon="7.835641">
        <ele>387.569678</ele>
        <time>2021-11-13T10:51:48.045Z</time>
      </trkpt>
      <trkpt lat="47.661534" lon="7.835353">
        <ele>387.272207</ele>
        <time>2021-11-13T10:51:50.473Z</time>
      </trkpt>
      <trkpt lat="47.661534" lon="7.835353">
        <ele>387.272207</ele>
        <time>2021-11-13T10:51:50.530Z</time>
      </trkpt>
      <trkpt lat="47.661534" lon="7.835353">
        <ele>387.272207</ele>
        <time>2021-11-13T10:51:50.552Z</time>
      </trkpt>
      <trkpt lat="47.661488" lon="7.835209">
        <ele>387.117111</ele>
        <time>2021-11-13T10:51:51.734Z</time>
      </trkpt>
      <trkpt lat="47.661464" lon="7.835156">
        <ele>387.054960</ele>
        <time>2021-11-13T10:51:52.238Z</time>
      </trkpt>
      <trkpt lat="47.660968" lon="7.834797">
        <ele>386.257674</ele>
        <time>2021-11-13T10:51:58.729Z</time>
      </trkpt>
      <trkpt lat="47.660300" lon="7.834365">
        <ele>385.496443</ele>
        <time>2021-11-13T10:52:07.387Z</time>
      </trkpt>
      <trkpt lat="47.660216" lon="7.834301">
        <ele>385.409555</ele>
        <time>2021-11-13T10:52:08.500Z</time>
      </trkpt>
      <trkpt lat="47.659990" lon="7.834167">
        <ele>385.185600</ele>
        <time>2021-11-13T10:52:11.580Z</time>
      </trkpt>
      <trkpt lat="47.659852" lon="7.834084">
        <ele>385.048577</ele>
        <time>2021-11-13T10:52:13.476Z</time>
      </trkpt>
      <trkpt lat="47.659735" lon="7.834061">
        <ele>384.939965</ele>
        <time>2021-11-13T10:52:14.995Z</time>
      </trkpt>
      <trkpt lat="47.659714" lon="7.834064">
        <ele>384.920550</ele>
        <time>2021-11-13T10:52:15.269Z</time>
      </trkpt>
      <trkpt lat="47.659633" lon="7.834077">
        <ele>384.845573</ele>
        <time>2021-11-13T10:52:16.329Z</time>
      </trkpt>
      <trkpt lat="47.659461" lon="7.834102">
        <ele>384.686528</ele>
        <time>2021-11-13T10:52:18.594Z</time>
      </trkpt>
      <trkpt lat="47.659432" lon="7.834106">
        <ele>384.659725</ele>
        <time>2021-11-13T10:52:18.949Z</time>
      </trkpt>
      <trkpt lat="47.659242" lon="7.834106">
        <ele>384.484872</ele>
        <time>2021-11-13T10:52:21.319Z</time>
      </trkpt>
      <trkpt lat="47.658993" lon="7.834108">
        <ele>384.260607</ele>
        <time>2021-11-13T10:52:24.419Z</time>
      </trkpt>
      <trkpt lat="47.658899" lon="7.834108">
        <ele>384.178464</ele>
        <time>2021-11-13T10:52:25.612Z</time>
      </trkpt>
      <trkpt lat="47.658687" lon="7.834028">
        <ele>383.987317</ele>
        <time>2021-11-13T10:52:28.343Z</time>
      </trkpt>
      <trkpt lat="47.658531" lon="7.833970">
        <ele>383.846786</ele>
        <time>2021-11-13T10:52:30.358Z</time>
      </trkpt>
      <trkpt lat="47.658404" lon="7.833911">
        <ele>383.730500</ele>
        <time>2021-11-13T10:52:32.040Z</time>
      </trkpt>
      <trkpt lat="47.658206" lon="7.833785">
        <ele>383.542253</ele>
        <time>2021-11-13T10:52:34.729Z</time>
      </trkpt>
      <trkpt lat="47.658080" lon="7.833668">
        <ele>383.412385</ele>
        <time>2021-11-13T10:52:36.611Z</time>
      </trkpt>
      <trkpt lat="47.658041" lon="7.833588">
        <ele>383.354259</ele>
        <time>2021-11-13T10:52:37.419Z</time>
      </trkpt>
      <trkpt lat="47.657971" lon="7.833428">
        <ele>383.241963</ele>
        <time>2021-11-13T10:52:39.068Z</time>
      </trkpt>
      <trkpt lat="47.657918" lon="7.833307">
        <ele>383.157008</ele>
        <time>2021-11-13T10:52:40.240Z</time>
      </trkpt>
      <trkpt lat="47.657731" lon="7.832916">
        <ele>382.874755</ele>
        <time>2021-11-13T10:52:44.288Z</time>
      </trkpt>
      <trkpt lat="47.657510" lon="7.832688">
        <ele>382.592431</ele>
        <time>2021-11-13T10:52:47.596Z</time>
      </trkpt>
      <trkpt lat="47.657265" lon="7.832541">
        <ele>382.284442</ele>
        <time>2021-11-13T10:52:50.753Z</time>
      </trkpt>
      <trkpt lat="47.656918" lon="7.832343">
        <ele>381.851165</ele>
        <time>2021-11-13T10:52:55.148Z</time>
      </trkpt>
      <trkpt lat="47.656858" lon="7.832309">
        <ele>381.776313</ele>
        <time>2021-11-13T10:52:55.927Z</time>
      </trkpt>
      <trkpt lat="47.656646" lon="7.832178">
        <ele>381.508676</ele>
        <time>2021-11-13T10:52:58.582Z</time>
      </trkpt>
      <trkpt lat="47.656381" lon="7.832009">
        <ele>381.172523</ele>
        <time>2021-11-13T10:53:02.079Z</time>
      </trkpt>
      <trkpt lat="47.656353" lon="7.831972">
        <ele>381.128834</ele>
        <time>2021-11-13T10:53:02.514Z</time>
      </trkpt>
      <trkpt lat="47.656204" lon="7.831766">
        <ele>380.891530</ele>
        <time>2021-11-13T10:53:05.002Z</time>
      </trkpt>
      <trkpt lat="47.656104" lon="7.831597">
        <ele>380.714931</ele>
        <time>2021-11-13T10:53:06.809Z</time>
      </trkpt>
      <trkpt lat="47.655932" lon="7.831306">
        <ele>380.340016</ele>
        <time>2021-11-13T10:53:09.963Z</time>
      </trkpt>
      <trkpt lat="47.655840" lon="7.831150">
        <ele>380.134998</ele>
        <time>2021-11-13T10:53:11.616Z</time>
      </trkpt>
      <trkpt lat="47.655729" lon="7.830899">
        <ele>379.838102</ele>
        <time>2021-11-13T10:53:13.993Z</time>
      </trkpt>
      <trkpt lat="47.655653" lon="7.830727">
        <ele>379.634703</ele>
        <time>2021-11-13T10:53:15.567Z</time>
      </trkpt>
      <trkpt lat="47.655554" lon="7.830341">
        <ele>379.226297</ele>
        <time>2021-11-13T10:53:18.717Z</time>
      </trkpt>
      <trkpt lat="47.655515" lon="7.830187">
        <ele>379.063616</ele>
        <time>2021-11-13T10:53:19.972Z</time>
      </trkpt>
      <trkpt lat="47.655442" lon="7.830047">
        <ele>378.888554</ele>
        <time>2021-11-13T10:53:21.338Z</time>
      </trkpt>
      <trkpt lat="47.655408" lon="7.830008">
        <ele>378.825481</ele>
        <time>2021-11-13T10:53:21.827Z</time>
      </trkpt>
      <trkpt lat="47.655374" lon="7.829968">
        <ele>378.761799</ele>
        <time>2021-11-13T10:53:22.318Z</time>
      </trkpt>
      <trkpt lat="47.655222" lon="7.829815">
        <ele>378.492218</ele>
        <time>2021-11-13T10:53:24.408Z</time>
      </trkpt>
      <trkpt lat="47.655209" lon="7.829806">
        <ele>378.471161</ele>
        <time>2021-11-13T10:53:24.561Z</time>
      </trkpt>
      <trkpt lat="47.654985" lon="7.829643">
        <ele>378.104963</ele>
        <time>2021-11-13T10:53:27.398Z</time>
      </trkpt>
      <trkpt lat="47.654883" lon="7.829540">
        <ele>377.928397</ele>
        <time>2021-11-13T10:53:28.821Z</time>
      </trkpt>
      <trkpt lat="47.654782" lon="7.829439">
        <ele>377.756351</ele>
        <time>2021-11-13T10:53:30.223Z</time>
      </trkpt>
      <trkpt lat="47.654726" lon="7.829362">
        <ele>377.648513</ele>
        <time>2021-11-13T10:53:31.075Z</time>
      </trkpt>
      <trkpt lat="47.654588" lon="7.829170">
        <ele>377.381310</ele>
        <time>2021-11-13T10:53:33.274Z</time>
      </trkpt>
      <trkpt lat="47.654444" lon="7.828940">
        <ele>377.082482</ele>
        <time>2021-11-13T10:53:35.706Z</time>
      </trkpt>
      <trkpt lat="47.654358" lon="7.828807">
        <ele>376.907032</ele>
        <time>2021-11-13T10:53:37.182Z</time>
      </trkpt>
      <trkpt lat="47.654262" lon="7.828656">
        <ele>376.709433</ele>
        <time>2021-11-13T10:53:38.818Z</time>
      </trkpt>
      <trkpt lat="47.654190" lon="7.828544">
        <ele>376.562097</ele>
        <time>2021-11-13T10:53:40.038Z</time>
      </trkpt>
      <trkpt lat="47.654075" lon="7.828375">
        <ele>376.333484</ele>
        <time>2021-11-13T10:53:41.955Z</time>
      </trkpt>
      <trkpt lat="47.654070" lon="7.828370">
        <ele>376.324967</ele>
        <time>2021-11-13T10:53:42.026Z</time>
      </trkpt>
      <trkpt lat="47.653907" lon="7.828156">
        <ele>376.017546</ele>
        <time>2021-11-13T10:53:44.534Z</time>
      </trkpt>
      <trkpt lat="47.653415" lon="7.827515">
        <ele>375.205934</ele>
        <time>2021-11-13T10:53:52.148Z</time>
      </trkpt>
      <trkpt lat="47.653183" lon="7.827196">
        <ele>374.882428</ele>
        <time>2021-11-13T10:53:55.861Z</time>
      </trkpt>
      <trkpt lat="47.652994" lon="7.826927">
        <ele>374.614568</ele>
        <time>2021-11-13T10:53:58.950Z</time>
      </trkpt>
      <trkpt lat="47.652860" lon="7.826738">
        <ele>374.425475</ele>
        <time>2021-11-13T10:54:01.163Z</time>
      </trkpt>
      <trkpt lat="47.652835" lon="7.826693">
        <ele>374.385278</ele>
        <time>2021-11-13T10:54:01.626Z</time>
      </trkpt>
      <trkpt lat="47.652752" lon="7.826545">
        <ele>374.252568</ele>
        <time>2021-11-13T10:54:03.386Z</time>
      </trkpt>
      <trkpt lat="47.652129" lon="7.825338">
        <ele>373.567081</ele>
        <time>2021-11-13T10:54:16.730Z</time>
      </trkpt>
      <trkpt lat="47.651910" lon="7.824975">
        <ele>373.496795</ele>
        <time>2021-11-13T10:54:20.929Z</time>
      </trkpt>
      <trkpt lat="47.651867" lon="7.824904">
        <ele>373.483024</ele>
        <time>2021-11-13T10:54:21.951Z</time>
      </trkpt>
      <trkpt lat="47.651877" lon="7.824886">
        <ele>373.479658</ele>
        <time>2021-11-13T10:54:22.178Z</time>
      </trkpt>
      <trkpt lat="47.651866" lon="7.824714">
        <ele>373.454738</ele>
        <time>2021-11-13T10:54:23.606Z</time>
      </trkpt>
      <trkpt lat="47.651853" lon="7.824699">
        <ele>373.451213</ele>
        <time>2021-11-13T10:54:23.825Z</time>
      </trkpt>
      <trkpt lat="47.651839" lon="7.824688">
        <ele>373.447821</ele>
        <time>2021-11-13T10:54:24.073Z</time>
      </trkpt>
      <trkpt lat="47.651761" lon="7.824691">
        <ele>373.431115</ele>
        <time>2021-11-13T10:54:25.099Z</time>
      </trkpt>
      <trkpt lat="47.651748" lon="7.824704">
        <ele>373.427759</ele>
        <time>2021-11-13T10:54:25.357Z</time>
      </trkpt>
      <trkpt lat="47.651700" lon="7.824581">
        <ele>373.407255</ele>
        <time>2021-11-13T10:54:26.824Z</time>
      </trkpt>
      <trkpt lat="47.651424" lon="7.824011">
        <ele>373.306005</ele>
        <time>2021-11-13T10:54:33.934Z</time>
      </trkpt>
      <trkpt lat="47.651188" lon="7.823521">
        <ele>373.327553</ele>
        <time>2021-11-13T10:54:41.127Z</time>
      </trkpt>
      <trkpt lat="47.651083" lon="7.823437">
        <ele>373.349136</ele>
        <time>2021-11-13T10:54:43.772Z</time>
      </trkpt>
      <trkpt lat="47.650952" lon="7.823452">
        <ele>373.372911</ele>
        <time>2021-11-13T10:54:47.253Z</time>
      </trkpt>
      <trkpt lat="47.650610" lon="7.823497">
        <ele>373.435038</ele>
        <time>2021-11-13T10:54:54.567Z</time>
      </trkpt>
      <trkpt lat="47.650368" lon="7.823542">
        <ele>373.479169</ele>
        <time>2021-11-13T10:54:59.238Z</time>
      </trkpt>
      <trkpt lat="47.650269" lon="7.823413">
        <ele>373.503006</ele>
        <time>2021-11-13T10:55:02.225Z</time>
      </trkpt>
      <trkpt lat="47.650206" lon="7.823190">
        <ele>373.532482</ele>
        <time>2021-11-13T10:55:05.188Z</time>
      </trkpt>
      <trkpt lat="47.650127" lon="7.822807">
        <ele>373.581308</ele>
        <time>2021-11-13T10:55:10.804Z</time>
      </trkpt>
      <trkpt lat="47.650051" lon="7.822186">
        <ele>373.438767</ele>
        <time>2021-11-13T10:55:19.018Z</time>
      </trkpt>
      <trkpt lat="47.650014" lon="7.821990">
        <ele>373.364376</ele>
        <time>2021-11-13T10:55:21.719Z</time>
      </trkpt>
      <trkpt lat="47.649921" lon="7.821701">
        <ele>373.247323</ele>
        <time>2021-11-13T10:55:26.015Z</time>
      </trkpt>
      <trkpt lat="47.649769" lon="7.821332">
        <ele>373.089251</ele>
        <time>2021-11-13T10:55:31.736Z</time>
      </trkpt>
      <trkpt lat="47.649728" lon="7.821232">
        <ele>373.046467</ele>
        <time>2021-11-13T10:55:33.102Z</time>
      </trkpt>
      <trkpt lat="47.649484" lon="7.820580">
        <ele>372.773880</ele>
        <time>2021-11-13T10:55:41.868Z</time>
      </trkpt>
      <trkpt lat="47.649426" lon="7.820396">
        <ele>372.699635</ele>
        <time>2021-11-13T10:55:44.191Z</time>
      </trkpt>
      <trkpt lat="47.649395" lon="7.820289">
        <ele>372.657067</ele>
        <time>2021-11-13T10:55:45.506Z</time>
      </trkpt>
      <trkpt lat="47.649334" lon="7.820073">
        <ele>372.549000</ele>
        <time>2021-11-13T10:55:48.191Z</time>
      </trkpt>
      <trkpt lat="47.649291" lon="7.819778">
        <ele>372.394504</ele>
        <time>2021-11-13T10:55:50.691Z</time>
      </trkpt>
      <trkpt lat="47.649190" lon="7.818874">
        <ele>371.925452</ele>
        <time>2021-11-13T10:55:58.497Z</time>
      </trkpt>
      <trkpt lat="47.649183" lon="7.818814">
        <ele>371.894282</ele>
        <time>2021-11-13T10:55:59.017Z</time>
      </trkpt>
      <trkpt lat="47.649130" lon="7.818388">
        <ele>371.672537</ele>
        <time>2021-11-13T10:56:02.768Z</time>
      </trkpt>
      <trkpt lat="47.649107" lon="7.818248">
        <ele>371.598775</ele>
        <time>2021-11-13T10:56:04.035Z</time>
      </trkpt>
      <trkpt lat="47.649066" lon="7.818016">
        <ele>371.476003</ele>
        <time>2021-11-13T10:56:06.099Z</time>
      </trkpt>
      <trkpt lat="47.649051" lon="7.817919">
        <ele>371.425060</ele>
        <time>2021-11-13T10:56:06.982Z</time>
      </trkpt>
      <trkpt lat="47.649039" lon="7.817840">
        <ele>371.383606</ele>
        <time>2021-11-13T10:56:07.791Z</time>
      </trkpt>
      <trkpt lat="47.648907" lon="7.817325">
        <ele>371.190372</ele>
        <time>2021-11-13T10:56:12.575Z</time>
      </trkpt>
      <trkpt lat="47.648734" lon="7.816774">
        <ele>371.052640</ele>
        <time>2021-11-13T10:56:18.124Z</time>
      </trkpt>
      <trkpt lat="47.648715" lon="7.816710">
        <ele>371.036794</ele>
        <time>2021-11-13T10:56:18.749Z</time>
      </trkpt>
      <trkpt lat="47.648601" lon="7.816406">
        <ele>370.957966</ele>
        <time>2021-11-13T10:56:22.017Z</time>
      </trkpt>
      <trkpt lat="47.648460" lon="7.816084">
        <ele>370.870953</ele>
        <time>2021-11-13T10:56:25.547Z</time>
      </trkpt>
      <trkpt lat="47.648299" lon="7.815806">
        <ele>370.787892</ele>
        <time>2021-11-13T10:56:29.062Z</time>
      </trkpt>
      <trkpt lat="47.648281" lon="7.815744">
        <ele>370.772596</ele>
        <time>2021-11-13T10:56:29.701Z</time>
      </trkpt>
      <trkpt lat="47.648236" lon="7.815588">
        <ele>370.734147</ele>
        <time>2021-11-13T10:56:31.291Z</time>
      </trkpt>
      <trkpt lat="47.648240" lon="7.815548">
        <ele>370.724985</ele>
        <time>2021-11-13T10:56:31.650Z</time>
      </trkpt>
      <trkpt lat="47.648238" lon="7.815508">
        <ele>370.715897</ele>
        <time>2021-11-13T10:56:32.025Z</time>
      </trkpt>
      <trkpt lat="47.648231" lon="7.815470">
        <ele>370.706972</ele>
        <time>2021-11-13T10:56:32.398Z</time>
      </trkpt>
      <trkpt lat="47.648218" lon="7.815437">
        <ele>370.698310</ele>
        <time>2021-11-13T10:56:32.764Z</time>
      </trkpt>
      <trkpt lat="47.648201" lon="7.815408">
        <ele>370.689600</ele>
        <time>2021-11-13T10:56:33.147Z</time>
      </trkpt>
      <trkpt lat="47.648181" lon="7.815385">
        <ele>370.681092</ele>
        <time>2021-11-13T10:56:33.504Z</time>
      </trkpt>
      <trkpt lat="47.648157" lon="7.815369">
        <ele>370.672243</ele>
        <time>2021-11-13T10:56:33.857Z</time>
      </trkpt>
      <trkpt lat="47.648132" lon="7.815361">
        <ele>370.663642</ele>
        <time>2021-11-13T10:56:34.195Z</time>
      </trkpt>
      <trkpt lat="47.648106" lon="7.815361">
        <ele>370.656089</ele>
        <time>2021-11-13T10:56:34.554Z</time>
      </trkpt>
      <trkpt lat="47.648081" lon="7.815369">
        <ele>370.656891</ele>
        <time>2021-11-13T10:56:34.926Z</time>
      </trkpt>
      <trkpt lat="47.648057" lon="7.815385">
        <ele>370.657716</ele>
        <time>2021-11-13T10:56:35.272Z</time>
      </trkpt>
      <trkpt lat="47.648035" lon="7.815408">
        <ele>370.658560</ele>
        <time>2021-11-13T10:56:35.644Z</time>
      </trkpt>
      <trkpt lat="47.648018" lon="7.815437">
        <ele>370.659372</ele>
        <time>2021-11-13T10:56:36.020Z</time>
      </trkpt>
      <trkpt lat="47.647998" lon="7.815509">
        <ele>370.661018</ele>
        <time>2021-11-13T10:56:36.719Z</time>
      </trkpt>
      <trkpt lat="47.647996" lon="7.815548">
        <ele>370.661844</ele>
        <time>2021-11-13T10:56:37.085Z</time>
      </trkpt>
      <trkpt lat="47.647925" lon="7.815642">
        <ele>370.664827</ele>
        <time>2021-11-13T10:56:38.481Z</time>
      </trkpt>
      <trkpt lat="47.647882" lon="7.815699">
        <ele>370.666635</ele>
        <time>2021-11-13T10:56:39.282Z</time>
      </trkpt>
      <trkpt lat="47.647785" lon="7.815818">
        <ele>370.670581</ele>
        <time>2021-11-13T10:56:41.111Z</time>
      </trkpt>
      <trkpt lat="47.647716" lon="7.815862">
        <ele>370.672936</ele>
        <time>2021-11-13T10:56:42.152Z</time>
      </trkpt>
      <trkpt lat="47.647662" lon="7.815885">
        <ele>370.674698</ele>
        <time>2021-11-13T10:56:42.970Z</time>
      </trkpt>
      <trkpt lat="47.647306" lon="7.815996">
        <ele>370.686105</ele>
        <time>2021-11-13T10:56:48.560Z</time>
      </trkpt>
      <trkpt lat="47.647212" lon="7.816020">
        <ele>370.689096</ele>
        <time>2021-11-13T10:56:50.121Z</time>
      </trkpt>
      <trkpt lat="47.646951" lon="7.816085">
        <ele>370.697395</ele>
        <time>2021-11-13T10:56:54.218Z</time>
      </trkpt>
      <trkpt lat="47.646940" lon="7.816087">
        <ele>370.697742</ele>
        <time>2021-11-13T10:56:54.409Z</time>
      </trkpt>
      <trkpt lat="47.646609" lon="7.816150">
        <ele>370.708207</ele>
        <time>2021-11-13T10:56:59.628Z</time>
      </trkpt>
      <trkpt lat="47.646346" lon="7.816173">
        <ele>370.786546</ele>
        <time>2021-11-13T10:57:03.632Z</time>
      </trkpt>
      <trkpt lat="47.645949" lon="7.816228">
        <ele>371.013893</ele>
        <time>2021-11-13T10:57:09.658Z</time>
      </trkpt>
      <trkpt lat="47.645844" lon="7.816242">
        <ele>371.074004</ele>
        <time>2021-11-13T10:57:11.291Z</time>
      </trkpt>
      <trkpt lat="47.645694" lon="7.816230">
        <ele>371.159655</ele>
        <time>2021-11-13T10:57:13.691Z</time>
      </trkpt>
      <trkpt lat="47.645635" lon="7.816215">
        <ele>371.193786</ele>
        <time>2021-11-13T10:57:14.647Z</time>
      </trkpt>
      <trkpt lat="47.645589" lon="7.816192">
        <ele>371.221463</ele>
        <time>2021-11-13T10:57:15.413Z</time>
      </trkpt>
      <trkpt lat="47.645566" lon="7.816166">
        <ele>371.237947</ele>
        <time>2021-11-13T10:57:15.863Z</time>
      </trkpt>
      <trkpt lat="47.645539" lon="7.816150">
        <ele>371.254524</ele>
        <time>2021-11-13T10:57:16.319Z</time>
      </trkpt>
      <trkpt lat="47.645511" lon="7.816145">
        <ele>371.270604</ele>
        <time>2021-11-13T10:57:16.803Z</time>
      </trkpt>
      <trkpt lat="47.645482" lon="7.816151">
        <ele>371.287299</ele>
        <time>2021-11-13T10:57:17.279Z</time>
      </trkpt>
      <trkpt lat="47.645432" lon="7.816197">
        <ele>371.320841</ele>
        <time>2021-11-13T10:57:18.211Z</time>
      </trkpt>
      <trkpt lat="47.645415" lon="7.816232">
        <ele>371.337416</ele>
        <time>2021-11-13T10:57:18.681Z</time>
      </trkpt>
      <trkpt lat="47.645404" lon="7.816264">
        <ele>371.351216</ele>
        <time>2021-11-13T10:57:19.078Z</time>
      </trkpt>
      <trkpt lat="47.645327" lon="7.816290">
        <ele>371.396242</ele>
        <time>2021-11-13T10:57:20.373Z</time>
      </trkpt>
      <trkpt lat="47.645172" lon="7.816339">
        <ele>371.486603</ele>
        <time>2021-11-13T10:57:23.046Z</time>
      </trkpt>
      <trkpt lat="47.645154" lon="7.816347">
        <ele>371.497316</ele>
        <time>2021-11-13T10:57:23.359Z</time>
      </trkpt>
      <trkpt lat="47.644927" lon="7.816376">
        <ele>371.627227</ele>
        <time>2021-11-13T10:57:27.453Z</time>
      </trkpt>
      <trkpt lat="47.644797" lon="7.816399">
        <ele>371.701876</ele>
        <time>2021-11-13T10:57:29.937Z</time>
      </trkpt>
      <trkpt lat="47.644357" lon="7.816478">
        <ele>373.453278</ele>
        <time>2021-11-13T10:57:39.079Z</time>
      </trkpt>
      <trkpt lat="47.643909" lon="7.816574">
        <ele>375.496845</ele>
        <time>2021-11-13T10:57:51.628Z</time>
      </trkpt>
      <trkpt lat="47.643638" lon="7.816626">
        <ele>376.730518</ele>
        <time>2021-11-13T10:58:00.676Z</time>
      </trkpt>
      <trkpt lat="47.642952" lon="7.816765">
        <ele>379.856347</ele>
        <time>2021-11-13T10:58:30.165Z</time>
      </trkpt>
      <trkpt lat="47.642758" lon="7.816795">
        <ele>381.408327</ele>
        <time>2021-11-13T10:58:39.399Z</time>
      </trkpt>
      <trkpt lat="47.642138" lon="7.816906">
        <ele>386.382174</ele>
        <time>2021-11-13T10:59:09.798Z</time>
      </trkpt>
      <trkpt lat="47.641916" lon="7.816921">
        <ele>388.152146</ele>
        <time>2021-11-13T10:59:20.895Z</time>
      </trkpt>
      <trkpt lat="47.641819" lon="7.816919">
        <ele>388.924787</ele>
        <time>2021-11-13T10:59:25.694Z</time>
      </trkpt>
      <trkpt lat="47.641687" lon="7.816751">
        <ele>390.309723</ele>
        <time>2021-11-13T10:59:34.517Z</time>
      </trkpt>
      <trkpt lat="47.641514" lon="7.816229">
        <ele>393.431461</ele>
        <time>2021-11-13T10:59:52.997Z</time>
      </trkpt>
      <trkpt lat="47.641404" lon="7.815775">
        <ele>395.190188</ele>
        <time>2021-11-13T11:00:07.364Z</time>
      </trkpt>
      <trkpt lat="47.641246" lon="7.815390">
        <ele>396.515693</ele>
        <time>2021-11-13T11:00:19.143Z</time>
      </trkpt>
      <trkpt lat="47.640965" lon="7.814694">
        <ele>398.901487</ele>
        <time>2021-11-13T11:00:36.438Z</time>
      </trkpt>
      <trkpt lat="47.640406" lon="7.811979">
        <ele>405.617758</ele>
        <time>2021-11-13T11:01:22.584Z</time>
      </trkpt>
      <trkpt lat="47.640311" lon="7.811772">
        <ele>406.123872</ele>
        <time>2021-11-13T11:01:26.662Z</time>
      </trkpt>
      <trkpt lat="47.640114" lon="7.811584">
        <ele>406.826302</ele>
        <time>2021-11-13T11:01:33.901Z</time>
      </trkpt>
      <trkpt lat="47.639913" lon="7.811500">
        <ele>407.481631</ele>
        <time>2021-11-13T11:01:40.108Z</time>
      </trkpt>
      <trkpt lat="47.639913" lon="7.811500">
        <ele>407.481631</ele>
        <time>2021-11-13T11:01:40.203Z</time>
      </trkpt>
      <trkpt lat="47.639796" lon="7.811469">
        <ele>408.252476</ele>
        <time>2021-11-13T11:01:44.379Z</time>
      </trkpt>
      <trkpt lat="47.639195" lon="7.811442">
        <ele>412.152269</ele>
        <time>2021-11-13T11:02:06.838Z</time>
      </trkpt>
      <trkpt lat="47.638925" lon="7.811482">
        <ele>413.912157</ele>
        <time>2021-11-13T11:02:18.188Z</time>
      </trkpt>
      <trkpt lat="47.638511" lon="7.811552">
        <ele>416.614678</ele>
        <time>2021-11-13T11:02:36.868Z</time>
      </trkpt>
      <trkpt lat="47.637893" lon="7.811811">
        <ele>421.130984</ele>
        <time>2021-11-13T11:03:06.171Z</time>
      </trkpt>
      <trkpt lat="47.637370" lon="7.812117">
        <ele>425.536732</ele>
        <time>2021-11-13T11:03:34.893Z</time>
      </trkpt>
      <trkpt lat="47.637056" lon="7.812257">
        <ele>428.106189</ele>
        <time>2021-11-13T11:03:50.026Z</time>
      </trkpt>
      <trkpt lat="47.636514" lon="7.812384">
        <ele>432.406433</ele>
        <time>2021-11-13T11:04:13.967Z</time>
      </trkpt>
      <trkpt lat="47.636362" lon="7.812419">
        <ele>433.594771</ele>
        <time>2021-11-13T11:04:21.132Z</time>
      </trkpt>
      <trkpt lat="47.636234" lon="7.812469">
        <ele>434.590026</ele>
        <time>2021-11-13T11:04:26.434Z</time>
      </trkpt>
      <trkpt lat="47.635984" lon="7.812598">
        <ele>436.580245</ele>
        <time>2021-11-13T11:04:37.406Z</time>
      </trkpt>
      <trkpt lat="47.635678" lon="7.812872">
        <ele>439.267547</ele>
        <time>2021-11-13T11:04:52.923Z</time>
      </trkpt>
      <trkpt lat="47.635617" lon="7.812948">
        <ele>439.866439</ele>
        <time>2021-11-13T11:04:56.189Z</time>
      </trkpt>
      <trkpt lat="47.635537" lon="7.813043">
        <ele>440.636864</ele>
        <time>2021-11-13T11:05:01.309Z</time>
      </trkpt>
      <trkpt lat="47.635461" lon="7.813093">
        <ele>441.261970</ele>
        <time>2021-11-13T11:05:05.076Z</time>
      </trkpt>
      <trkpt lat="47.635241" lon="7.813237">
        <ele>443.069980</ele>
        <time>2021-11-13T11:05:15.750Z</time>
      </trkpt>
      <trkpt lat="47.634810" lon="7.813677">
        <ele>447.020795</ele>
        <time>2021-11-13T11:05:40.960Z</time>
      </trkpt>
      <trkpt lat="47.634638" lon="7.813802">
        <ele>448.546341</ele>
        <time>2021-11-13T11:05:49.194Z</time>
      </trkpt>
      <trkpt lat="47.634603" lon="7.813838">
        <ele>448.885555</ele>
        <time>2021-11-13T11:05:52.329Z</time>
      </trkpt>
      <trkpt lat="47.634267" lon="7.814103">
        <ele>451.916494</ele>
        <time>2021-11-13T11:06:09.678Z</time>
      </trkpt>
      <trkpt lat="47.634025" lon="7.814248">
        <ele>453.995357</ele>
        <time>2021-11-13T11:06:20.447Z</time>
      </trkpt>
      <trkpt lat="47.633899" lon="7.814255">
        <ele>454.999722</ele>
        <time>2021-11-13T11:06:26.994Z</time>
      </trkpt>
      <trkpt lat="47.633759" lon="7.814194">
        <ele>456.161976</ele>
        <time>2021-11-13T11:06:32.782Z</time>
      </trkpt>
      <trkpt lat="47.633391" lon="7.813533">
        <ele>460.764322</ele>
        <time>2021-11-13T11:07:03.162Z</time>
      </trkpt>
      <trkpt lat="47.633151" lon="7.812590">
        <ele>465.686358</ele>
        <time>2021-11-13T11:07:32.950Z</time>
      </trkpt>
      <trkpt lat="47.632938" lon="7.812283">
        <ele>467.826419</ele>
        <time>2021-11-13T11:07:44.479Z</time>
      </trkpt>
      <trkpt lat="47.632845" lon="7.812246">
        <ele>468.520365</ele>
        <time>2021-11-13T11:07:50.147Z</time>
      </trkpt>
      <trkpt lat="47.632790" lon="7.812277">
        <ele>468.944394</ele>
        <time>2021-11-13T11:07:52.546Z</time>
      </trkpt>
      <trkpt lat="47.632601" lon="7.813004">
        <ele>472.728952</ele>
        <time>2021-11-13T11:08:12.991Z</time>
      </trkpt>
      <trkpt lat="47.632573" lon="7.813067">
        <ele>473.095488</ele>
        <time>2021-11-13T11:08:15.886Z</time>
      </trkpt>
      <trkpt lat="47.632515" lon="7.813155">
        <ele>473.693329</ele>
        <time>2021-11-13T11:08:20.557Z</time>
      </trkpt>
      <trkpt lat="47.632179" lon="7.813790">
        <ele>477.885187</ele>
        <time>2021-11-13T11:08:41.609Z</time>
      </trkpt>
      <trkpt lat="47.632099" lon="7.813963">
        <ele>478.980617</ele>
        <time>2021-11-13T11:08:49.192Z</time>
      </trkpt>
      <trkpt lat="47.631707" lon="7.814641">
        <ele>483.644720</ele>
        <time>2021-11-13T11:09:15.853Z</time>
      </trkpt>
      <trkpt lat="47.631677" lon="7.814692">
        <ele>483.998162</ele>
        <time>2021-11-13T11:09:18.948Z</time>
      </trkpt>
      <trkpt lat="47.631227" lon="7.815205">
        <ele>488.421911</ele>
        <time>2021-11-13T11:09:47.476Z</time>
      </trkpt>
      <trkpt lat="47.631083" lon="7.815420">
        <ele>490.099503</ele>
        <time>2021-11-13T11:09:57.254Z</time>
      </trkpt>
      <trkpt lat="47.631021" lon="7.815514">
        <ele>490.827437</ele>
        <time>2021-11-13T11:10:00.969Z</time>
      </trkpt>
      <trkpt lat="47.630764" lon="7.815952">
        <ele>494.041556</ele>
        <time>2021-11-13T11:10:19.395Z</time>
      </trkpt>
      <trkpt lat="47.630743" lon="7.815987">
        <ele>494.300907</ele>
        <time>2021-11-13T11:10:22.296Z</time>
      </trkpt>
      <trkpt lat="47.630551" lon="7.816185">
        <ele>496.221068</ele>
        <time>2021-11-13T11:10:33.272Z</time>
      </trkpt>
      <trkpt lat="47.629850" lon="7.816905">
        <ele>502.968864</ele>
        <time>2021-11-13T11:11:15.858Z</time>
      </trkpt>
      <trkpt lat="47.629046" lon="7.818276">
        <ele>508.045320</ele>
        <time>2021-11-13T11:11:58.328Z</time>
      </trkpt>
      <trkpt lat="47.628903" lon="7.818442">
        <ele>508.797850</ele>
        <time>2021-11-13T11:12:03.025Z</time>
      </trkpt>
      <trkpt lat="47.627555" lon="7.818559">
        <ele>508.816079</ele>
        <time>2021-11-13T11:12:22.183Z</time>
      </trkpt>
      <trkpt lat="47.626983" lon="7.818622">
        <ele>508.057600</ele>
        <time>2021-11-13T11:12:28.052Z</time>
      </trkpt>
      <trkpt lat="47.626700" lon="7.818602">
        <ele>507.508558</ele>
        <time>2021-11-13T11:12:30.899Z</time>
      </trkpt>
      <trkpt lat="47.626443" lon="7.818467">
        <ele>506.543282</ele>
        <time>2021-11-13T11:12:33.622Z</time>
      </trkpt>
      <trkpt lat="47.625987" lon="7.818025">
        <ele>504.614786</ele>
        <time>2021-11-13T11:12:38.975Z</time>
      </trkpt>
      <trkpt lat="47.624281" lon="7.816985">
        <ele>497.107829</ele>
        <time>2021-11-13T11:12:57.358Z</time>
      </trkpt>
      <trkpt lat="47.623648" lon="7.816926">
        <ele>494.204346</ele>
        <time>2021-11-13T11:13:03.330Z</time>
      </trkpt>
      <trkpt lat="47.623368" lon="7.816962">
        <ele>492.778497</ele>
        <time>2021-11-13T11:13:05.906Z</time>
      </trkpt>
      <trkpt lat="47.623176" lon="7.817016">
        <ele>491.417282</ele>
        <time>2021-11-13T11:13:07.641Z</time>
      </trkpt>
      <trkpt lat="47.622635" lon="7.817204">
        <ele>487.546897</ele>
        <time>2021-11-13T11:13:12.684Z</time>
      </trkpt>
      <trkpt lat="47.622464" lon="7.817228">
        <ele>486.350459</ele>
        <time>2021-11-13T11:13:14.187Z</time>
      </trkpt>
      <trkpt lat="47.622034" lon="7.817274">
        <ele>483.347469</ele>
        <time>2021-11-13T11:13:17.990Z</time>
      </trkpt>
      <trkpt lat="47.621408" lon="7.817443">
        <ele>479.183255</ele>
        <time>2021-11-13T11:13:23.789Z</time>
      </trkpt>
      <trkpt lat="47.621327" lon="7.817470">
        <ele>478.693964</ele>
        <time>2021-11-13T11:13:24.498Z</time>
      </trkpt>
      <trkpt lat="47.621261" lon="7.817493">
        <ele>478.294392</ele>
        <time>2021-11-13T11:13:25.169Z</time>
      </trkpt>
      <trkpt lat="47.621173" lon="7.817554">
        <ele>477.721928</ele>
        <time>2021-11-13T11:13:26.073Z</time>
      </trkpt>
      <trkpt lat="47.621099" lon="7.817634">
        <ele>477.182288</ele>
        <time>2021-11-13T11:13:26.886Z</time>
      </trkpt>
      <trkpt lat="47.621041" lon="7.817725">
        <ele>476.684760</ele>
        <time>2021-11-13T11:13:27.625Z</time>
      </trkpt>
      <trkpt lat="47.620588" lon="7.818608">
        <ele>472.276523</ele>
        <time>2021-11-13T11:13:34.606Z</time>
      </trkpt>
      <trkpt lat="47.620135" lon="7.818917">
        <ele>469.441507</ele>
        <time>2021-11-13T11:13:39.267Z</time>
      </trkpt>
      <trkpt lat="47.620091" lon="7.818898">
        <ele>469.210392</ele>
        <time>2021-11-13T11:13:39.673Z</time>
      </trkpt>
      <trkpt lat="47.620052" lon="7.818861">
        <ele>468.976924</ele>
        <time>2021-11-13T11:13:40.133Z</time>
      </trkpt>
      <trkpt lat="47.619983" lon="7.818525">
        <ele>467.782883</ele>
        <time>2021-11-13T11:13:42.417Z</time>
      </trkpt>
      <trkpt lat="47.619948" lon="7.818387">
        <ele>467.281652</ele>
        <time>2021-11-13T11:13:43.336Z</time>
      </trkpt>
      <trkpt lat="47.619880" lon="7.818346">
        <ele>466.911466</ele>
        <time>2021-11-13T11:13:44.014Z</time>
      </trkpt>
      <trkpt lat="47.619481" lon="7.818077">
        <ele>464.701144</ele>
        <time>2021-11-13T11:13:48.186Z</time>
      </trkpt>
      <trkpt lat="47.619455" lon="7.818047">
        <ele>464.535027</ele>
        <time>2021-11-13T11:13:48.468Z</time>
      </trkpt>
      <trkpt lat="47.619414" lon="7.817980">
        <ele>464.227403</ele>
        <time>2021-11-13T11:13:49.087Z</time>
      </trkpt>
      <trkpt lat="47.619369" lon="7.817884">
        <ele>463.829898</ele>
        <time>2021-11-13T11:13:49.813Z</time>
      </trkpt>
      <trkpt lat="47.619286" lon="7.817698">
        <ele>463.071593</ele>
        <time>2021-11-13T11:13:51.231Z</time>
      </trkpt>
      <trkpt lat="47.619222" lon="7.817606">
        <ele>462.622153</ele>
        <time>2021-11-13T11:13:52.045Z</time>
      </trkpt>
      <trkpt lat="47.619023" lon="7.817353">
        <ele>461.300421</ele>
        <time>2021-11-13T11:13:54.520Z</time>
      </trkpt>
      <trkpt lat="47.618799" lon="7.817081">
        <ele>459.948882</ele>
        <time>2021-11-13T11:13:57.303Z</time>
      </trkpt>
      <trkpt lat="47.618674" lon="7.816980">
        <ele>459.299028</ele>
        <time>2021-11-13T11:13:58.624Z</time>
      </trkpt>
      <trkpt lat="47.618026" lon="7.816656">
        <ele>456.177012</ele>
        <time>2021-11-13T11:14:05.234Z</time>
      </trkpt>
      <trkpt lat="47.617819" lon="7.816612">
        <ele>455.222282</ele>
        <time>2021-11-13T11:14:07.206Z</time>
      </trkpt>
      <trkpt lat="47.617645" lon="7.816658">
        <ele>454.415353</ele>
        <time>2021-11-13T11:14:08.926Z</time>
      </trkpt>
      <trkpt lat="47.617591" lon="7.816685">
        <ele>454.155185</ele>
        <time>2021-11-13T11:14:09.463Z</time>
      </trkpt>
      <trkpt lat="47.617466" lon="7.816748">
        <ele>453.552450</ele>
        <time>2021-11-13T11:14:10.745Z</time>
      </trkpt>
      <trkpt lat="47.617373" lon="7.816786">
        <ele>453.112039</ele>
        <time>2021-11-13T11:14:11.717Z</time>
      </trkpt>
      <trkpt lat="47.617243" lon="7.816840">
        <ele>452.457398</ele>
        <time>2021-11-13T11:14:12.979Z</time>
      </trkpt>
      <trkpt lat="47.617000" lon="7.816677">
        <ele>451.071333</ele>
        <time>2021-11-13T11:14:15.621Z</time>
      </trkpt>
      <trkpt lat="47.616707" lon="7.816445">
        <ele>449.345166</ele>
        <time>2021-11-13T11:14:18.742Z</time>
      </trkpt>
      <trkpt lat="47.616632" lon="7.816335">
        <ele>448.797019</ele>
        <time>2021-11-13T11:14:19.699Z</time>
      </trkpt>
      <trkpt lat="47.616582" lon="7.816196">
        <ele>448.245036</ele>
        <time>2021-11-13T11:14:20.656Z</time>
      </trkpt>
      <trkpt lat="47.616439" lon="7.815458">
        <ele>445.554763</ele>
        <time>2021-11-13T11:14:25.563Z</time>
      </trkpt>
      <trkpt lat="47.616368" lon="7.815112">
        <ele>444.287632</ele>
        <time>2021-11-13T11:14:27.768Z</time>
      </trkpt>
      <trkpt lat="47.616291" lon="7.814920">
        <ele>443.504916</ele>
        <time>2021-11-13T11:14:29.221Z</time>
      </trkpt>
      <trkpt lat="47.616224" lon="7.814793">
        <ele>442.948703</ele>
        <time>2021-11-13T11:14:30.173Z</time>
      </trkpt>
      <trkpt lat="47.615803" lon="7.813616">
        <ele>438.365286</ele>
        <time>2021-11-13T11:14:38.607Z</time>
      </trkpt>
      <trkpt lat="47.615645" lon="7.813447">
        <ele>437.371290</ele>
        <time>2021-11-13T11:14:40.395Z</time>
      </trkpt>
      <trkpt lat="47.615387" lon="7.813324">
        <ele>435.988409</ele>
        <time>2021-11-13T11:14:42.984Z</time>
      </trkpt>
      <trkpt lat="47.614932" lon="7.812637">
        <ele>433.010929</ele>
        <time>2021-11-13T11:14:49.219Z</time>
      </trkpt>
      <trkpt lat="47.614764" lon="7.812475">
        <ele>432.206884</ele>
        <time>2021-11-13T11:14:51.176Z</time>
      </trkpt>
      <trkpt lat="47.614051" lon="7.812407">
        <ele>429.339917</ele>
        <time>2021-11-13T11:14:58.098Z</time>
      </trkpt>
      <trkpt lat="47.613868" lon="7.812544">
        <ele>428.517377</ele>
        <time>2021-11-13T11:15:00.091Z</time>
      </trkpt>
      <trkpt lat="47.613621" lon="7.812859">
        <ele>427.210310</ele>
        <time>2021-11-13T11:15:03.313Z</time>
      </trkpt>
      <trkpt lat="47.613501" lon="7.812899">
        <ele>426.868599</ele>
        <time>2021-11-13T11:15:04.560Z</time>
      </trkpt>
      <trkpt lat="47.612810" lon="7.813060">
        <ele>425.429562</ele>
        <time>2021-11-13T11:15:11.819Z</time>
      </trkpt>
      <trkpt lat="47.612555" lon="7.813076">
        <ele>424.904477</ele>
        <time>2021-11-13T11:15:14.608Z</time>
      </trkpt>
      <trkpt lat="47.612313" lon="7.813004">
        <ele>424.396690</ele>
        <time>2021-11-13T11:15:17.428Z</time>
      </trkpt>
      <trkpt lat="47.611013" lon="7.812221">
        <ele>422.313645</ele>
        <time>2021-11-13T11:15:35.142Z</time>
      </trkpt>
      <trkpt lat="47.610772" lon="7.811907">
        <ele>421.945427</ele>
        <time>2021-11-13T11:15:39.363Z</time>
      </trkpt>
      <trkpt lat="47.610233" lon="7.810909">
        <ele>420.189745</ele>
        <time>2021-11-13T11:15:49.177Z</time>
      </trkpt>
      <trkpt lat="47.609797" lon="7.810201">
        <ele>417.598496</ele>
        <time>2021-11-13T11:15:55.778Z</time>
      </trkpt>
      <trkpt lat="47.609427" lon="7.809753">
        <ele>415.684043</ele>
        <time>2021-11-13T11:16:00.313Z</time>
      </trkpt>
      <trkpt lat="47.608602" lon="7.809088">
        <ele>410.266764</ele>
        <time>2021-11-13T11:16:08.856Z</time>
      </trkpt>
      <trkpt lat="47.607803" lon="7.808223">
        <ele>403.228232</ele>
        <time>2021-11-13T11:16:17.664Z</time>
      </trkpt>
      <trkpt lat="47.607595" lon="7.808039">
        <ele>401.504985</ele>
        <time>2021-11-13T11:16:19.800Z</time>
      </trkpt>
      <trkpt lat="47.607385" lon="7.807967">
        <ele>400.067536</ele>
        <time>2021-11-13T11:16:21.725Z</time>
      </trkpt>
      <trkpt lat="47.606698" lon="7.808066">
        <ele>395.524083</ele>
        <time>2021-11-13T11:16:27.897Z</time>
      </trkpt>
      <trkpt lat="47.605899" lon="7.808010">
        <ele>390.258818</ele>
        <time>2021-11-13T11:16:35.243Z</time>
      </trkpt>
      <trkpt lat="47.605468" lon="7.808045">
        <ele>387.622992</ele>
        <time>2021-11-13T11:16:39.281Z</time>
      </trkpt>
      <trkpt lat="47.604338" lon="7.808356">
        <ele>380.835579</ele>
        <time>2021-11-13T11:16:49.853Z</time>
      </trkpt>
      <trkpt lat="47.604147" lon="7.808404">
        <ele>379.691504</ele>
        <time>2021-11-13T11:16:51.643Z</time>
      </trkpt>
      <trkpt lat="47.603933" lon="7.808453">
        <ele>378.475293</ele>
        <time>2021-11-13T11:16:53.553Z</time>
      </trkpt>
      <trkpt lat="47.603664" lon="7.808428">
        <ele>377.144978</ele>
        <time>2021-11-13T11:16:56.052Z</time>
      </trkpt>
      <trkpt lat="47.603050" lon="7.808058">
        <ele>373.873836</ele>
        <time>2021-11-13T11:17:02.246Z</time>
      </trkpt>
      <trkpt lat="47.602603" lon="7.807841">
        <ele>371.552378</ele>
        <time>2021-11-13T11:17:06.675Z</time>
      </trkpt>
      <trkpt lat="47.602352" lon="7.807799">
        <ele>370.305650</ele>
        <time>2021-11-13T11:17:09.237Z</time>
      </trkpt>
      <trkpt lat="47.602242" lon="7.807771">
        <ele>369.851289</ele>
        <time>2021-11-13T11:17:10.341Z</time>
      </trkpt>
      <trkpt lat="47.601856" lon="7.807444">
        <ele>368.969320</ele>
        <time>2021-11-13T11:17:14.948Z</time>
      </trkpt>
      <trkpt lat="47.601434" lon="7.806809">
        <ele>367.776571</ele>
        <time>2021-11-13T11:17:21.457Z</time>
      </trkpt>
      <trkpt lat="47.600919" lon="7.805847">
        <ele>366.089806</ele>
        <time>2021-11-13T11:17:32.262Z</time>
      </trkpt>
      <trkpt lat="47.600707" lon="7.805537">
        <ele>365.379200</ele>
        <time>2021-11-13T11:17:35.699Z</time>
      </trkpt>
      <trkpt lat="47.600367" lon="7.805144">
        <ele>364.350306</ele>
        <time>2021-11-13T11:17:40.438Z</time>
      </trkpt>
      <trkpt lat="47.599983" lon="7.804755">
        <ele>363.240349</ele>
        <time>2021-11-13T11:17:45.337Z</time>
      </trkpt>
      <trkpt lat="47.598398" lon="7.802889">
        <ele>356.619346</ele>
        <time>2021-11-13T11:18:05.285Z</time>
      </trkpt>
      <trkpt lat="47.598146" lon="7.802509">
        <ele>355.452681</ele>
        <time>2021-11-13T11:18:08.942Z</time>
      </trkpt>
      <trkpt lat="47.597927" lon="7.802250">
        <ele>354.815459</ele>
        <time>2021-11-13T11:18:11.888Z</time>
      </trkpt>
      <trkpt lat="47.597625" lon="7.801971">
        <ele>354.006043</ele>
        <time>2021-11-13T11:18:15.691Z</time>
      </trkpt>
      <trkpt lat="47.596866" lon="7.801508">
        <ele>352.139045</ele>
        <time>2021-11-13T11:18:24.426Z</time>
      </trkpt>
      <trkpt lat="47.596631" lon="7.801307">
        <ele>351.538944</ele>
        <time>2021-11-13T11:18:27.684Z</time>
      </trkpt>
      <trkpt lat="47.596154" lon="7.800842">
        <ele>350.814353</ele>
        <time>2021-11-13T11:18:34.640Z</time>
      </trkpt>
      <trkpt lat="47.596083" lon="7.800764">
        <ele>350.702192</ele>
        <time>2021-11-13T11:18:35.659Z</time>
      </trkpt>
      <trkpt lat="47.595950" lon="7.800596">
        <ele>350.480424</ele>
        <time>2021-11-13T11:18:37.730Z</time>
      </trkpt>
      <trkpt lat="47.595757" lon="7.800208">
        <ele>350.067722</ele>
        <time>2021-11-13T11:18:41.601Z</time>
      </trkpt>
      <trkpt lat="47.595466" lon="7.799497">
        <ele>349.355788</ele>
        <time>2021-11-13T11:18:48.076Z</time>
      </trkpt>
      <trkpt lat="47.595383" lon="7.799322">
        <ele>349.365525</ele>
        <time>2021-11-13T11:18:49.820Z</time>
      </trkpt>
      <trkpt lat="47.594957" lon="7.798605">
        <ele>350.054282</ele>
        <time>2021-11-13T11:18:57.911Z</time>
      </trkpt>
      <trkpt lat="47.594663" lon="7.797229">
        <ele>351.094660</ele>
        <time>2021-11-13T11:19:20.512Z</time>
      </trkpt>
      <trkpt lat="47.594601" lon="7.796746">
        <ele>352.246878</ele>
        <time>2021-11-13T11:19:29.599Z</time>
      </trkpt>
      <trkpt lat="47.594060" lon="7.796856">
        <ele>354.698548</ele>
        <time>2021-11-13T11:19:46.918Z</time>
      </trkpt>
      <trkpt lat="47.593608" lon="7.796793">
        <ele>356.736850</ele>
        <time>2021-11-13T11:20:02.379Z</time>
      </trkpt>
      <trkpt lat="47.592961" lon="7.796452">
        <ele>359.680356</ele>
        <time>2021-11-13T11:20:28.607Z</time>
      </trkpt>
      <trkpt lat="47.592802" lon="7.796368">
        <ele>360.244205</ele>
        <time>2021-11-13T11:20:35.251Z</time>
      </trkpt>
      <trkpt lat="47.592429" lon="7.796406">
        <ele>361.493162</ele>
        <time>2021-11-13T11:20:47.372Z</time>
      </trkpt>
      <trkpt lat="47.592114" lon="7.796545">
        <ele>362.591036</ele>
        <time>2021-11-13T11:20:56.497Z</time>
      </trkpt>
      <trkpt lat="47.591728" lon="7.796915">
        <ele>364.126451</ele>
        <time>2021-11-13T11:21:08.253Z</time>
      </trkpt>
      <trkpt lat="47.591349" lon="7.797193">
        <ele>365.237134</ele>
        <time>2021-11-13T11:21:17.751Z</time>
      </trkpt>
      <trkpt lat="47.590924" lon="7.797504">
        <ele>364.948900</ele>
        <time>2021-11-13T11:21:24.912Z</time>
      </trkpt>
      <trkpt lat="47.589945" lon="7.798060">
        <ele>364.311324</ele>
        <time>2021-11-13T11:21:37.539Z</time>
      </trkpt>
      <trkpt lat="47.589924" lon="7.798072">
        <ele>364.297637</ele>
        <time>2021-11-13T11:21:37.752Z</time>
      </trkpt>
      <trkpt lat="47.589692" lon="7.798248">
        <ele>363.995374</ele>
        <time>2021-11-13T11:21:40.609Z</time>
      </trkpt>
      <trkpt lat="47.589486" lon="7.798387">
        <ele>363.466603</ele>
        <time>2021-11-13T11:21:43.093Z</time>
      </trkpt>
      <trkpt lat="47.589272" lon="7.798569">
        <ele>362.890227</ele>
        <time>2021-11-13T11:21:45.770Z</time>
      </trkpt>
      <trkpt lat="47.589153" lon="7.798651">
        <ele>362.583650</ele>
        <time>2021-11-13T11:21:47.282Z</time>
      </trkpt>
      <trkpt lat="47.589010" lon="7.798691">
        <ele>362.243666</ele>
        <time>2021-11-13T11:21:48.833Z</time>
      </trkpt>
      <trkpt lat="47.588797" lon="7.798670">
        <ele>361.744935</ele>
        <time>2021-11-13T11:21:51.131Z</time>
      </trkpt>
      <trkpt lat="47.588390" lon="7.798556">
        <ele>360.777242</ele>
        <time>2021-11-13T11:21:55.401Z</time>
      </trkpt>
      <trkpt lat="47.588177" lon="7.798477">
        <ele>360.264276</ele>
        <time>2021-11-13T11:21:57.728Z</time>
      </trkpt>
      <trkpt lat="47.587698" lon="7.798426">
        <ele>358.753917</ele>
        <time>2021-11-13T11:22:02.732Z</time>
      </trkpt>
      <trkpt lat="47.587388" lon="7.798430">
        <ele>357.696838</ele>
        <time>2021-11-13T11:22:05.848Z</time>
      </trkpt>
      <trkpt lat="47.587282" lon="7.798453">
        <ele>357.331549</ele>
        <time>2021-11-13T11:22:06.885Z</time>
      </trkpt>
      <trkpt lat="47.586543" lon="7.798436">
        <ele>354.811401</ele>
        <time>2021-11-13T11:22:14.219Z</time>
      </trkpt>
      <trkpt lat="47.586281" lon="7.798381">
        <ele>353.909123</ele>
        <time>2021-11-13T11:22:16.913Z</time>
      </trkpt>
      <trkpt lat="47.585911" lon="7.798303">
        <ele>352.483802</ele>
        <time>2021-11-13T11:22:20.537Z</time>
      </trkpt>
      <trkpt lat="47.585534" lon="7.798199">
        <ele>351.014368</ele>
        <time>2021-11-13T11:22:24.294Z</time>
      </trkpt>
      <trkpt lat="47.585233" lon="7.798047">
        <ele>349.795885</ele>
        <time>2021-11-13T11:22:27.403Z</time>
      </trkpt>
      <trkpt lat="47.584729" lon="7.797820">
        <ele>347.777437</ele>
        <time>2021-11-13T11:22:32.595Z</time>
      </trkpt>
      <trkpt lat="47.584517" lon="7.797802">
        <ele>346.963736</ele>
        <time>2021-11-13T11:22:34.624Z</time>
      </trkpt>
      <trkpt lat="47.583508" lon="7.797910">
        <ele>343.190844</ele>
        <time>2021-11-13T11:22:44.860Z</time>
      </trkpt>
      <trkpt lat="47.582752" lon="7.797833">
        <ele>340.364701</ele>
        <time>2021-11-13T11:22:52.293Z</time>
      </trkpt>
      <trkpt lat="47.582160" lon="7.797772">
        <ele>336.842937</ele>
        <time>2021-11-13T11:22:57.975Z</time>
      </trkpt>
      <trkpt lat="47.581869" lon="7.797750">
        <ele>335.079969</ele>
        <time>2021-11-13T11:23:00.707Z</time>
      </trkpt>
      <trkpt lat="47.581379" lon="7.797757">
        <ele>332.115111</ele>
        <time>2021-11-13T11:23:05.158Z</time>
      </trkpt>
      <trkpt lat="47.580966" lon="7.797737">
        <ele>329.614944</ele>
        <time>2021-11-13T11:23:08.840Z</time>
      </trkpt>
      <trkpt lat="47.580444" lon="7.797575">
        <ele>324.769116</ele>
        <time>2021-11-13T11:23:13.503Z</time>
      </trkpt>
      <trkpt lat="47.580222" lon="7.797578">
        <ele>322.696927</ele>
        <time>2021-11-13T11:23:15.413Z</time>
      </trkpt>
      <trkpt lat="47.579900" lon="7.797779">
        <ele>319.435869</ele>
        <time>2021-11-13T11:23:18.431Z</time>
      </trkpt>
      <trkpt lat="47.579284" lon="7.798330">
        <ele>312.720686</ele>
        <time>2021-11-13T11:23:24.631Z</time>
      </trkpt>
      <trkpt lat="47.579085" lon="7.798411">
        <ele>311.123963</ele>
        <time>2021-11-13T11:23:26.406Z</time>
      </trkpt>
      <trkpt lat="47.578882" lon="7.798252">
        <ele>309.375627</ele>
        <time>2021-11-13T11:23:28.399Z</time>
      </trkpt>
      <trkpt lat="47.578679" lon="7.797723">
        <ele>306.249319</ele>
        <time>2021-11-13T11:23:32.011Z</time>
      </trkpt>
      <trkpt lat="47.578554" lon="7.797534">
        <ele>304.889676</ele>
        <time>2021-11-13T11:23:33.601Z</time>
      </trkpt>
      <trkpt lat="47.577944" lon="7.797172">
        <ele>299.886182</ele>
        <time>2021-11-13T11:23:39.533Z</time>
      </trkpt>
      <trkpt lat="47.577686" lon="7.796814">
        <ele>298.143731</ele>
        <time>2021-11-13T11:23:42.828Z</time>
      </trkpt>
      <trkpt lat="47.577609" lon="7.796684">
        <ele>297.753334</ele>
        <time>2021-11-13T11:23:43.968Z</time>
      </trkpt>
      <trkpt lat="47.577554" lon="7.796595">
        <ele>297.480959</ele>
        <time>2021-11-13T11:23:44.768Z</time>
      </trkpt>
      <trkpt lat="47.577537" lon="7.796525">
        <ele>297.313070</ele>
        <time>2021-11-13T11:23:45.245Z</time>
      </trkpt>
      <trkpt lat="47.577514" lon="7.796460">
        <ele>297.147434</ele>
        <time>2021-11-13T11:23:45.718Z</time>
      </trkpt>
      <trkpt lat="47.577487" lon="7.796404">
        <ele>296.992103</ele>
        <time>2021-11-13T11:23:46.148Z</time>
      </trkpt>
      <trkpt lat="47.577336" lon="7.796248">
        <ele>296.376407</ele>
        <time>2021-11-13T11:23:48.015Z</time>
      </trkpt>
      <trkpt lat="47.577291" lon="7.796229">
        <ele>296.219886</ele>
        <time>2021-11-13T11:23:48.478Z</time>
      </trkpt>
      <trkpt lat="47.577222" lon="7.796219">
        <ele>295.987967</ele>
        <time>2021-11-13T11:23:49.152Z</time>
      </trkpt>
      <trkpt lat="47.577124" lon="7.796239">
        <ele>295.657045</ele>
        <time>2021-11-13T11:23:50.117Z</time>
      </trkpt>
      <trkpt lat="47.576960" lon="7.796396">
        <ele>295.003974</ele>
        <time>2021-11-13T11:23:52.267Z</time>
      </trkpt>
      <trkpt lat="47.576906" lon="7.796519">
        <ele>294.672800</ele>
        <time>2021-11-13T11:23:53.257Z</time>
      </trkpt>
      <trkpt lat="47.576884" lon="7.796617">
        <ele>294.439722</ele>
        <time>2021-11-13T11:23:54.003Z</time>
      </trkpt>
      <trkpt lat="47.576845" lon="7.796669">
        <ele>294.264249</ele>
        <time>2021-11-13T11:23:54.607Z</time>
      </trkpt>
      <trkpt lat="47.576565" lon="7.796902">
        <ele>293.190100</ele>
        <time>2021-11-13T11:23:58.316Z</time>
      </trkpt>
      <trkpt lat="47.576087" lon="7.797118">
        <ele>292.433763</ele>
        <time>2021-11-13T11:24:04.165Z</time>
      </trkpt>
      <trkpt lat="47.575978" lon="7.797131">
        <ele>292.315670</ele>
        <time>2021-11-13T11:24:05.339Z</time>
      </trkpt>
      <trkpt lat="47.575955" lon="7.797114">
        <ele>292.287915</ele>
        <time>2021-11-13T11:24:05.619Z</time>
      </trkpt>
      <trkpt lat="47.575928" lon="7.797105">
        <ele>292.258029</ele>
        <time>2021-11-13T11:24:05.937Z</time>
      </trkpt>
      <trkpt lat="47.575913" lon="7.797101">
        <ele>292.241570</ele>
        <time>2021-11-13T11:24:06.127Z</time>
      </trkpt>
      <trkpt lat="47.575798" lon="7.797141">
        <ele>292.114005</ele>
        <time>2021-11-13T11:24:07.517Z</time>
      </trkpt>
      <trkpt lat="47.575766" lon="7.797180">
        <ele>292.069266</ele>
        <time>2021-11-13T11:24:08.092Z</time>
      </trkpt>
      <trkpt lat="47.575752" lon="7.797206">
        <ele>292.045030</ele>
        <time>2021-11-13T11:24:08.388Z</time>
      </trkpt>
      <trkpt lat="47.575736" lon="7.797256">
        <ele>292.004713</ele>
        <time>2021-11-13T11:24:08.842Z</time>
      </trkpt>
      <trkpt lat="47.575731" lon="7.797285">
        <ele>291.982906</ele>
        <time>2021-11-13T11:24:09.059Z</time>
      </trkpt>
      <trkpt lat="47.575703" lon="7.797314">
        <ele>291.946018</ele>
        <time>2021-11-13T11:24:09.433Z</time>
      </trkpt>
      <trkpt lat="47.575578" lon="7.797427">
        <ele>291.787904</ele>
        <time>2021-11-13T11:24:11.176Z</time>
      </trkpt>
      <trkpt lat="47.575499" lon="7.797497">
        <ele>291.688509</ele>
        <time>2021-11-13T11:24:12.341Z</time>
      </trkpt>
      <trkpt lat="47.575391" lon="7.797551">
        <ele>291.565420</ele>
        <time>2021-11-13T11:24:13.719Z</time>
      </trkpt>
      <trkpt lat="47.575240" lon="7.797626">
        <ele>291.393439</ele>
        <time>2021-11-13T11:24:15.799Z</time>
      </trkpt>
      <trkpt lat="47.574910" lon="7.797787">
        <ele>291.018254</ele>
        <time>2021-11-13T11:24:20.362Z</time>
      </trkpt>
      <trkpt lat="47.574703" lon="7.797876">
        <ele>290.858424</ele>
        <time>2021-11-13T11:24:23.247Z</time>
      </trkpt>
      <trkpt lat="47.574427" lon="7.797994">
        <ele>290.707289</ele>
        <time>2021-11-13T11:24:27.379Z</time>
      </trkpt>
      <trkpt lat="47.574296" lon="7.798050">
        <ele>290.635555</ele>
        <time>2021-11-13T11:24:29.161Z</time>
      </trkpt>
      <trkpt lat="47.573813" lon="7.798212">
        <ele>290.375002</ele>
        <time>2021-11-13T11:24:35.678Z</time>
      </trkpt>
      <trkpt lat="47.573410" lon="7.798344">
        <ele>290.157850</ele>
        <time>2021-11-13T11:24:41.066Z</time>
      </trkpt>
      <trkpt lat="47.573055" lon="7.798459">
        <ele>289.958454</ele>
        <time>2021-11-13T11:24:45.754Z</time>
      </trkpt>
      <trkpt lat="47.572628" lon="7.798599">
        <ele>289.599953</ele>
        <time>2021-11-13T11:24:51.367Z</time>
      </trkpt>
      <trkpt lat="47.572527" lon="7.798632">
        <ele>289.515169</ele>
        <time>2021-11-13T11:24:52.676Z</time>
      </trkpt>
      <trkpt lat="47.572308" lon="7.798703">
        <ele>289.331397</ele>
        <time>2021-11-13T11:24:55.624Z</time>
      </trkpt>
      <trkpt lat="47.571985" lon="7.798809">
        <ele>289.060201</ele>
        <time>2021-11-13T11:24:59.865Z</time>
      </trkpt>
      <trkpt lat="47.571921" lon="7.798830">
        <ele>289.006466</ele>
        <time>2021-11-13T11:25:00.644Z</time>
      </trkpt>
      <trkpt lat="47.571202" lon="7.799089">
        <ele>288.397178</ele>
        <time>2021-11-13T11:25:09.484Z</time>
      </trkpt>
      <trkpt lat="47.569912" lon="7.799564">
        <ele>287.279837</ele>
        <time>2021-11-13T11:25:26.254Z</time>
      </trkpt>
      <trkpt lat="47.569327" lon="7.799762">
        <ele>286.899222</ele>
        <time>2021-11-13T11:25:33.703Z</time>
      </trkpt>
      <trkpt lat="47.569185" lon="7.799810">
        <ele>286.845833</ele>
        <time>2021-11-13T11:25:35.717Z</time>
      </trkpt>
      <trkpt lat="47.568384" lon="7.800059">
        <ele>286.545819</ele>
        <time>2021-11-13T11:25:47.272Z</time>
      </trkpt>
      <trkpt lat="47.568315" lon="7.800179">
        <ele>286.506823</ele>
        <time>2021-11-13T11:25:48.696Z</time>
      </trkpt>
      <trkpt lat="47.568185" lon="7.800003">
        <ele>286.442280</ele>
        <time>2021-11-13T11:25:51.534Z</time>
      </trkpt>
      <trkpt lat="47.567987" lon="7.799745">
        <ele>286.345636</ele>
        <time>2021-11-13T11:25:55.197Z</time>
      </trkpt>
      <trkpt lat="47.567788" lon="7.799488">
        <ele>286.138683</ele>
        <time>2021-11-13T11:25:58.725Z</time>
      </trkpt>
      <trkpt lat="47.567386" lon="7.798946">
        <ele>285.686390</ele>
        <time>2021-11-13T11:26:05.765Z</time>
      </trkpt>
      <trkpt lat="47.567213" lon="7.798707">
        <ele>285.489558</ele>
        <time>2021-11-13T11:26:08.855Z</time>
      </trkpt>
      <trkpt lat="47.567200" lon="7.798690">
        <ele>285.475129</ele>
        <time>2021-11-13T11:26:09.073Z</time>
      </trkpt>
      <trkpt lat="47.567008" lon="7.798425">
        <ele>285.256775</ele>
        <time>2021-11-13T11:26:12.815Z</time>
      </trkpt>
      <trkpt lat="47.566478" lon="7.797694">
        <ele>284.006008</ele>
        <time>2021-11-13T11:26:21.405Z</time>
      </trkpt>
      <trkpt lat="47.566454" lon="7.797771">
        <ele>283.791003</ele>
        <time>2021-11-13T11:26:22.030Z</time>
      </trkpt>
      <trkpt lat="47.566114" lon="7.798822">
        <ele>280.836448</ele>
        <time>2021-11-13T11:26:29.788Z</time>
      </trkpt>
      <trkpt lat="47.565704" lon="7.800090">
        <ele>277.191513</ele>
        <time>2021-11-13T11:26:38.702Z</time>
      </trkpt>
      <trkpt lat="47.565627" lon="7.800333">
        <ele>276.443156</ele>
        <time>2021-11-13T11:26:41.143Z</time>
      </trkpt>
      <trkpt lat="47.565490" lon="7.800752">
        <ele>275.145252</ele>
        <time>2021-11-13T11:26:45.451Z</time>
      </trkpt>
      <trkpt lat="47.565485" lon="7.800897">
        <ele>274.740525</ele>
        <time>2021-11-13T11:26:46.719Z</time>
      </trkpt>
      <trkpt lat="47.565517" lon="7.801041">
        <ele>274.317904</ele>
        <time>2021-11-13T11:26:47.709Z</time>
      </trkpt>
      <trkpt lat="47.566334" lon="7.802192">
        <ele>270.409356</ele>
        <time>2021-11-13T11:26:58.930Z</time>
      </trkpt>
      <trkpt lat="47.566532" lon="7.802465">
        <ele>270.136915</ele>
        <time>2021-11-13T11:27:02.002Z</time>
      </trkpt>
      <trkpt lat="47.567287" lon="7.803523">
        <ele>269.090152</ele>
        <time>2021-11-13T11:27:16.608Z</time>
      </trkpt>
      <trkpt lat="47.567503" lon="7.803912">
        <ele>268.853338</ele>
        <time>2021-11-13T11:27:21.575Z</time>
      </trkpt>
      <trkpt lat="47.567677" lon="7.804308">
        <ele>268.905004</ele>
        <time>2021-11-13T11:27:26.300Z</time>
      </trkpt>
      <trkpt lat="47.567792" lon="7.804628">
        <ele>268.944643</ele>
        <time>2021-11-13T11:27:29.944Z</time>
      </trkpt>
      <trkpt lat="47.568803" lon="7.807323">
        <ele>270.149576</ele>
        <time>2021-11-13T11:28:02.942Z</time>
      </trkpt>
      <trkpt lat="47.568962" lon="7.807589">
        <ele>270.410814</ele>
        <time>2021-11-13T11:28:06.926Z</time>
      </trkpt>
      <trkpt lat="47.570185" lon="7.808855">
        <ele>273.857385</ele>
        <time>2021-11-13T11:28:44.094Z</time>
      </trkpt>
      <trkpt lat="47.570299" lon="7.808969">
        <ele>274.295586</ele>
        <time>2021-11-13T11:28:47.868Z</time>
      </trkpt>
      <trkpt lat="47.570259" lon="7.809051">
        <ele>274.513125</ele>
        <time>2021-11-13T11:28:49.104Z</time>
      </trkpt>
      <trkpt lat="47.570230" lon="7.809116">
        <ele>274.680655</ele>
        <time>2021-11-13T11:28:50.267Z</time>
      </trkpt>
      <trkpt lat="47.570150" lon="7.809307">
        <ele>275.163970</ele>
        <time>2021-11-13T11:28:56.403Z</time>
      </trkpt>
      <trkpt lat="47.569997" lon="7.809669">
        <ele>276.082314</ele>
        <time>2021-11-13T11:29:04.134Z</time>
      </trkpt>
      <trkpt lat="47.568896" lon="7.812282">
        <ele>284.652414</ele>
        <time>2021-11-13T11:30:11.940Z</time>
      </trkpt>
      <trkpt lat="47.568525" lon="7.813167">
        <ele>287.055900</ele>
        <time>2021-11-13T11:30:32.143Z</time>
      </trkpt>
      <trkpt lat="47.568430" lon="7.813371">
        <ele>287.627697</ele>
        <time>2021-11-13T11:30:37.205Z</time>
      </trkpt>
      <trkpt lat="47.568248" lon="7.813814">
        <ele>288.824159</ele>
        <time>2021-11-13T11:30:47.104Z</time>
      </trkpt>
      <trkpt lat="47.568572" lon="7.814114">
        <ele>290.130310</ele>
        <time>2021-11-13T11:30:57.682Z</time>
      </trkpt>
      <trkpt lat="47.568480" lon="7.814364">
        <ele>290.717048</ele>
        <time>2021-11-13T11:31:02.205Z</time>
      </trkpt>
      <trkpt lat="47.568245" lon="7.815273">
        <ele>291.908791</ele>
        <time>2021-11-13T11:31:18.634Z</time>
      </trkpt>
      <trkpt lat="47.568209" lon="7.815459">
        <ele>292.145686</ele>
        <time>2021-11-13T11:31:22.172Z</time>
      </trkpt>
      <trkpt lat="47.567988" lon="7.816752">
        <ele>293.778657</ele>
        <time>2021-11-13T11:31:39.640Z</time>
      </trkpt>
      <trkpt lat="47.568049" lon="7.817619">
        <ele>293.866651</ele>
        <time>2021-11-13T11:31:50.695Z</time>
      </trkpt>
      <trkpt lat="47.568146" lon="7.818228">
        <ele>293.838536</ele>
        <time>2021-11-13T11:31:56.749Z</time>
      </trkpt>
      <trkpt lat="47.568272" lon="7.818798">
        <ele>293.811585</ele>
        <time>2021-11-13T11:32:27.825Z</time>
      </trkpt>
      <trkpt lat="47.568311" lon="7.819210">
        <ele>293.792892</ele>
        <time>2021-11-13T11:32:49.358Z</time>
      </trkpt>
      <trkpt lat="47.568417" lon="7.819772">
        <ele>293.693989</ele>
        <time>2021-11-13T11:33:19.497Z</time>
      </trkpt>
      <trkpt lat="47.568443" lon="7.820342">
        <ele>293.542812</ele>
        <time>2021-11-13T11:33:48.941Z</time>
      </trkpt>
      <trkpt lat="47.568400" lon="7.820924">
        <ele>293.387883</ele>
        <time>2021-11-13T11:34:19.182Z</time>
      </trkpt>
      <trkpt lat="47.568380" lon="7.822935">
        <ele>293.254331</ele>
        <time>2021-11-13T11:34:39.577Z</time>
      </trkpt>
      <trkpt lat="47.568448" lon="7.824552">
        <ele>293.600927</ele>
        <time>2021-11-13T11:34:58.188Z</time>
      </trkpt>
      <trkpt lat="47.568503" lon="7.825849">
        <ele>293.728273</ele>
        <time>2021-11-13T11:35:11.494Z</time>
      </trkpt>
      <trkpt lat="47.568555" lon="7.826544">
        <ele>293.780936</ele>
        <time>2021-11-13T11:35:18.530Z</time>
      </trkpt>
      <trkpt lat="47.568659" lon="7.828544">
        <ele>294.126404</ele>
        <time>2021-11-13T11:35:39.013Z</time>
      </trkpt>
      <trkpt lat="47.568703" lon="7.829421">
        <ele>294.344419</ele>
        <time>2021-11-13T11:35:48.751Z</time>
      </trkpt>
      <trkpt lat="47.568703" lon="7.829453">
        <ele>294.352352</ele>
        <time>2021-11-13T11:35:49.102Z</time>
      </trkpt>
      <trkpt lat="47.568745" lon="7.830356">
        <ele>294.727441</ele>
        <time>2021-11-13T11:35:59.958Z</time>
      </trkpt>
      <trkpt lat="47.568775" lon="7.830924">
        <ele>295.178567</ele>
        <time>2021-11-13T11:36:07.122Z</time>
      </trkpt>
      <trkpt lat="47.568760" lon="7.831139">
        <ele>295.349714</ele>
        <time>2021-11-13T11:36:09.905Z</time>
      </trkpt>
      <trkpt lat="47.568694" lon="7.831293">
        <ele>295.494174</ele>
        <time>2021-11-13T11:36:12.355Z</time>
      </trkpt>
      <trkpt lat="47.568550" lon="7.831407">
        <ele>295.685765</ele>
        <time>2021-11-13T11:36:15.695Z</time>
      </trkpt>
      <trkpt lat="47.567257" lon="7.831926">
        <ele>297.169019</ele>
        <time>2021-11-13T11:36:43.270Z</time>
      </trkpt>
      <trkpt lat="47.566920" lon="7.832056">
        <ele>297.520872</ele>
        <time>2021-11-13T11:36:49.998Z</time>
      </trkpt>
      <trkpt lat="47.566755" lon="7.832115">
        <ele>297.692373</ele>
        <time>2021-11-13T11:36:53.098Z</time>
      </trkpt>
      <trkpt lat="47.566477" lon="7.832241">
        <ele>297.986108</ele>
        <time>2021-11-13T11:36:58.410Z</time>
      </trkpt>
      <trkpt lat="47.566366" lon="7.832333">
        <ele>298.114611</ele>
        <time>2021-11-13T11:37:00.676Z</time>
      </trkpt>
      <trkpt lat="47.566744" lon="7.833235">
        <ele>298.622632</ele>
        <time>2021-11-13T11:37:12.799Z</time>
      </trkpt>
      <trkpt lat="47.567179" lon="7.834275">
        <ele>299.009144</ele>
        <time>2021-11-13T11:37:26.089Z</time>
      </trkpt>
      <trkpt lat="47.567558" lon="7.835042">
        <ele>299.324035</ele>
        <time>2021-11-13T11:37:37.158Z</time>
      </trkpt>
      <trkpt lat="47.567674" lon="7.835182">
        <ele>299.426881</ele>
        <time>2021-11-13T11:37:39.651Z</time>
      </trkpt>
      <trkpt lat="47.567566" lon="7.835567">
        <ele>299.620289</ele>
        <time>2021-11-13T11:37:44.508Z</time>
      </trkpt>
      <trkpt lat="47.567562" lon="7.835760">
        <ele>299.709857</ele>
        <time>2021-11-13T11:37:46.805Z</time>
      </trkpt>
      <trkpt lat="47.567583" lon="7.836155">
        <ele>299.893652</ele>
        <time>2021-11-13T11:37:51.463Z</time>
      </trkpt>
      <trkpt lat="47.567647" lon="7.836576">
        <ele>300.093835</ele>
        <time>2021-11-13T11:37:56.663Z</time>
      </trkpt>
      <trkpt lat="47.567670" lon="7.836721">
        <ele>300.162929</ele>
        <time>2021-11-13T11:37:58.467Z</time>
      </trkpt>
      <trkpt lat="47.567822" lon="7.837479">
        <ele>300.526144</ele>
        <time>2021-11-13T11:38:08.293Z</time>
      </trkpt>
      <trkpt lat="47.567944" lon="7.838073">
        <ele>300.744628</ele>
        <time>2021-11-13T11:38:15.593Z</time>
      </trkpt>
      <trkpt lat="47.567961" lon="7.838248">
        <ele>300.806842</ele>
        <time>2021-11-13T11:38:17.585Z</time>
      </trkpt>
      <trkpt lat="47.567936" lon="7.838380">
        <ele>300.855085</ele>
        <time>2021-11-13T11:38:18.974Z</time>
      </trkpt>
      <trkpt lat="47.567846" lon="7.838609">
        <ele>300.948338</ele>
        <time>2021-11-13T11:38:21.849Z</time>
      </trkpt>
      <trkpt lat="47.567823" lon="7.838648">
        <ele>300.966564</ele>
        <time>2021-11-13T11:38:22.480Z</time>
      </trkpt>
      <trkpt lat="47.567634" lon="7.839037">
        <ele>301.135241</ele>
        <time>2021-11-13T11:38:27.487Z</time>
      </trkpt>
      <trkpt lat="47.567626" lon="7.839064">
        <ele>301.145617</ele>
        <time>2021-11-13T11:38:27.887Z</time>
      </trkpt>
      <trkpt lat="47.567564" lon="7.839283">
        <ele>301.229187</ele>
        <time>2021-11-13T11:38:30.385Z</time>
      </trkpt>
      <trkpt lat="47.567530" lon="7.839459">
        <ele>301.293606</ele>
        <time>2021-11-13T11:38:32.504Z</time>
      </trkpt>
      <trkpt lat="47.567510" lon="7.839548">
        <ele>301.326615</ele>
        <time>2021-11-13T11:38:33.613Z</time>
      </trkpt>
      <trkpt lat="47.567481" lon="7.839664">
        <ele>301.370145</ele>
        <time>2021-11-13T11:38:34.909Z</time>
      </trkpt>
      <trkpt lat="47.567406" lon="7.839778">
        <ele>301.426172</ele>
        <time>2021-11-13T11:38:36.843Z</time>
      </trkpt>
      <trkpt lat="47.567229" lon="7.839910">
        <ele>301.586538</ele>
        <time>2021-11-13T11:38:40.446Z</time>
      </trkpt>
      <trkpt lat="47.567111" lon="7.839998">
        <ele>301.706698</ele>
        <time>2021-11-13T11:38:42.696Z</time>
      </trkpt>
      <trkpt lat="47.566826" lon="7.840179">
        <ele>301.988744</ele>
        <time>2021-11-13T11:38:48.204Z</time>
      </trkpt>
      <trkpt lat="47.566592" lon="7.840279">
        <ele>302.210271</ele>
        <time>2021-11-13T11:38:52.834Z</time>
      </trkpt>
      <trkpt lat="47.566515" lon="7.840312">
        <ele>302.283183</ele>
        <time>2021-11-13T11:38:54.123Z</time>
      </trkpt>
      <trkpt lat="47.566450" lon="7.840326">
        <ele>302.342930</ele>
        <time>2021-11-13T11:38:55.360Z</time>
      </trkpt>
      <trkpt lat="47.566350" lon="7.840350">
        <ele>302.435079</ele>
        <time>2021-11-13T11:38:57.269Z</time>
      </trkpt>
      <trkpt lat="47.566221" lon="7.840340">
        <ele>302.552583</ele>
        <time>2021-11-13T11:38:59.603Z</time>
      </trkpt>
      <trkpt lat="47.566142" lon="7.840322">
        <ele>302.625288</ele>
        <time>2021-11-13T11:39:00.835Z</time>
      </trkpt>
      <trkpt lat="47.566081" lon="7.840309">
        <ele>302.681347</ele>
        <time>2021-11-13T11:39:02.047Z</time>
      </trkpt>
      <trkpt lat="47.565906" lon="7.840272">
        <ele>302.842145</ele>
        <time>2021-11-13T11:39:05.499Z</time>
      </trkpt>
      <trkpt lat="47.565343" lon="7.840185">
        <ele>303.441282</ele>
        <time>2021-11-13T11:39:16.818Z</time>
      </trkpt>
      <trkpt lat="47.565233" lon="7.840176">
        <ele>303.572985</ele>
        <time>2021-11-13T11:39:19.156Z</time>
      </trkpt>
      <trkpt lat="47.565168" lon="7.840179">
        <ele>303.650729</ele>
        <time>2021-11-13T11:39:20.531Z</time>
      </trkpt>
      <trkpt lat="47.565057" lon="7.840213">
        <ele>303.786232</ele>
        <time>2021-11-13T11:39:22.774Z</time>
      </trkpt>
      <trkpt lat="47.564936" lon="7.840261">
        <ele>303.935978</ele>
        <time>2021-11-13T11:39:25.491Z</time>
      </trkpt>
      <trkpt lat="47.564558" lon="7.840516">
        <ele>304.432484</ele>
        <time>2021-11-13T11:39:33.773Z</time>
      </trkpt>
      <trkpt lat="47.564534" lon="7.840532">
        <ele>304.463945</ele>
        <time>2021-11-13T11:39:34.270Z</time>
      </trkpt>
      <trkpt lat="47.564463" lon="7.840580">
        <ele>304.557239</ele>
        <time>2021-11-13T11:39:35.884Z</time>
      </trkpt>
      <trkpt lat="47.564094" lon="7.840838">
        <ele>305.045001</ele>
        <time>2021-11-13T11:39:43.544Z</time>
      </trkpt>
      <trkpt lat="47.563986" lon="7.840916">
        <ele>305.188628</ele>
        <time>2021-11-13T11:39:45.832Z</time>
      </trkpt>
      <trkpt lat="47.563941" lon="7.840948">
        <ele>305.247198</ele>
        <time>2021-11-13T11:39:46.757Z</time>
      </trkpt>
      <trkpt lat="47.563805" lon="7.841046">
        <ele>305.406051</ele>
        <time>2021-11-13T11:39:49.564Z</time>
      </trkpt>
      <trkpt lat="47.563659" lon="7.841150">
        <ele>305.576212</ele>
        <time>2021-11-13T11:39:52.456Z</time>
      </trkpt>
      <trkpt lat="47.563483" lon="7.841269">
        <ele>305.779423</ele>
        <time>2021-11-13T11:39:56.185Z</time>
      </trkpt>
      <trkpt lat="47.563300" lon="7.841391">
        <ele>305.990209</ele>
        <time>2021-11-13T11:39:59.745Z</time>
      </trkpt>
      <trkpt lat="47.563016" lon="7.841568">
        <ele>306.313843</ele>
        <time>2021-11-13T11:40:05.601Z</time>
      </trkpt>
      <trkpt lat="47.562965" lon="7.841597">
        <ele>306.371224</ele>
        <time>2021-11-13T11:40:06.580Z</time>
      </trkpt>
      <trkpt lat="47.562904" lon="7.841632">
        <ele>306.439936</ele>
        <time>2021-11-13T11:40:07.809Z</time>
      </trkpt>
      <trkpt lat="47.562574" lon="7.841873">
        <ele>306.826388</ele>
        <time>2021-11-13T11:40:14.775Z</time>
      </trkpt>
      <trkpt lat="47.562440" lon="7.842083">
        <ele>307.031255</ele>
        <time>2021-11-13T11:40:18.394Z</time>
      </trkpt>
      <trkpt lat="47.562385" lon="7.842183">
        <ele>307.122700</ele>
        <time>2021-11-13T11:40:19.961Z</time>
      </trkpt>
      <trkpt lat="47.562300" lon="7.842326">
        <ele>307.286225</ele>
        <time>2021-11-13T11:40:22.861Z</time>
      </trkpt>
      <trkpt lat="47.562179" lon="7.842500">
        <ele>307.502335</ele>
        <time>2021-11-13T11:40:26.339Z</time>
      </trkpt>
      <trkpt lat="47.561498" lon="7.843130">
        <ele>308.531337</ele>
        <time>2021-11-13T11:40:43.051Z</time>
      </trkpt>
      <trkpt lat="47.561434" lon="7.843181">
        <ele>308.624479</ele>
        <time>2021-11-13T11:40:44.855Z</time>
      </trkpt>
      <trkpt lat="47.561038" lon="7.843502">
        <ele>309.203032</ele>
        <time>2021-11-13T11:40:53.556Z</time>
      </trkpt>
      <trkpt lat="47.560934" lon="7.843550">
        <ele>309.342651</ele>
        <time>2021-11-13T11:40:55.711Z</time>
      </trkpt>
      <trkpt lat="47.560812" lon="7.843560">
        <ele>309.451329</ele>
        <time>2021-11-13T11:40:57.955Z</time>
      </trkpt>
      <trkpt lat="47.560515" lon="7.843379">
        <ele>309.560394</ele>
        <time>2021-11-13T11:41:03.691Z</time>
      </trkpt>
      <trkpt lat="47.560430" lon="7.843341">
        <ele>309.590547</ele>
        <time>2021-11-13T11:41:05.493Z</time>
      </trkpt>
      <trkpt lat="47.560338" lon="7.843341">
        <ele>309.621792</ele>
        <time>2021-11-13T11:41:06.716Z</time>
      </trkpt>
      <trkpt lat="47.560209" lon="7.843393">
        <ele>309.667195</ele>
        <time>2021-11-13T11:41:09.192Z</time>
      </trkpt>
      <trkpt lat="47.560139" lon="7.843433">
        <ele>309.692675</ele>
        <time>2021-11-13T11:41:10.511Z</time>
      </trkpt>
      <trkpt lat="47.559847" lon="7.843604">
        <ele>309.799307</ele>
        <time>2021-11-13T11:41:15.679Z</time>
      </trkpt>
      <trkpt lat="47.559583" lon="7.843813">
        <ele>309.900960</ele>
        <time>2021-11-13T11:41:20.170Z</time>
      </trkpt>
      <trkpt lat="47.559158" lon="7.844233">
        <ele>310.032530</ele>
        <time>2021-11-13T11:41:27.381Z</time>
      </trkpt>
      <trkpt lat="47.559109" lon="7.844229">
        <ele>310.025546</ele>
        <time>2021-11-13T11:41:27.971Z</time>
      </trkpt>
      <trkpt lat="47.559060" lon="7.844197">
        <ele>310.017927</ele>
        <time>2021-11-13T11:41:28.602Z</time>
      </trkpt>
      <trkpt lat="47.558884" lon="7.843836">
        <ele>309.975160</ele>
        <time>2021-11-13T11:41:32.755Z</time>
      </trkpt>
      <trkpt lat="47.558555" lon="7.843392">
        <ele>309.911839</ele>
        <time>2021-11-13T11:41:38.790Z</time>
      </trkpt>
      <trkpt lat="47.558471" lon="7.843365">
        <ele>309.899608</ele>
        <time>2021-11-13T11:41:40.046Z</time>
      </trkpt>
      <trkpt lat="47.558405" lon="7.843371">
        <ele>309.890198</ele>
        <time>2021-11-13T11:41:41.215Z</time>
      </trkpt>
      <trkpt lat="47.558301" lon="7.843452">
        <ele>309.873479</ele>
        <time>2021-11-13T11:41:42.806Z</time>
      </trkpt>
      <trkpt lat="47.558136" lon="7.843582">
        <ele>309.846888</ele>
        <time>2021-11-13T11:41:45.424Z</time>
      </trkpt>
      <trkpt lat="47.557967" lon="7.843683">
        <ele>309.820957</ele>
        <time>2021-11-13T11:41:48.145Z</time>
      </trkpt>
      <trkpt lat="47.557846" lon="7.843756">
        <ele>309.802366</ele>
        <time>2021-11-13T11:41:49.987Z</time>
      </trkpt>
      <trkpt lat="47.557759" lon="7.843839">
        <ele>309.793069</ele>
        <time>2021-11-13T11:41:51.763Z</time>
      </trkpt>
      <trkpt lat="47.557715" lon="7.843940">
        <ele>309.828954</ele>
        <time>2021-11-13T11:41:52.994Z</time>
      </trkpt>
      <trkpt lat="47.557560" lon="7.844433">
        <ele>309.991302</ele>
        <time>2021-11-13T11:41:58.944Z</time>
      </trkpt>
      <trkpt lat="47.557282" lon="7.844832">
        <ele>310.162493</ele>
        <time>2021-11-13T11:42:05.318Z</time>
      </trkpt>
      <trkpt lat="47.557134" lon="7.845095">
        <ele>310.264712</ele>
        <time>2021-11-13T11:42:09.033Z</time>
      </trkpt>
      <trkpt lat="47.556636" lon="7.845928">
        <ele>310.614434</ele>
        <time>2021-11-13T11:42:21.882Z</time>
      </trkpt>
      <trkpt lat="47.556156" lon="7.846704">
        <ele>311.374387</ele>
        <time>2021-11-13T11:42:35.064Z</time>
      </trkpt>
      <trkpt lat="47.556060" lon="7.846859">
        <ele>311.526272</ele>
        <time>2021-11-13T11:42:38.059Z</time>
      </trkpt>
      <trkpt lat="47.555990" lon="7.846965">
        <ele>311.633342</ele>
        <time>2021-11-13T11:42:40.018Z</time>
      </trkpt>
      <trkpt lat="47.555966" lon="7.846932">
        <ele>311.668367</ele>
        <time>2021-11-13T11:42:40.598Z</time>
      </trkpt>
      <trkpt lat="47.555892" lon="7.846856">
        <ele>311.764686</ele>
        <time>2021-11-13T11:42:42.135Z</time>
      </trkpt>
      <trkpt lat="47.555855" lon="7.846815">
        <ele>311.814111</ele>
        <time>2021-11-13T11:42:43.063Z</time>
      </trkpt>
      <trkpt lat="47.555727" lon="7.846715">
        <ele>311.968908</ele>
        <time>2021-11-13T11:42:46.086Z</time>
      </trkpt>
      <trkpt lat="47.555199" lon="7.846687">
        <ele>312.542467</ele>
        <time>2021-11-13T11:42:56.014Z</time>
      </trkpt>
      <trkpt lat="47.555068" lon="7.846672">
        <ele>312.729233</ele>
        <time>2021-11-13T11:42:58.943Z</time>
      </trkpt>
      <trkpt lat="47.554995" lon="7.846915">
        <ele>312.984399</ele>
        <time>2021-11-13T11:43:02.647Z</time>
      </trkpt>
      <trkpt lat="47.554935" lon="7.847050">
        <ele>313.139467</ele>
        <time>2021-11-13T11:43:04.840Z</time>
      </trkpt>
      <trkpt lat="47.554892" lon="7.847148">
        <ele>313.251603</ele>
        <time>2021-11-13T11:43:06.700Z</time>
      </trkpt>
      <trkpt lat="47.554759" lon="7.847388">
        <ele>313.549513</ele>
        <time>2021-11-13T11:43:11.020Z</time>
      </trkpt>
      <trkpt lat="47.554618" lon="7.847626">
        <ele>313.853322</ele>
        <time>2021-11-13T11:43:15.580Z</time>
      </trkpt>
      <trkpt lat="47.554465" lon="7.847858">
        <ele>314.164503</ele>
        <time>2021-11-13T11:43:20.215Z</time>
      </trkpt>
      <trkpt lat="47.554351" lon="7.848049">
        <ele>314.409110</ele>
        <time>2021-11-13T11:43:23.675Z</time>
      </trkpt>
      <trkpt lat="47.554269" lon="7.848188">
        <ele>314.586219</ele>
        <time>2021-11-13T11:43:26.208Z</time>
      </trkpt>
      <trkpt lat="47.554209" lon="7.848300">
        <ele>314.723399</ele>
        <time>2021-11-13T11:43:28.289Z</time>
      </trkpt>
      <trkpt lat="47.554055" lon="7.848586">
        <ele>315.075607</ele>
        <time>2021-11-13T11:43:33.157Z</time>
      </trkpt>
      <trkpt lat="47.553725" lon="7.849291">
        <ele>316.009374</ele>
        <time>2021-11-13T11:43:44.524Z</time>
      </trkpt>
      <trkpt lat="47.553605" lon="7.849629">
        <ele>316.425030</ele>
        <time>2021-11-13T11:43:49.979Z</time>
      </trkpt>
      <trkpt lat="47.553537" lon="7.849904">
        <ele>316.743783</ele>
        <time>2021-11-13T11:43:54.170Z</time>
      </trkpt>
      <trkpt lat="47.553380" lon="7.850453">
        <ele>317.392717</ele>
        <time>2021-11-13T11:44:03.022Z</time>
      </trkpt>
      <trkpt lat="47.553344" lon="7.850525">
        <ele>317.490240</ele>
        <time>2021-11-13T11:44:04.288Z</time>
      </trkpt>
      <trkpt lat="47.553283" lon="7.850634">
        <ele>317.644350</ele>
        <time>2021-11-13T11:44:06.341Z</time>
      </trkpt>
      <trkpt lat="47.552876" lon="7.851300">
        <ele>319.136544</ele>
        <time>2021-11-13T11:44:20.174Z</time>
      </trkpt>
      <trkpt lat="47.552678" lon="7.851709">
        <ele>320.113684</ele>
        <time>2021-11-13T11:44:28.856Z</time>
      </trkpt>
      <trkpt lat="47.552449" lon="7.852231">
        <ele>321.322325</ele>
        <time>2021-11-13T11:44:40.156Z</time>
      </trkpt>
      <trkpt lat="47.552272" lon="7.852167">
        <ele>321.846392</ele>
        <time>2021-11-13T11:44:45.556Z</time>
      </trkpt>
      <trkpt lat="47.552097" lon="7.852063">
        <ele>322.388746</ele>
        <time>2021-11-13T11:44:50.803Z</time>
      </trkpt>
      <trkpt lat="47.552042" lon="7.852007">
        <ele>322.580702</ele>
        <time>2021-11-13T11:44:53.203Z</time>
      </trkpt>
      <trkpt lat="47.551925" lon="7.851845">
        <ele>323.041320</ele>
        <time>2021-11-13T11:44:57.469Z</time>
      </trkpt>
      <trkpt lat="47.551830" lon="7.851603">
        <ele>323.613845</ele>
        <time>2021-11-13T11:45:03.291Z</time>
      </trkpt>
      <trkpt lat="47.551660" lon="7.851725">
        <ele>324.192593</ele>
        <time>2021-11-13T11:45:08.524Z</time>
      </trkpt>
      <trkpt lat="47.551516" lon="7.851950">
        <ele>324.833800</ele>
        <time>2021-11-13T11:45:15.083Z</time>
      </trkpt>
      <trkpt lat="47.550221" lon="7.853833">
        <ele>329.418788</ele>
        <time>2021-11-13T11:46:02.375Z</time>
      </trkpt>
      <trkpt lat="47.549883" lon="7.854434">
        <ele>330.132074</ele>
        <time>2021-11-13T11:46:12.495Z</time>
      </trkpt>
      <trkpt lat="47.549566" lon="7.855225">
        <ele>330.970859</ele>
        <time>2021-11-13T11:46:26.354Z</time>
      </trkpt>
      <trkpt lat="47.549362" lon="7.855774">
        <ele>331.072841</ele>
        <time>2021-11-13T11:46:34.842Z</time>
      </trkpt>
      <trkpt lat="47.548887" lon="7.857308">
        <ele>331.048271</ele>
        <time>2021-11-13T11:46:56.950Z</time>
      </trkpt>
      <trkpt lat="47.548743" lon="7.857692">
        <ele>331.041876</ele>
        <time>2021-11-13T11:47:02.922Z</time>
      </trkpt>
      <trkpt lat="47.548701" lon="7.857893">
        <ele>331.128810</ele>
        <time>2021-11-13T11:47:05.893Z</time>
      </trkpt>
      <trkpt lat="47.548686" lon="7.857973">
        <ele>331.169263</ele>
        <time>2021-11-13T11:47:07.017Z</time>
      </trkpt>
      <trkpt lat="47.548611" lon="7.858381">
        <ele>331.375285</ele>
        <time>2021-11-13T11:47:13.231Z</time>
      </trkpt>
      <trkpt lat="47.548334" lon="7.859801">
        <ele>332.095438</ele>
        <time>2021-11-13T11:47:36.268Z</time>
      </trkpt>
      <trkpt lat="47.548049" lon="7.860929">
        <ele>333.135020</ele>
        <time>2021-11-13T11:47:57.286Z</time>
      </trkpt>
      <trkpt lat="47.547930" lon="7.861711">
        <ele>334.041862</ele>
        <time>2021-11-13T11:48:12.050Z</time>
      </trkpt>
      <trkpt lat="47.547568" lon="7.863151">
        <ele>335.548963</ele>
        <time>2021-11-13T11:48:41.178Z</time>
      </trkpt>
      <trkpt lat="47.547320" lon="7.863864">
        <ele>335.963759</ele>
        <time>2021-11-13T11:48:55.118Z</time>
      </trkpt>
      <trkpt lat="47.546974" lon="7.864423">
        <ele>336.355984</ele>
        <time>2021-11-13T11:49:05.941Z</time>
      </trkpt>
      <trkpt lat="47.546885" lon="7.864500">
        <ele>336.434947</ele>
        <time>2021-11-13T11:49:09.026Z</time>
      </trkpt>
      <trkpt lat="47.546894" lon="7.864837">
        <ele>336.609360</ele>
        <time>2021-11-13T11:49:12.910Z</time>
      </trkpt>
      <trkpt lat="47.546889" lon="7.865225">
        <ele>336.644988</ele>
        <time>2021-11-13T11:49:18.335Z</time>
      </trkpt>
      <trkpt lat="47.546819" lon="7.865489">
        <ele>336.480293</ele>
        <time>2021-11-13T11:49:22.280Z</time>
      </trkpt>
      <trkpt lat="47.546510" lon="7.865766">
        <ele>336.169604</ele>
        <time>2021-11-13T11:49:28.914Z</time>
      </trkpt>
      <trkpt lat="47.546327" lon="7.865959">
        <ele>335.976365</ele>
        <time>2021-11-13T11:49:32.429Z</time>
      </trkpt>
      <trkpt lat="47.546096" lon="7.866147">
        <ele>335.749639</ele>
        <time>2021-11-13T11:49:36.985Z</time>
      </trkpt>
      <trkpt lat="47.545240" lon="7.866887">
        <ele>335.366214</ele>
        <time>2021-11-13T11:49:53.658Z</time>
      </trkpt>
      <trkpt lat="47.545160" lon="7.866985">
        <ele>335.422404</ele>
        <time>2021-11-13T11:49:55.614Z</time>
      </trkpt>
      <trkpt lat="47.545003" lon="7.867278">
        <ele>335.559089</ele>
        <time>2021-11-13T11:50:01.282Z</time>
      </trkpt>
      <trkpt lat="47.544568" lon="7.867693">
        <ele>335.839150</ele>
        <time>2021-11-13T11:50:14.073Z</time>
      </trkpt>
      <trkpt lat="47.544469" lon="7.867776">
        <ele>335.900724</ele>
        <time>2021-11-13T11:50:16.935Z</time>
      </trkpt>
      <trkpt lat="47.544410" lon="7.867825">
        <ele>335.937336</ele>
        <time>2021-11-13T11:50:19.024Z</time>
      </trkpt>
      <trkpt lat="47.544246" lon="7.867967">
        <ele>336.040158</ele>
        <time>2021-11-13T11:50:23.707Z</time>
      </trkpt>
      <trkpt lat="47.544214" lon="7.867988">
        <ele>336.059102</ele>
        <time>2021-11-13T11:50:24.555Z</time>
      </trkpt>
      <trkpt lat="47.543801" lon="7.868269">
        <ele>336.158612</ele>
        <time>2021-11-13T11:50:36.158Z</time>
      </trkpt>
      <trkpt lat="47.543657" lon="7.868359">
        <ele>336.158612</ele>
        <time>2021-11-13T11:50:40.508Z</time>
      </trkpt>
      <trkpt lat="47.543201" lon="7.868657">
        <ele>336.158612</ele>
        <time>2021-11-13T11:50:50.708Z</time>
      </trkpt>
      <trkpt lat="47.543105" lon="7.868711">
        <ele>336.158612</ele>
        <time>2021-11-13T11:50:53.273Z</time>
      </trkpt>
      <trkpt lat="47.543049" lon="7.868759">
        <ele>336.158612</ele>
        <time>2021-11-13T11:50:54.571Z</time>
      </trkpt>
      <trkpt lat="47.542722" lon="7.869201">
        <ele>336.158612</ele>
        <time>2021-11-13T11:51:03.941Z</time>
      </trkpt>
      <trkpt lat="47.542696" lon="7.869257">
        <ele>336.158612</ele>
        <time>2021-11-13T11:51:04.691Z</time>
      </trkpt>
      <trkpt lat="47.542657" lon="7.869354">
        <ele>336.158612</ele>
        <time>2021-11-13T11:51:06.094Z</time>
      </trkpt>
      <trkpt lat="47.542372" lon="7.869746">
        <ele>336.158612</ele>
        <time>2021-11-13T11:51:12.927Z</time>
      </trkpt>
      <trkpt lat="47.542329" lon="7.869820">
        <ele>336.158612</ele>
        <time>2021-11-13T11:51:14.139Z</time>
      </trkpt>
      <trkpt lat="47.542348" lon="7.869983">
        <ele>336.158612</ele>
        <time>2021-11-13T11:51:15.666Z</time>
      </trkpt>
      <trkpt lat="47.542317" lon="7.870012">
        <ele>336.158612</ele>
        <time>2021-11-13T11:51:16.262Z</time>
      </trkpt>
      <trkpt lat="47.542181" lon="7.870131">
        <ele>336.158612</ele>
        <time>2021-11-13T11:51:18.616Z</time>
      </trkpt>
      <trkpt lat="47.542118" lon="7.870134">
        <ele>336.158612</ele>
        <time>2021-11-13T11:51:19.649Z</time>
      </trkpt>
    </trkseg>
  </trk>
</gpx>